[[{"header":{"parameterUnit":"m.s-1","parameterCategory":1,"la1":30.6,"la2":29.2853,"lo1":-89.7004,"lo2":-87.6739,"dy":0.0162,"dx":0.0183,"nx":112,"ny":82,"refTime":"2024-11-22T06:00:00:Z","depth":0,"parameterNumber":2,"parameterNumberName":"U-component_of_WINDS"},"data":[0.0,0.0,0.0,0.0,0.0,0.0,0.0,0.0,0.0,0.0,0.0,0.0,0.0,0.0,0.0,0.0,0.0,0.0,0.0,0.0,0.0,0.0,0.0,0.0,0.0,0.0,0.0,0.0,0.0,0.0,0.0,0.0,0.0,0.0,0.0,0.0,0.0,0.0,0.0,0.0,0.0,0.0,0.0,0.0,0.0,0.0,0.0,0.0,0.0,0.0,0.0,0.0,0.0,0.0,0.0,0.0,0.0,0.0,0.0,0.0,0.0,0.0,0.0,0.0,0.0,0.0,0.0,0.0,0.0,0.0,0.0,0.0,0.0,0.0,0.0,0.0,0.0,0.0,0.0,0.0,0.0,0.0,0.0,0.0,0.0,0.0,0.0,0.0,0.0,0.0,-3.6826,-3.788,-3.7345,-3.723,-3.8035,-3.8155,-3.7457,-3.5702,0.0,0.0,0.0,0.0,0.0,0.0,0.0,0.0,0.0,0.0,0.0,0.0,0.0,0.0,0.0,0.0,0.0,0.0,0.0,0.0,0.0,0.0,0.0,0.0,0.0,0.0,0.0,0.0,0.0,0.0,0.0,0.0,0.0,0.0,0.0,0.0,0.0,0.0,0.0,0.0,0.0,0.0,0.0,0.0,0.0,0.0,0.0,0.0,0.0,0.0,0.0,0.0,0.0,0.0,0.0,0.0,0.0,0.0,0.0,0.0,0.0,0.0,0.0,0.0,0.0,0.0,0.0,0.0,0.0,0.0,0.0,0.0,0.0,0.0,0.0,0.0,0.0,0.0,0.0,0.0,0.0,0.0,0.0,0.0,0.0,0.0,0.0,0.0,0.0,0.0,0.0,0.0,0.0,0.0,0.0,0.0,0.0,0.0,0.0,0.0,0.0,0.0,0.0,0.0,-3.5301,-3.6924,-3.699,-3.723,-3.8035,-3.8714,-3.833,-3.6535,0.0,0.0,0.0,0.0,0.0,0.0,0.0,0.0,0.0,0.0,0.0,0.0,0.0,0.0,0.0,0.0,0.0,0.0,0.0,0.0,0.0,0.0,0.0,0.0,0.0,0.0,0.0,0.0,0.0,0.0,0.0,0.0,0.0,0.0,0.0,0.0,0.0,0.0,0.0,0.0,0.0,0.0,0.0,0.0,0.0,0.0,0.0,0.0,0.0,0.0,0.0,0.0,0.0,0.0,0.0,0.0,0.0,0.0,0.0,0.0,0.0,0.0,0.0,0.0,0.0,0.0,0.0,0.0,0.0,0.0,0.0,0.0,0.0,0.0,0.0,0.0,0.0,0.0,0.0,0.0,0.0,0.0,0.0,0.0,0.0,0.0,0.0,0.0,0.0,0.0,0.0,0.0,0.0,0.0,0.0,0.0,0.0,0.0,0.0,0.0,0.0,0.0,0.0,-3.5037,-3.5367,-3.6168,-3.664,-3.7223,-3.8035,-3.8446,-3.787,-3.6055,-3.4876,0.0,0.0,0.0,0.0,0.0,0.0,0.0,0.0,0.0,0.0,0.0,0.0,0.0,0.0,0.0,0.0,0.0,0.0,0.0,0.0,0.0,0.0,0.0,0.0,0.0,0.0,0.0,0.0,0.0,0.0,0.0,0.0,0.0,0.0,0.0,0.0,0.0,0.0,0.0,0.0,0.0,0.0,0.0,0.0,0.0,0.0,0.0,0.0,0.0,0.0,0.0,0.0,0.0,0.0,0.0,0.0,0.0,0.0,0.0,0.0,0.0,0.0,0.0,0.0,0.0,0.0,0.0,0.0,0.0,0.0,0.0,0.0,0.0,0.0,0.0,0.0,0.0,0.0,0.0,0.0,0.0,0.0,0.0,0.0,0.0,0.0,0.0,0.0,0.0,0.0,0.0,0.0,0.0,0.0,0.0,0.0,0.0,0.0,0.0,0.0,0.0,0.0,-3.5753,-3.6207,-3.6013,-3.6729,-3.7454,-3.8041,-3.8099,-3.7229,-3.514,-3.3878,0.0,0.0,0.0,0.0,0.0,0.0,0.0,0.0,0.0,0.0,0.0,0.0,0.0,0.0,0.0,0.0,0.0,0.0,0.0,0.0,0.0,0.0,0.0,0.0,0.0,0.0,0.0,0.0,0.0,0.0,0.0,0.0,0.0,0.0,0.0,0.0,0.0,0.0,0.0,0.0,0.0,0.0,0.0,0.0,0.0,0.0,0.0,0.0,0.0,0.0,0.0,0.0,0.0,0.0,0.0,0.0,0.0,0.0,0.0,0.0,0.0,0.0,0.0,0.0,0.0,0.0,0.0,0.0,0.0,0.0,0.0,0.0,0.0,0.0,0.0,0.0,0.0,0.0,0.0,0.0,0.0,0.0,0.0,0.0,0.0,0.0,0.0,0.0,0.0,0.0,0.0,0.0,0.0,0.0,0.0,0.0,0.0,0.0,0.0,0.0,0.0,0.0,-3.6054,-3.7709,-3.6903,-3.7593,-3.8111,-3.8106,-3.8106,-3.6906,-3.4091,-3.2888,0.0,0.0,0.0,0.0,0.0,0.0,0.0,0.0,0.0,0.0,0.0,0.0,0.0,0.0,0.0,0.0,0.0,0.0,0.0,0.0,0.0,0.0,0.0,0.0,0.0,0.0,0.0,0.0,0.0,0.0,0.0,0.0,0.0,0.0,0.0,0.0,0.0,0.0,0.0,0.0,0.0,0.0,0.0,0.0,0.0,0.0,0.0,0.0,0.0,0.0,0.0,0.0,0.0,0.0,0.0,0.0,0.0,0.0,0.0,0.0,0.0,0.0,0.0,0.0,0.0,0.0,0.0,0.0,0.0,0.0,0.0,0.0,0.0,0.0,0.0,0.0,0.0,0.0,0.0,0.0,0.0,0.0,0.0,0.0,0.0,0.0,0.0,0.0,0.0,0.0,0.0,0.0,0.0,0.0,0.0,0.0,0.0,0.0,0.0,0.0,0.0,0.0,-3.5165,-3.6709,0.0,-3.7193,-3.7601,-3.8119,-3.7636,-3.6138,-3.3405,0.0,0.0,0.0,0.0,0.0,0.0,0.0,0.0,0.0,0.0,0.0,0.0,0.0,0.0,0.0,0.0,0.0,0.0,0.0,0.0,0.0,0.0,0.0,0.0,0.0,0.0,0.0,0.0,0.0,0.0,0.0,0.0,0.0,0.0,0.0,0.0,0.0,0.0,0.0,0.0,0.0,0.0,0.0,0.0,0.0,0.0,0.0,0.0,0.0,0.0,0.0,0.0,0.0,0.0,0.0,0.0,0.0,0.0,0.0,0.0,0.0,0.0,0.0,0.0,0.0,0.0,0.0,0.0,0.0,0.0,0.0,0.0,0.0,0.0,0.0,0.0,0.0,0.0,0.0,0.0,0.0,0.0,0.0,0.0,0.0,0.0,0.0,0.0,0.0,0.0,0.0,0.0,0.0,0.0,0.0,0.0,0.0,0.0,0.0,0.0,0.0,0.0,-3.3119,-3.5093,-3.6593,0.0,-3.6903,-3.7143,-3.7751,-3.6697,-3.5091,-3.2935,0.0,0.0,0.0,0.0,0.0,0.0,0.0,0.0,0.0,0.0,0.0,0.0,0.0,0.0,0.0,0.0,0.0,0.0,0.0,0.0,0.0,0.0,0.0,0.0,0.0,0.0,0.0,0.0,0.0,0.0,0.0,0.0,0.0,0.0,0.0,0.0,0.0,0.0,0.0,0.0,0.0,0.0,0.0,0.0,0.0,0.0,0.0,0.0,0.0,0.0,0.0,0.0,0.0,0.0,0.0,0.0,0.0,0.0,0.0,0.0,0.0,0.0,0.0,0.0,0.0,0.0,0.0,0.0,0.0,0.0,0.0,0.0,0.0,0.0,0.0,0.0,0.0,0.0,0.0,0.0,0.0,0.0,0.0,0.0,0.0,0.0,0.0,0.0,0.0,0.0,0.0,0.0,0.0,0.0,0.0,0.0,0.0,0.0,0.0,0.0,0.0,0.0,-3.3198,-3.6085,-3.7864,-3.7,-3.6884,-3.6891,-3.6901,-3.5307,-3.3801,0.0,0.0,0.0,0.0,0.0,0.0,0.0,0.0,0.0,0.0,0.0,0.0,0.0,0.0,0.0,0.0,0.0,0.0,0.0,0.0,0.0,0.0,0.0,0.0,0.0,0.0,0.0,0.0,0.0,0.0,0.0,0.0,0.0,0.0,0.0,0.0,0.0,0.0,0.0,0.0,0.0,0.0,0.0,0.0,0.0,0.0,0.0,0.0,0.0,0.0,0.0,0.0,0.0,0.0,0.0,0.0,0.0,0.0,0.0,0.0,0.0,0.0,0.0,0.0,0.0,0.0,0.0,0.0,0.0,0.0,0.0,0.0,0.0,0.0,0.0,0.0,0.0,0.0,0.0,0.0,0.0,0.0,0.0,0.0,0.0,0.0,0.0,0.0,0.0,0.0,0.0,0.0,0.0,0.0,0.0,0.0,0.0,0.0,0.0,0.0,0.0,0.0,0.0,-3.3121,-3.5544,-3.7174,-3.6922,-3.6381,-3.6278,-3.6853,-3.5299,-3.34,-3.1247,0.0,0.0,0.0,0.0,0.0,0.0,0.0,0.0,0.0,0.0,0.0,0.0,0.0,0.0,0.0,0.0,0.0,0.0,0.0,0.0,0.0,0.0,0.0,0.0,0.0,0.0,0.0,0.0,0.0,0.0,0.0,0.0,0.0,0.0,0.0,0.0,0.0,0.0,0.0,0.0,0.0,0.0,0.0,0.0,0.0,0.0,0.0,0.0,0.0,0.0,0.0,0.0,0.0,0.0,0.0,0.0,0.0,0.0,0.0,0.0,0.0,0.0,0.0,0.0,0.0,0.0,0.0,0.0,0.0,0.0,0.0,0.0,0.0,0.0,0.0,0.0,0.0,0.0,0.0,0.0,0.0,0.0,0.0,0.0,0.0,0.0,0.0,0.0,0.0,0.0,0.0,0.0,0.0,0.0,0.0,0.0,0.0,0.0,0.0,0.0,0.0,0.0,-3.3063,-3.5311,-3.6787,-3.6458,-3.5994,-3.5897,-3.6381,-3.4803,-3.3128,-3.159,0.0,0.0,0.0,0.0,0.0,0.0,0.0,0.0,0.0,0.0,0.0,0.0,0.0,0.0,0.0,0.0,0.0,0.0,0.0,0.0,0.0,0.0,0.0,0.0,0.0,0.0,0.0,0.0,0.0,0.0,0.0,0.0,0.0,0.0,0.0,0.0,0.0,0.0,0.0,0.0,0.0,0.0,0.0,0.0,0.0,0.0,0.0,0.0,0.0,0.0,0.0,0.0,0.0,0.0,0.0,0.0,0.0,0.0,0.0,0.0,0.0,0.0,0.0,0.0,0.0,0.0,0.0,0.0,0.0,0.0,0.0,0.0,0.0,0.0,0.0,0.0,0.0,0.0,0.0,0.0,0.0,0.0,0.0,0.0,0.0,0.0,0.0,0.0,0.0,0.0,0.0,0.0,0.0,0.0,0.0,0.0,0.0,0.0,0.0,0.0,0.0,0.0,-3.2991,-3.5253,-3.6516,-3.5781,-3.5704,-3.5704,-3.5704,-3.4108,-3.3051,-3.2896,0.0,0.0,0.0,0.0,0.0,0.0,0.0,0.0,0.0,0.0,0.0,0.0,0.0,0.0,0.0,0.0,0.0,0.0,0.0,0.0,0.0,0.0,0.0,0.0,0.0,0.0,0.0,0.0,0.0,0.0,0.0,0.0,0.0,0.0,0.0,0.0,0.0,0.0,0.0,0.0,0.0,0.0,0.0,0.0,0.0,0.0,0.0,0.0,0.0,0.0,0.0,0.0,0.0,0.0,0.0,0.0,0.0,0.0,0.0,0.0,-4.2807,0.0,0.0,0.0,0.0,0.0,0.0,0.0,0.0,0.0,0.0,0.0,0.0,0.0,0.0,0.0,0.0,0.0,0.0,0.0,0.0,0.0,0.0,0.0,0.0,0.0,0.0,0.0,0.0,0.0,0.0,0.0,0.0,0.0,0.0,0.0,0.0,0.0,0.0,0.0,0.0,0.0,-3.2991,-3.4775,-3.5897,-3.5723,-3.5704,-3.5704,-3.5704,-3.4671,-3.3459,-3.2144,-3.0219,0.0,0.0,0.0,0.0,0.0,0.0,0.0,0.0,0.0,0.0,0.0,0.0,0.0,0.0,0.0,0.0,0.0,0.0,0.0,0.0,0.0,0.0,0.0,0.0,0.0,0.0,0.0,0.0,0.0,0.0,0.0,0.0,0.0,0.0,0.0,0.0,0.0,0.0,0.0,0.0,0.0,0.0,0.0,0.0,0.0,0.0,0.0,0.0,0.0,0.0,0.0,0.0,0.0,0.0,0.0,0.0,0.0,0.0,0.0,0.0,-4.3256,0.0,0.0,0.0,0.0,0.0,0.0,0.0,0.0,0.0,0.0,0.0,0.0,0.0,0.0,0.0,0.0,0.0,0.0,0.0,0.0,0.0,0.0,0.0,0.0,0.0,0.0,0.0,0.0,0.0,0.0,0.0,0.0,0.0,0.0,0.0,0.0,0.0,0.0,0.0,0.0,-3.2991,-3.4621,-3.5704,-3.5704,-3.5704,-3.5704,-3.5704,-3.485,-3.3766,-3.2494,-3.0763,0.0,0.0,0.0,0.0,0.0,0.0,0.0,0.0,0.0,0.0,0.0,0.0,0.0,0.0,0.0,0.0,0.0,0.0,0.0,0.0,0.0,0.0,0.0,0.0,0.0,0.0,0.0,0.0,0.0,0.0,0.0,0.0,0.0,0.0,0.0,0.0,0.0,0.0,0.0,0.0,0.0,0.0,0.0,0.0,0.0,0.0,0.0,0.0,0.0,0.0,0.0,0.0,0.0,-4.6523,-4.6523,-4.6523,-4.6367,-4.5996,-4.5391,-4.4529,-4.4489,-4.4881,-4.3449,0.0,0.0,0.0,0.0,0.0,0.0,0.0,0.0,0.0,0.0,0.0,0.0,0.0,0.0,0.0,0.0,0.0,0.0,0.0,0.0,0.0,0.0,0.0,0.0,-4.1961,-4.1516,-3.7754,0.0,0.0,0.0,0.0,0.0,0.0,0.0,0.0,0.0,0.0,0.0,-3.3238,-3.4714,-3.5701,-3.5695,-3.5695,-3.5632,-3.5496,-3.4759,-3.397,-3.3153,-3.1551,-3.0342,0.0,0.0,0.0,0.0,0.0,0.0,0.0,0.0,0.0,0.0,0.0,0.0,0.0,0.0,0.0,0.0,0.0,0.0,0.0,0.0,0.0,0.0,0.0,0.0,0.0,0.0,0.0,0.0,0.0,0.0,0.0,0.0,-4.4269,-4.4486,0.0,0.0,0.0,0.0,0.0,0.0,0.0,0.0,0.0,0.0,0.0,0.0,0.0,-4.6589,-4.793,-4.8021,-4.7808,-4.7338,-4.7399,-4.7422,-4.7402,-4.6641,-4.6641,-4.7207,-4.6348,0.0,-4.4979,-4.4743,0.0,0.0,0.0,0.0,0.0,0.0,0.0,0.0,0.0,0.0,0.0,0.0,0.0,0.0,0.0,0.0,0.0,0.0,0.0,0.0,0.0,0.0,-4.4117,-4.3414,-4.3389,-4.3144,0.0,-3.9793,-3.8152,-3.7929,-3.6084,0.0,0.0,0.0,0.0,0.0,0.0,0.0,-3.4206,-3.5137,-3.5708,-3.5702,-3.5702,-3.5382,-3.4645,-3.4466,-3.4011,-3.3158,-3.2162,-3.1567,-3.1463,-2.978,0.0,0.0,0.0,0.0,0.0,0.0,0.0,0.0,0.0,0.0,0.0,0.0,0.0,0.0,0.0,0.0,0.0,0.0,0.0,0.0,0.0,0.0,0.0,0.0,0.0,0.0,0.0,0.0,0.0,-4.3343,-4.4131,-4.5104,-4.446,-4.3931,0.0,0.0,0.0,0.0,0.0,0.0,0.0,0.0,0.0,-4.6623,-4.7149,-4.7534,-4.7806,-4.7953,-4.7858,-4.751,-4.7575,-4.7598,-4.7598,-4.7207,-4.6973,-4.6855,-4.6465,-4.6074,-4.5683,-4.5194,-4.4783,-4.4371,0.0,0.0,0.0,0.0,-4.3061,-4.2459,-4.3467,-4.3273,-4.2417,-4.1432,0.0,0.0,0.0,0.0,0.0,0.0,0.0,0.0,0.0,0.0,-4.4114,-4.3745,-4.3671,-4.3594,-4.3203,-4.1812,-4.0351,0.0,-3.8261,-3.671,-3.4344,0.0,0.0,0.0,0.0,-3.4074,-3.4447,-3.5244,-3.5568,-3.5074,-3.503,-3.4652,-3.3756,-3.4119,-3.4031,-3.3155,-3.3177,-3.2993,-3.2557,-3.0862,-2.9746,0.0,0.0,0.0,0.0,0.0,0.0,0.0,0.0,0.0,0.0,0.0,0.0,0.0,0.0,0.0,0.0,0.0,0.0,0.0,0.0,0.0,0.0,0.0,0.0,0.0,0.0,0.0,0.0,-4.3605,-4.431,-4.5623,-4.5017,-4.4454,0.0,0.0,0.0,0.0,0.0,0.0,-4.5388,-4.6092,-4.686,-4.7752,-4.816,-4.8186,-4.7817,-4.7786,-4.7649,-4.7455,-4.753,-4.7577,-4.7598,-4.7363,-4.7031,-4.6621,-4.6406,-4.6308,-4.625,-4.5605,-4.5331,-4.5272,-4.4626,-4.4323,-4.4362,-4.4963,-4.4748,-4.4334,-4.5687,-4.5602,-4.4746,-4.3679,-4.3012,-4.2144,-3.9548,0.0,0.0,0.0,0.0,-4.2571,-4.2632,-4.3149,-4.3644,-4.3691,-4.3691,-4.3633,-4.3418,-4.2832,-4.1991,0.0,-4.0075,-3.8779,-3.5711,0.0,0.0,0.0,0.0,-3.4578,-3.4798,-3.5203,-3.522,-3.4578,-3.4298,-3.378,-3.288,-3.3398,-3.348,-3.2817,-3.3323,-3.3487,-3.3125,-3.1636,-3.0732,-3.0495,0.0,0.0,0.0,0.0,0.0,0.0,0.0,0.0,0.0,0.0,0.0,0.0,0.0,0.0,0.0,0.0,0.0,0.0,0.0,0.0,0.0,0.0,0.0,0.0,0.0,0.0,0.0,0.0,0.0,-4.569,-4.4941,0.0,0.0,0.0,0.0,-4.546,-4.5584,-4.6282,-4.7936,-4.8114,-4.8538,-4.9351,-4.869,-4.8673,-4.9467,-4.8787,-4.8064,-4.7306,-4.7435,-4.7548,-4.7578,-4.6738,-4.6797,-4.748,-4.666,-4.6308,-4.6308,-4.625,-4.623,-4.623,-4.619,-4.617,-4.6169,-4.6208,-4.6189,-4.6169,-4.6269,-4.5722,-4.5117,-4.5859,-4.4937,-4.3495,-4.3331,-4.272,0.0,0.0,-4.2822,-4.3555,-4.3612,-4.3652,-4.3691,-4.3691,-4.3691,-4.3475,-4.2635,-4.2382,-4.2302,0.0,-4.0976,-3.9297,-3.74,0.0,-3.5493,-3.4525,-3.4431,-3.4802,-3.5632,-3.5045,-3.4552,-3.4508,-3.3766,-3.291,-3.2033,-3.2009,-3.1976,-3.1869,-3.1908,-3.2275,-3.3063,-3.2212,-3.1357,-3.0525,-3.0361,0.0,0.0,0.0,0.0,0.0,0.0,0.0,0.0,0.0,0.0,0.0,0.0,0.0,0.0,0.0,0.0,0.0,0.0,0.0,0.0,0.0,0.0,0.0,0.0,0.0,0.0,0.0,0.0,-4.5701,-4.6386,0.0,-4.6065,-4.6262,-4.6637,-4.7208,-4.7246,-4.7757,-4.8903,-4.8989,-4.9161,-4.9488,-4.9216,-4.8711,-4.7923,-4.774,-4.7243,-4.6401,-4.6571,-4.6679,-4.6688,-4.6425,-4.6465,-4.6758,-4.6426,-4.6308,-4.6308,-4.6308,-4.6308,-4.6308,-4.6308,-4.6308,-4.6308,-4.6308,-4.6308,-4.6308,-4.6308,-4.6094,-4.5898,-4.6191,-4.5488,-4.4509,-4.4508,-4.388,-4.3195,-4.3201,-4.3417,-4.3535,-4.3006,-4.2868,-4.2712,-4.2165,-4.2028,-4.1793,-4.0972,-4.0779,-4.0604,-4.0052,-3.9882,-3.91,-3.6756,-3.6561,-3.6247,-3.4773,-3.5045,-3.5506,-3.5819,-3.5095,-3.435,-3.3783,-3.2951,-3.2066,-3.1204,-3.1603,-3.1885,-3.1868,-3.2387,-3.2834,-3.3141,-3.2337,-3.1727,-3.1413,-3.0306,-2.9414,0.0,0.0,0.0,0.0,0.0,0.0,0.0,0.0,0.0,0.0,0.0,0.0,0.0,0.0,0.0,0.0,0.0,0.0,0.0,0.0,0.0,0.0,0.0,0.0,0.0,0.0,-4.5684,-4.5676,-4.6658,-4.7218,-4.6932,-4.7421,-4.7864,-4.8086,-4.8105,-4.8355,-4.8933,-4.8952,-4.899,-4.9037,-4.8767,-4.8101,-4.6968,-4.6798,-4.6435,-4.59,-4.6033,-4.6131,-4.6204,-4.6242,-4.6288,-4.6289,-4.5975,-4.5839,-4.584,-4.5526,-4.5409,-4.5488,-4.6074,-4.6308,-4.6308,-4.6308,-4.6113,-4.582,-4.5527,-4.543,-4.5429,-4.5429,-4.5039,-4.457,-4.457,-4.4159,-4.369,-4.3709,-4.3493,-4.3122,-4.2554,-4.2182,-4.1752,-4.0892,-4.0696,-4.0461,-3.964,-3.9463,-3.9207,-3.8324,-3.8826,-3.875,-3.6718,-3.6855,-3.6738,-3.5251,-3.5292,-3.5486,-3.5453,-3.4464,-3.3539,-3.2964,-3.2098,-3.1339,-3.074,-3.1196,-3.1483,-3.1463,-3.2004,-3.2314,-3.2314,-3.1775,-3.1453,-3.1453,-3.0595,-3.0148,-3.0134,0.0,0.0,0.0,0.0,0.0,0.0,0.0,0.0,0.0,0.0,0.0,0.0,0.0,0.0,0.0,0.0,0.0,0.0,0.0,0.0,0.0,0.0,0.0,-4.4361,-4.5156,-4.5687,-4.5577,-4.5615,-4.5981,-4.6808,-4.6914,-4.725,-4.8048,-4.8105,-4.8105,-4.8105,-4.8105,-4.8086,-4.8067,-4.7317,-4.6892,-4.6859,-4.6097,-4.5761,-4.5889,-4.5894,-4.6,-4.6199,-4.6161,-4.6199,-4.6191,-4.5261,-4.4894,-4.4883,-4.3973,-4.3644,-4.3867,-4.5566,-4.6211,-4.6211,-4.6211,-4.5683,-4.4844,-4.3984,-4.3691,-4.3709,-4.3709,-4.3708,-4.3705,-4.3705,-4.3685,-4.3666,-4.3666,-4.3021,-4.2358,-4.2337,-4.1693,-4.0853,-4.0052,-3.9854,-3.9616,-3.8756,-3.8556,-3.8298,-3.7438,-3.7931,-3.8246,-3.74,-3.7243,-3.6907,-3.6002,-3.5172,0.0,-3.4572,-3.3119,-3.2107,-3.2105,-3.1276,-3.0738,-3.0745,-3.0746,-3.0715,-3.0653,-3.0614,-3.0618,-3.0657,-3.064,-3.0666,-3.0677,-3.1444,-3.1835,-3.1835,0.0,0.0,0.0,0.0,0.0,0.0,0.0,0.0,0.0,0.0,0.0,0.0,0.0,0.0,0.0,0.0,0.0,0.0,0.0,0.0,0.0,-4.3041,-4.3961,-4.4078,-4.5201,-4.5757,-4.5106,-4.6089,-4.6767,-4.6623,-4.7131,-4.7652,-4.8077,-4.8105,-4.8105,-4.8105,-4.8105,-4.7836,-4.7259,-4.7019,-4.6605,-4.595,-4.58,-4.5714,-4.5765,-4.5848,-4.5938,-4.5963,-4.542,-4.5226,-4.5237,-4.4287,-4.3957,-4.4023,-4.3738,-4.3644,-4.375,-4.4238,-4.4414,-4.4414,-4.4414,-4.4257,-4.4022,-4.3788,-4.3709,-4.3706,-4.3706,-4.3706,-4.3705,-4.3705,-4.3256,-4.2767,-4.2763,-4.2136,-4.1315,-4.0687,-4.0334,-3.9944,-3.9143,-3.8966,-3.8711,-3.7852,-3.7654,-3.7399,-3.6539,-3.6542,-3.6639,-3.6404,-3.5837,-3.5335,-3.5073,-3.4309,0.0,-3.3724,-3.2789,-3.2081,-3.2034,-3.1802,-3.164,-3.1647,-3.1631,-3.1626,-3.1623,-3.1061,-3.1029,-3.1658,-3.164,-3.1884,-3.2471,-3.2695,-3.2826,0.0,0.0,0.0,0.0,0.0,0.0,0.0,0.0,0.0,0.0,0.0,0.0,0.0,0.0,0.0,0.0,0.0,0.0,0.0,0.0,0.0,0.0,-4.3646,-4.412,-4.4167,-4.4962,-4.5369,-4.4857,-4.5665,-4.627,-4.6336,-4.6857,-4.7253,-4.7414,-4.754,-4.7451,-4.7067,-4.7048,-4.6836,-4.6374,-4.6355,-4.6105,-4.5594,-4.564,-4.5665,-4.5701,-4.5404,-4.5299,-4.5337,-4.4569,-4.4277,-4.4307,-4.3338,-4.298,-4.3081,-4.2684,-4.2554,0.0,0.0,0.0,0.0,0.0,-4.3163,-4.3102,-4.2731,-4.2611,-4.2608,-4.2608,-4.2607,-4.2606,-4.2606,-4.2253,-4.1863,-4.1858,-4.1232,-4.045,-3.9938,-3.9546,-3.9097,-3.8259,-3.8064,-3.783,-3.6931,-3.6755,-3.6617,-3.6109,-3.5719,0.0,-3.5465,-3.5037,-3.4572,-3.4211,-3.3404,-3.286,-3.2851,-3.2089,-3.1679,-3.2002,-3.2049,-3.2191,-3.2563,-3.2567,0.0,0.0,0.0,-3.2064,-3.2571,-3.2562,0.0,0.0,0.0,0.0,0.0,0.0,0.0,0.0,-3.4827,-3.5359,0.0,0.0,0.0,0.0,0.0,0.0,0.0,0.0,0.0,0.0,0.0,0.0,0.0,0.0,0.0,0.0,-4.4153,-4.4402,-4.436,-4.4559,-4.4701,-4.4701,-4.4701,-4.5029,-4.5836,-4.6119,-4.6285,-4.6358,-4.657,-4.6386,-4.5652,0.0,0.0,0.0,0.0,-4.5594,-4.5594,-4.5594,-4.5573,-4.5539,-4.4768,-4.4402,-4.4411,-4.3613,-4.3315,-4.3383,-4.2381,-4.2038,-4.2082,-4.1312,-4.1033,-4.1252,-4.2791,-4.3418,-4.3301,-4.2538,-4.2242,-4.2142,-4.136,0.0,0.0,-4.1098,-4.1094,-4.1109,-4.1109,-4.1109,-4.109,-4.0973,-4.0405,-3.9761,-3.9566,-3.898,-3.824,-3.736,-3.7145,-3.6931,-3.6168,-3.5992,-3.5973,-3.5875,-3.5232,-3.4647,-3.4432,-3.4413,-3.4147,-3.3379,-3.2513,-3.1942,-3.1953,-3.136,-3.1232,-3.2016,0.0,0.0,-3.3476,-3.3492,-3.3465,-3.3465,-3.3467,-3.3465,-3.3457,-3.3635,-3.4433,-3.5927,-3.5985,-3.677,-3.8316,-3.8413,-3.8467,-3.8413,-3.6857,-3.6978,0.0,0.0,0.0,0.0,0.0,0.0,0.0,0.0,0.0,0.0,0.0,0.0,0.0,0.0,0.0,-4.324,-4.392,-4.4318,-4.4106,-4.4121,-4.4151,-4.4151,-4.4151,-4.431,-4.4678,-4.4778,-4.4997,-4.5428,-4.5491,-4.5553,-4.5605,-4.5594,-4.5594,-4.5594,-4.5594,-4.5594,-4.5594,-4.5594,-4.5248,-4.4564,0.0,0.0,-4.3361,-4.2607,-4.2341,-4.242,-4.1459,-4.1133,-4.123,-4.1073,-4.1046,-4.1129,-4.1463,-4.16,-4.158,-4.1403,-4.1359,-4.1335,-4.1159,-4.1097,-4.1091,-4.1091,-4.109,-4.1109,-4.1109,-4.1109,0.0,-4.0249,-3.9937,-3.9488,-3.8121,-3.7672,-3.7321,-3.6461,-3.6246,-3.6207,-3.6031,-3.5992,-3.5797,-3.5096,-3.4822,-3.4256,-3.2852,-3.2598,-3.2541,-3.2371,-3.1605,-3.1056,-3.1042,-3.1527,-3.1902,-3.2089,-3.3359,-3.4237,-3.4365,-3.4411,-3.4433,-3.4433,-3.4431,-3.4431,-3.4433,-3.5724,-3.6569,-3.6835,-3.7526,-3.8043,-3.8373,-3.9087,-3.9437,-3.9422,-3.903,-3.9054,0.0,0.0,0.0,0.0,0.0,0.0,0.0,0.0,0.0,0.0,0.0,-4.1551,-4.2693,0.0,-4.3304,-4.3895,-4.4111,-4.4151,-4.3974,-4.3961,-4.3961,-4.3961,-4.3961,-4.4033,-4.4294,-4.443,-4.4676,-4.5107,-4.5263,-4.5419,-4.5586,-4.5594,-4.5594,-4.5594,-4.5594,-4.5594,-4.5594,-4.5594,-4.5171,-4.4297,-4.3937,-4.3307,-4.2476,-4.1665,-4.1364,-4.1475,-4.0937,-4.0798,-4.0942,-4.0942,-4.0989,-4.1056,-4.1084,-4.1106,-4.1106,-4.1104,-4.11,-4.1094,-4.1094,-4.1093,-4.1109,-4.1109,-4.1109,-4.1109,-4.1109,-4.0797,-4.0366,-3.9917,-3.9195,-3.8355,-3.7516,-3.6989,-3.6539,-3.6109,-3.5992,-3.5875,-3.5446,-3.5349,-3.5096,-3.4217,-3.369,-3.3124,-3.2247,-3.1738,-3.1444,-3.1442,-3.1071,-3.0795,-3.0791,-3.1552,-3.226,-3.2703,-3.3914,-3.4856,-3.5272,-3.5328,-3.5345,-3.5345,-3.5356,-3.555,-3.597,-3.6771,-3.7583,-3.8383,-3.8836,-3.9256,-3.9645,-4.0092,-4.0305,-4.0305,-4.0272,-4.0272,0.0,0.0,0.0,0.0,0.0,0.0,0.0,0.0,-4.1555,-4.2375,-4.2544,-4.2951,-4.4297,-4.4109,-4.398,-4.4693,-4.4351,-4.3958,-4.3897,-4.3929,-4.3945,-4.3849,-4.3913,-4.4017,-4.4177,-4.4443,-4.4745,-4.5082,-4.5292,-4.5467,-4.5559,-4.5577,-4.5577,-4.5577,-4.5586,-4.5594,-4.5594,-4.5594,-4.5075,-4.4066,-4.3412,-4.2582,-4.1601,-4.0915,-4.0674,-4.0773,-4.0681,-4.0718,-4.0859,-4.0855,-4.0922,-4.1018,-4.106,-4.1091,-4.1097,-4.1097,-4.1094,-4.1109,-4.1109,-4.1109,-4.1109,-4.1109,-4.1109,-4.1109,-4.1109,-4.0483,-3.9761,-3.9605,-3.8473,-3.7262,-3.7087,-3.6539,-3.5992,-3.5992,-3.5992,-3.5758,-3.4881,-3.4705,-3.4393,-3.3357,-3.2578,-3.2052,-3.1875,-3.1407,-3.0994,-3.0833,-3.0948,-3.1043,-3.1053,-3.197,-3.2867,-3.3589,-3.4429,-3.5231,-3.5941,-3.6007,-3.5992,-3.5992,-3.5992,-3.6383,-3.7262,-3.74,-3.8156,-3.9678,-3.9843,-4.0247,-4.0907,-4.0907,-4.0907,-4.0907,-4.0907,-4.0907,-4.1887,-4.162,-4.1763,-4.2398,-4.267,-4.3198,0.0,0.0,-4.4132,-4.4998,-4.5171,-4.5229,-4.5421,-4.5017,-4.4693,-4.4769,-4.4308,-4.3897,-4.3897,-4.4048,-4.403,-4.3682,-4.3936,-4.4181,-4.4192,-4.45,-4.4808,-4.5072,-4.5117,-4.5227,-4.541,-4.5485,-4.5513,-4.5513,-4.5568,-4.5594,-4.5594,-4.5594,-4.4806,-4.3239,-4.3143,-4.2247,-4.0658,-4.0611,-4.064,-4.0712,-4.0699,-4.0696,-4.0715,-4.0718,-4.0833,-4.1,-4.1009,-4.1057,-4.1091,-4.1091,-4.1109,-4.1109,-4.1109,-4.1109,-4.1109,-4.1109,-4.1109,-4.1109,-4.1109,-4.0483,-3.9644,-3.8942,-3.8045,-3.7126,-3.6344,-3.607,-3.5992,-3.5992,-3.5992,-3.5758,-3.4881,-3.4705,-3.4217,-3.2558,-3.2169,-3.1856,-3.1075,-3.1504,-3.1698,-3.0911,-3.1456,-3.1959,-3.1948,-3.3399,-3.4456,-3.4544,-3.533,-3.5882,-3.5999,-3.6007,-3.5992,-3.5992,-3.5992,-3.6383,-3.7262,-3.7985,-3.878,-3.9678,-4.0408,-4.081,-4.0907,-4.0907,-4.0907,-4.0907,-4.0907,-4.0907,-4.2572,-4.2606,0.0,0.0,-4.3835,-4.4605,-4.4797,-4.4951,-4.5171,-4.5518,-4.5594,-4.5594,-4.5594,-4.5292,-4.5019,0.0,-4.4493,-4.4166,-4.4236,-4.4196,-4.4117,-4.4069,-4.4341,-4.4498,-4.4332,-4.4448,-4.4525,-4.4518,-4.4989,-4.5109,-4.472,-4.5207,-4.5504,-4.5504,-4.5568,-4.5594,-4.5594,-4.5094,-4.4259,-4.3085,-4.2585,-4.17,-4.0496,-4.0531,-4.0569,-4.06,-4.0616,-4.0623,-4.059,-4.0667,-4.0749,-4.0834,-4.0944,-4.1028,-4.1054,-4.1081,-4.1109,-4.1109,-4.1109,-4.1109,-4.1109,-4.1109,-4.1109,-4.1012,-4.0503,-3.9761,-3.8923,-3.8084,-3.7223,-3.6461,-3.609,-3.5992,-3.5992,-3.5992,-3.5992,-3.5621,-3.4237,-3.4334,-3.4178,-3.2442,-3.2519,-3.2734,-3.2381,-3.2616,-3.273,-3.2368,-3.2619,-3.2867,-3.2868,-3.3904,-3.4844,-3.5331,-3.5758,-3.5999,-3.5999,-3.6007,-3.5992,-3.5992,-3.648,-3.7145,-3.8025,-3.8828,-3.9639,-4.0444,-4.0782,-4.0941,-4.0907,-4.0907,-4.0907,-4.0907,-4.0907,-4.0907,-4.2574,0.0,0.0,-4.3374,-4.4509,-4.5441,-4.4797,-4.5152,-4.5586,-4.5577,-4.5586,-4.5586,-4.5559,-4.5342,-4.5159,-4.5105,-4.4676,-4.4402,-4.4493,-4.4388,-4.4318,-4.4402,-4.4637,-4.4714,-4.4519,-4.4604,-4.4592,-4.4448,-4.5014,-4.513,-4.4528,-4.5112,-4.5457,-4.5457,-4.5328,-4.5248,-4.5248,-4.4393,-4.3566,-4.2739,-4.2104,-4.1335,-4.0496,-4.0496,-4.0496,-4.0496,-4.0557,-4.0549,-4.0504,-4.0603,-4.0662,-4.0718,-4.0885,-4.0974,-4.1019,-4.1076,-4.1109,-4.1109,-4.1109,-4.1109,-4.1109,-4.1109,-4.0934,-4.062,-3.9995,-3.9078,-3.8103,-3.7477,-3.6677,-3.5992,-3.5992,-3.5992,-3.5992,-3.5992,-3.5992,-3.5582,-3.4079,-3.4256,-3.4256,-3.2753,-3.2968,-3.3396,-3.3396,-3.3591,-3.3763,-3.3768,-3.3959,-3.4029,-3.3751,-3.4452,-3.522,-3.5856,-3.597,-3.5999,-3.5999,-3.6007,-3.5992,-3.5992,-3.6813,-3.7692,-3.8552,-3.9355,-4.0169,-4.0973,-4.0989,-4.0953,-4.0907,-4.0907,-4.0912,-4.0926,-4.0912,-4.0917,0.0,0.0,-4.3297,-4.4066,-4.494,-4.5594,-4.5575,-4.5575,-4.5577,-4.5513,-4.554,-4.5568,-4.5429,-4.5232,-4.5094,-4.5095,-4.4764,-4.4493,-4.4506,-4.4663,-4.4688,-4.4425,-4.4637,-4.4788,0.0,-4.5087,-4.5267,-4.5269,-4.5288,-4.5288,-4.5269,-4.5351,-4.541,-4.541,-4.4715,-4.4335,-4.4335,-4.3547,-4.2701,-4.1846,-4.1808,-4.1335,-4.0496,-4.0496,-4.0496,-4.0496,-4.0496,-4.0496,-4.0496,-4.0504,-4.0574,-4.0712,-4.0771,-4.0886,-4.1019,-4.1076,-4.1109,-4.1109,-4.1109,-4.1109,-4.1109,-4.1109,-4.0522,-3.9839,-3.9819,-3.8648,-3.7321,-3.7301,-3.6677,-3.5992,-3.5992,-3.5992,-3.5992,-3.5992,-3.5992,-3.5758,-3.4842,-3.4686,-3.4432,-3.3533,-3.3377,-3.3396,-3.3396,-3.41,-3.4662,-3.4663,-3.5381,-3.5587,-3.4686,-3.5317,-3.5895,-3.5984,-3.5994,-3.5999,-3.5999,-3.6007,-3.5992,-3.5992,-3.6813,-3.7692,-3.8552,-3.9313,-4.0111,-4.0973,-4.0944,-4.0893,-4.0907,-4.0907,-4.093,-4.0992,-4.093,-4.093,0.0,0.0,-4.41,-4.4907,-4.5293,-4.5476,-4.5476,-4.5476,-4.5448,-4.5438,-4.5495,-4.5513,-4.5466,-4.541,-4.5342,-4.5311,-4.4996,-4.4831,-4.5,-4.4898,-4.4843,-4.4976,-4.5076,0.0,0.0,0.0,0.0,-4.4454,-4.4972,-4.5048,-4.4475,-4.5043,-4.5409,-4.54,-4.5197,-4.4848,-4.4316,-4.3508,-4.2662,-4.1788,-4.0662,-4.0258,-4.0477,-3.9958,-3.9996,-4.0496,-4.0496,-4.0496,-4.0496,-4.0496,-4.0527,-4.0574,-4.0693,-4.0762,-4.0742,-4.0325,-4.0167,-4.0172,-4.0221,-3.9899,-3.943,-3.943,-3.9235,-3.8903,-3.8316,-3.775,-3.7184,-3.6597,-3.6226,-3.5992,-3.5992,-3.5992,-3.5992,-3.5992,-3.5992,-3.5758,-3.4881,-3.5154,-3.529,-3.4432,-3.4724,-3.5133,-3.5133,-3.5368,-3.5558,-3.5559,-3.5778,-3.5821,-3.5502,-3.5753,-3.5962,-3.6003,-3.5999,-3.6007,-3.6007,-3.5991,-3.6246,-3.6833,-3.7672,-3.8533,-3.9351,-4.0188,-4.0742,-4.0992,-4.0983,-4.0945,-4.0907,-4.0907,-4.0917,-4.093,-4.0917,-4.0917,-4.2684,-4.3677,-4.4496,-4.5265,-4.5429,-4.54,-4.54,-4.54,-4.5304,-4.4998,-4.5007,-4.4948,-4.4594,-4.4805,-4.5016,-4.494,-4.4998,-4.509,-4.5286,-4.5109,-4.5057,-4.5267,-4.5307,-4.5307,0.0,0.0,0.0,-4.4503,-4.4972,-4.5048,-4.4494,-4.5063,-4.539,-4.54,-4.5187,-4.4829,-4.4316,-4.3181,-4.2047,-4.0893,-3.9815,-3.9573,-4.0054,-3.9823,-4.0015,-4.0496,-4.0496,-4.0496,-4.0496,-4.0496,-4.0496,-4.0512,-4.0642,-4.0694,-4.0628,-3.9909,-3.9471,-3.9246,-3.9337,-3.904,-3.8591,-3.8591,-3.8396,-3.8025,-3.7477,-3.7087,-3.6716,-3.6168,-3.5992,-3.5992,-3.5992,-3.5992,-3.5992,-3.5992,-3.5992,-3.5856,-3.5291,-3.5602,-3.5836,-3.5271,-3.5621,-3.5992,-3.5992,-3.6007,-3.6001,-3.5992,-3.5934,-3.5897,-3.5897,-3.5953,-3.6005,-3.6009,-3.6004,-3.5992,-3.5992,-3.5992,-3.6363,-3.7243,-3.8123,-3.8962,-3.9761,-4.065,-4.1074,-4.0992,-4.0992,-4.0967,-4.0907,-4.092,-4.0948,-4.0935,-4.0917,-4.0917,-4.2719,-4.3565,-4.4382,-4.5084,-4.5266,-4.5266,-4.5266,-4.5266,-4.5017,-4.4192,-4.4135,-4.3951,0.0,0.0,-4.4173,-4.4116,-4.4784,-4.5307,-4.5307,-4.5307,-4.5307,0.0,0.0,0.0,0.0,0.0,0.0,-4.5307,0.0,-4.5307,-4.5307,-4.5361,-4.54,-4.54,-4.4687,-4.4278,-4.4239,-4.2566,-4.095,-3.9361,-3.9323,-3.9323,-3.94,-4.0112,-4.0458,-4.0496,-4.0496,-4.0496,-4.0496,-4.0496,-4.0496,-4.0512,-4.0636,-4.0668,-4.0545,-3.9796,-3.9011,-3.8338,-3.8438,-3.8453,-3.8474,-3.8474,-3.7908,-3.7223,-3.7223,-3.6657,-3.5992,-3.5992,-3.5992,-3.5992,-3.5992,-3.5992,-3.5992,-3.5992,-3.5992,-3.5992,-3.5992,-3.5992,-3.5992,-3.5992,-3.5992,-3.5992,-3.5992,-3.5999,-3.6009,-3.5999,-3.5945,-3.5909,-3.5909,-3.596,-3.6009,-3.5999,-3.6007,-3.5992,-3.5992,-3.6031,-3.6441,-3.7301,-3.8181,-3.9021,-3.9839,-4.066,-4.1072,-4.0992,-4.0992,-4.0967,-4.0907,-4.0953,-4.099,-4.0992,-4.093,-4.093,-4.1816,-4.2581,-4.3235,-4.3417,-4.3455,-4.3464,-4.3464,-4.3455,-4.3398,-4.3187,-4.3206,-4.3166,0.0,0.0,0.0,-4.4097,-4.4784,0.0,-4.5307,-4.5307,0.0,-4.5307,0.0,-4.5307,-4.5307,-4.5307,0.0,0.0,-4.5307,-4.5307,-4.5307,-4.5328,-4.5341,-4.54,-4.4642,-4.3958,-4.3412,-4.1681,-4.0631,-4.0189,-3.9592,-3.9611,-4.0189,-3.9785,-3.9938,-4.0496,-4.0496,-4.0496,-4.0496,-4.0496,-4.0496,-4.0496,-4.0542,-4.0171,-3.955,-3.8773,-3.7964,-3.7225,-3.6754,-3.6616,-3.6657,-3.6657,-3.65,-3.6324,-3.6324,-3.6187,-3.5992,-3.5992,-3.5992,-3.5992,-3.5992,-3.5992,-3.5992,-3.5992,-3.5992,-3.5992,-3.5992,-3.5992,-3.5992,-3.5992,-3.5992,-3.5992,-3.5992,-3.6004,-3.5997,-3.5999,-3.599,-3.5962,-3.5962,-3.599,-3.5997,-3.5999,-3.6007,-3.5992,-3.5992,-3.6597,-3.734,-3.8201,-3.9039,-3.9878,-4.0738,-4.098,-4.1073,-4.0992,-4.0992,-4.0967,-4.0907,-4.0911,-4.0939,-4.0926,-4.0912,-4.0912,-4.1598,-4.2256,-4.2842,-4.2805,-4.2795,-4.2795,-4.2795,-4.2824,-4.2728,-4.2317,-4.2316,0.0,0.0,0.0,0.0,0.0,0.0,0.0,-4.5307,-4.5307,-4.5307,0.0,-4.5307,0.0,-4.5307,-4.5307,-4.5307,0.0,-4.5307,-4.5307,-4.5307,-4.5328,-4.536,-4.54,-4.4652,-4.3681,-4.2547,-4.1181,-4.0323,-3.9977,-3.9515,-3.9534,-3.9977,-3.9881,-4.0073,-4.0496,0.0,-4.0496,-4.0496,-4.0496,-4.0496,-4.0496,-4.0496,-4.0015,-3.9196,-3.8362,-3.7565,-3.6784,-3.603,-3.5807,-3.5885,-3.5963,-3.5992,-3.5992,-3.5992,-3.5992,-3.5992,-3.5992,-3.5992,-3.5992,-3.5992,-3.5992,-3.5992,-3.5992,-3.5992,-3.5992,-3.5992,-3.5992,-3.5992,-3.5992,-3.5992,-3.5992,-3.5992,-3.6006,-3.6001,-3.6004,-3.5997,-3.5994,-3.5997,-3.5999,-3.6001,-3.6004,-3.6009,-3.6148,-3.6539,-3.7028,-3.7828,-3.906,-3.9546,-4.019,-4.1051,-4.1101,-4.1073,-4.1048,-4.1017,-4.0979,-4.0949,-4.0949,-4.0928,-4.0907,-4.0907,-4.0907,-4.1562,-4.2035,-4.2554,-4.2488,-4.2479,-4.2479,-4.2479,-4.2535,-4.2344,-4.1514,0.0,-4.1294,-4.0468,-4.1645,-4.2746,-4.2785,0.0,-4.5163,-4.5288,-4.5307,-4.5307,-4.5307,-4.5307,-4.5307,-4.5307,-4.5307,-4.5307,-4.5307,-4.5307,-4.5307,-4.5307,-4.5367,-4.5284,-4.5074,-4.4344,-4.3216,-4.1643,-4.0873,-4.015,-3.9457,-3.9457,-3.9457,-3.9477,-4.0189,-4.0496,-4.0496,-4.0496,-4.0496,-4.0496,-4.0496,-4.0496,-4.0496,-4.0496,-4.0015,-3.9207,-3.845,-3.7622,-3.6764,-3.6027,-3.5728,-3.5729,-3.5921,-3.5986,-3.5986,-3.5991,-3.5992,-3.5992,-3.5992,-3.5992,-3.5992,-3.5992,-3.5992,-3.5992,-3.5992,-3.5992,-3.5992,-3.5992,-3.5992,-3.5992,-3.5992,-3.5992,-3.5992,-3.5992,-3.6006,-3.6004,-3.5991,-3.6006,-3.6004,-3.5991,-3.6006,-3.6043,-3.6168,-3.6168,-3.6539,-3.7399,-3.7575,-3.8258,-3.9702,-3.9917,-4.0307,-4.107,-4.1108,-4.1094,-4.1093,-4.1023,-4.1007,-4.0997,-4.0997,-4.0964,-4.0907,-4.0907,-4.0907,-4.0705,-4.0767,-4.0828,-4.082,-4.082,-4.082,-4.082,-4.0874,0.0,0.0,0.0,-4.0639,-4.0426,-4.1176,0.0,-4.268,0.0,0.0,0.0,0.0,-4.5307,0.0,0.0,0.0,0.0,0.0,0.0,0.0,0.0,-4.5307,-4.5307,-4.5307,-4.4708,-4.3378,-4.2623,-4.175,-4.0746,-4.0573,-4.0439,-4.0285,-4.0285,-4.0285,-4.0304,-4.0439,-4.0496,-4.0496,-4.0496,0.0,-4.0496,-4.0496,-4.0496,-4.0496,-4.0496,-4.0015,-3.9284,-3.913,-3.808,-3.6728,-3.6688,-3.6218,-3.565,-3.5846,-3.5924,-3.5931,-3.5985,-3.5992,-3.5992,-3.5992,-3.5992,-3.5992,-3.5992,-3.5992,-3.5992,-3.5992,-3.5992,-3.5992,-3.5992,-3.5992,-3.5992,-3.5992,-3.5992,-3.5992,-3.5992,-3.5991,-3.5991,-3.5992,-3.5991,-3.5991,-3.5992,-3.5991,-3.6284,-3.7009,-3.7067,-3.7438,-3.8298,-3.898,-3.9488,-3.978,-4.0483,-4.0934,-4.109,-4.1094,-4.1072,-4.102,-4.1015,-4.0972,-4.0911,-4.0911,-4.0906,-4.0907,-4.0907,-4.0893,-4.0391,-4.0485,-4.0449,-4.0449,-4.0449,-4.0455,-4.0496,0.0,0.0,0.0,0.0,-4.0554,-4.0368,0.0,0.0,0.0,0.0,0.0,0.0,0.0,0.0,0.0,0.0,0.0,0.0,0.0,0.0,0.0,0.0,-4.5307,-4.5307,-4.4938,-4.3963,-4.2324,-4.1978,-4.1373,-4.0516,-4.0496,-4.0496,-4.0496,-4.0496,-4.0496,-4.0496,-4.0496,-4.0496,-4.0496,-4.0496,-4.0496,-4.0496,-4.0496,-4.0496,-4.0496,-4.0496,-4.0015,-3.9246,-3.8796,-3.7815,-3.6656,-3.6335,-3.5955,-3.5702,-3.6313,-3.624,-3.5919,-3.5983,-3.5992,-3.5992,-3.5992,-3.5992,-3.5992,-3.5992,-3.5992,-3.5992,-3.5992,-3.5992,-3.5992,-3.5992,-3.5992,-3.5992,-3.5992,-3.5992,-3.5992,-3.5992,-3.6383,-3.6677,-3.6677,-3.7067,-3.734,-3.734,-3.734,-3.734,-3.7301,-3.7711,-3.8318,-3.9156,-3.9585,-3.9995,-4.0444,-4.0875,-4.1109,-4.1109,-4.1102,-4.1071,-4.1055,-4.101,-4.0986,-4.0961,-4.0917,-4.0907,-4.0907,-4.0893,-4.0898,-4.0135,-4.0426,-4.0561,-4.0561,-4.0561,-4.0579,-4.063,-4.068,0.0,0.0,-4.0642,-4.0662,-4.045,0.0,0.0,0.0,0.0,0.0,0.0,0.0,0.0,0.0,0.0,0.0,0.0,0.0,0.0,0.0,0.0,0.0,-4.501,-4.4327,-4.3234,-4.1757,-4.1574,-4.1181,-4.0516,-4.0496,-4.0496,-4.0496,-4.0496,-4.0496,-4.0496,-4.0496,-4.0496,-4.0496,-4.0496,0.0,-4.0496,-4.0496,-4.0496,-4.0496,-4.0496,-4.0112,-3.9477,-3.8796,-3.7868,-3.6947,-3.6559,-3.6184,-3.6067,-3.706,-3.6824,-3.6211,-3.6471,-3.6558,-3.6558,-3.6558,-3.6422,-3.6285,-3.6285,-3.6148,-3.5992,-3.5992,-3.5992,-3.6051,-3.6246,-3.6285,-3.6324,-3.6519,-3.6558,-3.6558,-3.6558,-3.7126,-3.7575,-3.7575,-3.8162,-3.8591,-3.8591,-3.8747,-3.8591,-3.7906,-3.8454,-3.9196,-4.0015,-4.0073,-4.0366,-4.1051,-4.1109,-4.1109,-4.1109,-4.1108,-4.111,-4.1099,-4.1033,-4.0991,-4.0998,-4.0929,-4.0907,-4.0907,-4.0898,-4.0883,-3.9573,-4.0175,-4.0776,-4.0776,-4.0776,-4.0781,-4.0791,0.0,0.0,-4.0772,-4.0772,-4.0772,-4.0752,-4.0674,0.0,0.0,0.0,0.0,0.0,0.0,0.0,0.0,0.0,0.0,0.0,0.0,0.0,0.0,0.0,0.0,-4.4121,-4.3417,-4.2611,-4.1738,-4.1006,-4.0573,-4.0496,-4.0496,-4.0496,-4.0496,-4.0496,-4.0496,-4.0496,-4.0496,-4.0496,-4.0496,-4.0496,0.0,0.0,-4.0496,-4.0496,-4.0496,-4.0496,-4.0458,-4.0381,-4.0304,-3.928,-3.8072,-3.8792,-3.8082,-3.7035,-3.7975,-3.7704,-3.7166,-3.8073,-3.8357,-3.8357,-3.8357,-3.7789,-3.7184,-3.7184,-3.6597,-3.5992,-3.5992,-3.5992,-3.6226,-3.7009,-3.7184,-3.7419,-3.8201,-3.8357,-3.8357,-3.8357,-3.8435,-3.8474,-3.8474,-3.8552,-3.8591,-3.8591,-3.9234,-3.9663,-3.9585,-3.9644,-4.0034,-4.0914,-4.0973,-4.1012,-4.109,-4.1109,-4.1109,-4.1109,-4.1093,-4.1103,-4.1093,-4.1023,-4.1009,-4.1,-4.0937,-4.0907,-4.0907,-4.0898,-4.0872,-4.0023,-4.0538,-4.081,-4.081,-4.081,-4.0824,-4.0898,0.0,-4.0929,-4.0929,-4.0929,-4.089,-4.0806,-4.0699,-4.1034,0.0,0.0,0.0,0.0,0.0,0.0,0.0,0.0,0.0,0.0,0.0,0.0,0.0,0.0,0.0,-4.3329,-4.2584,-4.1796,-4.0943,-4.066,-4.0496,-4.0496,-4.0496,-4.0496,-4.0496,-4.0496,-4.0496,-4.0496,-4.0496,-4.0496,-4.0496,-4.0496,0.0,0.0,-4.0496,-4.0496,-4.0496,-4.0496,-4.0496,-4.0439,-3.9958,-3.939,-3.8862,-3.8766,-3.8333,-3.7991,-3.8946,-3.9017,-3.8707,-3.8626,-3.8591,-3.8591,-3.8591,-3.8357,-3.8084,-3.8084,-3.783,-3.7438,-3.6911,-3.7184,-3.7653,-3.8006,-3.8084,-3.8181,-3.8533,-3.8591,-3.8591,-3.8591,-3.9001,-3.9312,-3.9312,-3.9762,-4.0094,-4.0094,-4.0387,-4.0581,-4.0581,-4.0581,-4.0717,-4.107,-4.1109,-4.1109,-4.1109,-4.1109,-4.1109,-4.1109,-4.1109,-4.1095,-4.1104,-4.1074,-4.1035,-4.0994,-4.0937,-4.0882,-4.0839,-4.0846,-4.0829,-3.9831,-4.0521,-4.089,-4.089,-4.089,-4.0905,0.0,0.0,-4.102,-4.102,-4.102,-4.1006,-4.0906,-4.0824,-4.1058,0.0,0.0,0.0,0.0,0.0,0.0,0.0,0.0,0.0,0.0,0.0,0.0,0.0,0.0,0.0,-4.2992,-4.1964,-4.1099,-4.0426,-4.0468,-4.0496,-4.0496,-4.0496,-4.0496,-4.0496,-4.0496,-4.0496,-4.0496,-4.0496,-4.0496,-4.0496,-4.0496,0.0,0.0,-4.0496,-4.0496,-4.0496,-4.0496,-4.0496,-4.0446,-3.9914,-3.9599,-3.9395,-3.9168,-3.8961,-3.8963,-3.9891,-4.0171,-4.0073,-3.9509,-3.9333,-3.9333,-3.9333,-3.9157,-3.8903,-3.8669,-3.8591,-3.8454,-3.783,-3.8142,-3.8669,-3.8903,-3.8942,-3.9021,-3.9294,-3.9333,-3.9333,-3.9333,-3.98,-4.0171,-4.0171,-4.0717,-4.1109,-4.1109,-4.1109,-4.1109,-4.1093,-4.1091,-4.1109,-4.1109,-4.1109,-4.1109,-4.1109,-4.1109,-4.1109,-4.1109,-4.1109,-4.109,-4.1093,-4.1093,-4.1064,-4.0992,-4.0922,-4.0872,-4.0807,-4.0792,-4.093,-3.8629,-3.9839,-4.1108,-4.1108,-4.1108,-4.1108,0.0,-4.1108,-4.1108,-4.1108,-4.1108,-4.1108,-4.1108,-4.0989,-4.1236,-4.2237,0.0,0.0,0.0,0.0,0.0,0.0,0.0,0.0,0.0,0.0,0.0,0.0,0.0,0.0,-4.3201,-4.1619,-4.0623,-4.0415,-4.0468,-4.0496,-4.0496,-4.0496,-4.0496,-4.0496,-4.0496,-4.0496,-4.0496,-4.0496,-4.0496,-4.0496,0.0,0.0,0.0,-4.0496,-4.0496,-4.0496,-4.0496,-4.0496,-4.0512,-4.0642,-4.0189,-3.9634,-4.0636,-4.0445,-3.9937,-4.0795,-4.109,-4.109,-4.109,-4.107,-4.107,-4.107,-4.0444,-3.9605,-3.8806,-3.8591,-3.8591,-3.8591,-3.8591,-3.8825,-3.9624,-3.98,-4.0034,-4.0914,-4.107,-4.107,-4.107,-4.109,-4.109,-4.109,-4.109,-4.1109,-4.1109,-4.1109,-4.1091,-4.1098,-4.1093,-4.1109,-4.1109,-4.1109,-4.1109,-4.1109,-4.1109,-4.1109,-4.1109,-4.1109,-4.1093,-4.1098,-4.1093,-4.1063,-4.1001,-4.0935,-4.0872,-4.0807,-4.0792,-4.1228,-3.8591,-3.9821,-4.0953,-4.0366,-4.0659,-4.1109,-4.1109,-4.1109,-4.1109,-4.1109,-4.1109,-4.1109,-4.1109,-4.1068,-4.1535,-4.3046,-4.3383,0.0,0.0,0.0,0.0,0.0,0.0,0.0,0.0,0.0,0.0,0.0,0.0,0.0,-4.2383,-4.1846,-4.1267,-4.0561,-4.0595,-4.0588,-4.0496,-4.0496,-4.0496,-4.0496,-4.0496,-4.0496,-4.0496,-4.0496,-4.0496,0.0,0.0,-4.0496,-4.0496,-4.0496,-4.0496,-4.0496,-4.0496,-4.0564,-4.0636,-4.0681,-4.063,-4.057,-4.0887,-4.0857,-4.0738,-4.1012,-4.1109,-4.1109,-4.1109,-4.1109,-4.1109,-4.1109,-4.0894,-4.0483,-3.9644,-3.986,-4.0153,-3.9566,-3.9879,-4.0387,-4.0621,-4.0698,-4.0777,-4.1051,-4.1109,-4.1109,-4.1109,-4.1109,-4.1109,-4.1109,-4.1109,-4.1091,-4.1095,-4.1095,-4.1098,-4.1104,-4.1632,-4.1748,-4.1141,-4.1099,-4.1098,-4.1102,-4.1102,-4.1102,-4.1102,-4.1102,-4.1103,-4.1105,-4.1053,-4.0992,-4.0928,-4.0902,-4.0878,-4.0808,-4.1351,-4.177,0.0,-3.9587,-4.0561,-4.0346,-4.0698,-4.1109,-4.1109,-4.1109,-4.1109,-4.1109,-4.1109,-4.1109,-4.1109,-4.1097,-4.1551,-4.299,-4.3437,0.0,0.0,0.0,0.0,0.0,0.0,0.0,0.0,0.0,0.0,0.0,0.0,0.0,-4.2119,-4.1801,-4.1379,-4.0729,-4.0693,-4.0655,-4.0586,-4.0527,-4.0496,-4.0496,-4.0496,-4.0496,-4.0496,-4.0496,-4.0496,0.0,-4.0496,-4.0496,0.0,-4.0537,-4.0586,-4.0574,-4.0603,-4.0661,-4.0732,-4.0795,-4.0889,-4.0994,-4.1039,-4.1068,-4.1109,-4.1109,-4.1109,-4.1109,-4.1109,-4.1109,-4.1109,-4.1109,-4.1109,-4.0973,-4.0424,-4.0698,-4.0953,-4.0424,-4.0717,-4.1109,-4.1109,-4.1109,-4.1109,-4.1109,-4.1109,-4.1109,-4.1109,-4.1109,-4.1109,-4.1109,-4.1109,-4.1091,-4.1098,-4.1098,-4.1238,-4.1558,-4.2085,-4.2319,-4.2107,-4.2083,-4.2081,-4.2084,-4.2084,-4.1928,-4.1596,-4.1596,-4.144,-4.1109,-4.1386,-4.1491,-4.1432,-4.1716,-4.1634,-4.1274,-4.2106,-4.2667,0.0,-3.9273,-4.0073,-4.0816,-4.1051,-4.1109,-4.1109,-4.1109,0.0,-4.1109,-4.1109,-4.1129,-4.1187,-4.1189,-4.1505,-4.2425,-4.3217,0.0,0.0,0.0,0.0,0.0,0.0,0.0,0.0,0.0,0.0,0.0,0.0,0.0,-4.226,-4.1507,-4.1031,-4.0929,-4.0795,-4.0718,-4.0712,-4.0581,-4.0508,-4.0508,-4.0508,-4.0508,-4.0508,-4.0508,-4.0508,0.0,-4.0508,-4.0508,-4.0523,-4.0662,-4.0712,-4.0705,-4.0771,-4.0815,-4.0829,-4.0948,-4.0994,-4.1028,-4.1078,-4.1109,-4.1109,-4.1109,-4.1109,-4.1109,-4.1109,-4.1109,-4.1109,-4.1109,-4.1109,-4.1109,-4.1109,-4.1109,-4.1109,-4.1109,-4.1109,-4.1109,-4.1109,-4.1109,-4.1109,-4.1109,-4.1109,-4.1109,-4.1109,-4.1109,-4.1109,-4.1109,-4.1109,-4.1093,-4.1099,-4.1099,-4.1436,-4.2303,-4.2457,-4.2849,-4.3711,-4.3748,-4.3706,-4.3706,-4.3706,-4.3335,-4.2534,-4.2436,-4.2028,-4.1209,-4.1972,-4.2381,-4.2371,-4.307,-4.2942,-4.2106,-4.2995,-4.3827,-3.9391,0.0,-4.0678,-4.0229,-4.06,-4.1109,0.0,-4.1109,-4.1109,0.0,0.0,-4.1304,-4.1967,-4.2093,-4.259,-4.4133,-4.4499,0.0,0.0,0.0,0.0,0.0,0.0,0.0,0.0,0.0,0.0,0.0,0.0,-4.2244,-4.1421,-4.1203,-4.1093,-4.1052,-4.0977,-4.0889,-4.0776,-4.0745,-4.0735,-4.0735,-4.0735,-4.0735,-4.0735,-4.0735,-4.0735,-4.0735,-4.0735,-4.0735,-4.0735,-4.0761,-4.0771,-4.0776,-4.0781,-4.0855,-4.0967,-4.0984,-4.1022,-4.1078,-4.1087,-4.1109,-4.1109,-4.1109,-4.1109,-4.1109,-4.1109,-4.1109,-4.1109,-4.1109,-4.1109,-4.1109,-4.1109,-4.1109,-4.1109,-4.1109,-4.1109,-4.1109,-4.1109,-4.1109,-4.1109,-4.1109,-4.1109,-4.1109,-4.1109,-4.1109,-4.1109,-4.1109,-4.1094,-4.1099,-4.1105,-4.1108,-4.1423,-4.2304,-4.3007,-4.375,-4.4629,-4.4081,-4.3709,-4.3691,-4.3691,-4.3613,-4.3398,-4.2753,-4.2304,-4.2109,-4.2183,-4.2529,-4.3136,-4.3258,-4.3202,-4.3015,-4.3885,-4.44,-4.0271,-4.0738,-4.109,-4.101,-4.1342,-4.1693,-4.1693,0.0,0.0,0.0,0.0,0.0,-4.2233,0.0,0.0,-4.5211,-4.5172,0.0,0.0,0.0,0.0,0.0,0.0,0.0,0.0,0.0,0.0,0.0,0.0,-4.1983,-4.1134,-4.1093,-4.1107,-4.1094,-4.1061,-4.1006,-4.089,-4.0833,-4.081,-4.081,-4.081,-4.081,-4.081,-4.081,-4.081,-4.081,-4.081,-4.081,-4.0791,-4.0874,-4.089,-4.0894,-4.0935,-4.0989,-4.1054,-4.1054,-4.107,-4.1109,-4.1109,-4.1109,-4.1109,-4.1093,-4.1091,-4.1091,-4.1097,-4.1095,-4.1109,-4.1109,-4.1109,-4.1109,-4.1109,-4.1109,-4.1109,-4.1109,-4.1109,-4.1109,-4.1109,-4.1109,-4.1109,-4.1109,-4.142,-4.1693,-4.1693,-4.2025,-4.2282,-4.2285,-4.2289,-4.2293,-4.2281,-4.2283,-4.2636,-4.3496,-4.4004,-4.4648,-4.5527,-4.5156,-4.4882,-4.4883,-4.4883,-4.4707,-4.4316,-4.3457,-4.3008,-4.3008,-4.3326,-4.3668,-4.4035,-4.4404,-4.4358,-4.3924,-4.4755,-4.5142,-4.1267,-4.1402,-4.1617,-4.2084,-4.2298,-4.2376,0.0,0.0,0.0,0.0,0.0,0.0,0.0,0.0,0.0,0.0,0.0,0.0,0.0,0.0,0.0,0.0,0.0,0.0,0.0,0.0,0.0,0.0,0.0,-4.1875,-4.1137,-4.1103,-4.1094,-4.1095,-4.1104,-4.1074,-4.1028,-4.091,-4.0855,-4.0855,-4.0855,-4.0855,-4.0855,-4.0855,-4.0855,-4.0855,0.0,0.0,-4.0859,-4.0964,-4.1025,-4.1011,-4.1076,-4.1109,-4.1109,-4.1109,-4.1109,-4.1109,-4.1109,-4.1109,-4.1091,-4.1097,-4.1095,-4.1094,-4.1104,-4.1101,-4.1093,-4.1091,-4.109,-4.1109,-4.1109,-4.1109,-4.1109,-4.1109,-4.1109,-4.1109,-4.1109,-4.1109,-4.1148,-4.1265,-4.1888,-4.2435,-4.2572,-4.3217,-4.3708,-4.3696,-4.3698,-4.3702,-4.3709,-4.3709,-4.4023,-4.4902,-4.5,-4.5351,-4.623,-4.6308,-4.6308,-4.6308,-4.6308,-4.5918,-4.5039,-4.4297,-4.3906,-4.3906,-4.4609,-4.4984,-4.4994,-4.5721,-4.5643,-4.4794,-4.5471,-4.5807,-4.2007,-4.2747,-4.2983,-4.1636,-4.1849,-4.2201,0.0,0.0,0.0,0.0,0.0,0.0,0.0,0.0,0.0,0.0,0.0,0.0,0.0,0.0,0.0,0.0,0.0,0.0,0.0,0.0,0.0,0.0,0.0,-4.1237,-4.1111,-4.1105,-4.1097,-4.1106,-4.1108,-4.1106,-4.1081,-4.1055,-4.1053,-4.1053,-4.1053,-4.1053,-4.1053,-4.1053,-4.1053,-4.1053,0.0,-4.1053,-4.1053,-4.1078,-4.1081,-4.1081,-4.1106,-4.1109,-4.1109,-4.1109,-4.1109,-4.1109,-4.1109,-4.1109,-4.1091,-4.1097,-4.1098,-4.1099,-4.1105,-4.1106,-4.1104,-4.1099,-4.1094,-4.1109,-4.1109,-4.1109,-4.1109,-4.1109,-4.1109,-4.1109,-4.1109,-4.1109,-4.1324,-4.2064,-4.2318,-4.263,-4.3372,-4.3612,-4.3696,-4.3697,-4.3704,-4.3708,-4.3709,-4.3691,-4.4023,-4.4902,-4.5,-4.5351,-4.623,-4.6308,-4.6308,-4.6308,-4.6308,-4.5918,-4.5039,-4.4863,-4.4805,-4.4805,-4.4874,-4.523,-4.5907,-4.5987,-4.5881,-4.5633,-4.5749,-4.5807,-4.1599,-4.2689,-4.3391,-4.2123,-4.2806,-4.3704,0.0,0.0,0.0,0.0,0.0,0.0,0.0,0.0,0.0,0.0,0.0,0.0,0.0,0.0,0.0,0.0,0.0,0.0,0.0,0.0,0.0,0.0,0.0,0.0,-4.1093,-4.1094,-4.1104,-4.1109,-4.1109,-4.1109,-4.1109,-4.1109,-4.1109,-4.1109,-4.1109,-4.1109,-4.1109,-4.1109,-4.1109,-4.1109,0.0,-4.1109,-4.1109,-4.1109,-4.1109,-4.1109,-4.1109,-4.1109,-4.1109,-4.1094,-4.1097,-4.11,-4.1097,-4.1098,-4.1101,-4.1103,-4.1103,-4.1104,-4.1108,-4.1107,-4.1103,-4.1103,-4.1099,-4.1094,-4.109,-4.1109,-4.1109,-4.1109,-4.1109,-4.1109,-4.1109,-4.1109,-4.1226,-4.1615,-4.2454,-4.3237,-4.3633,-4.4476,-4.5105,-4.5091,-4.5094,-4.5096,-4.5097,-4.5097,-4.5254,-4.5664,-4.5703,-4.5859,-4.6269,-4.6308,-4.6308,-4.6308,-4.6308,-4.5918,-4.5039,-4.5449,-4.5488,-4.5019,-4.5398,-4.577,-4.6098,-4.6032,-4.5941,-4.5807,-4.5807,-4.5807,-4.1346,-4.2376,-4.3274,-4.2825,0.0,-4.4699,0.0,0.0,0.0,0.0,0.0,0.0,0.0,0.0,0.0,0.0,0.0,0.0,0.0,0.0,0.0,0.0,0.0,0.0,0.0,0.0,0.0,0.0,0.0,0.0,-4.1093,-4.1097,-4.1109,-4.1109,-4.1109,-4.1109,-4.1109,-4.1109,-4.1109,-4.1109,-4.1109,-4.1109,-4.1109,-4.1109,-4.1109,-4.1109,-4.1109,-4.1109,-4.1109,-4.1109,-4.1109,-4.1109,-4.1109,-4.1109,-4.109,-4.1097,-4.1101,-4.1105,-4.1102,-4.1104,-4.1108,-4.1108,-4.1108,-4.1109,-4.1091,-4.1108,-4.1103,-4.1105,-4.1102,-4.1098,-4.1093,-4.1091,-4.1109,-4.1109,-4.1109,-4.1109,-4.1109,-4.1109,-4.1168,-4.1364,-4.2654,-4.3769,-4.3972,-4.5281,-4.6301,-4.6306,-4.6307,-4.6308,-4.6308,-4.6308,-4.6308,-4.6308,-4.6308,-4.6308,-4.6308,-4.6308,-4.6308,-4.6308,-4.6308,-4.5996,-4.5332,-4.5957,-4.5996,-4.5312,-4.5911,-4.6173,-4.6098,-4.6054,-4.595,-4.5807,-4.5807,-4.5807,-4.2085,-4.2396,-4.2669,-4.3411,0.0,0.0,0.0,0.0,0.0,0.0,0.0,0.0,0.0,0.0,0.0,0.0,0.0,0.0,0.0,0.0,0.0,0.0,0.0,0.0,0.0,0.0,0.0,0.0,0.0,0.0,-4.1093,-4.1097,-4.1109,-4.1109,-4.1109,-4.1109,-4.1109,-4.1109,-4.1109,-4.1109,-4.1109,-4.1109,-4.1109,-4.1109,-4.1109,-4.1109,-4.1109,-4.1109,-4.1109,-4.1109,-4.1109,-4.1109,-4.1109,-4.1109,-4.109,-4.1097,-4.1099,-4.11,-4.1105,-4.1107,-4.1108,-4.1091,-4.1092,-4.1092,-4.1092,-4.1092,-4.109,-4.1102,-4.1099,-4.1098,-4.1098,-4.1094,-4.1109,-4.1109,-4.1109,-4.1109,-4.1109,-4.1109,-4.1345,-4.2152,-4.3052,-4.3952,-4.4776,-4.568,-4.6306,-4.6307,-4.6308,-4.6308,-4.6308,-4.6308,-4.6308,-4.6308,-4.6308,-4.6308,-4.6308,-4.6308,-4.6308,-4.6308,-4.6308,-4.6269,-4.6211,-4.6269,-4.6269,-4.6211,-4.6269,-4.6237,-4.6098,-4.6095,-4.5983,-4.5807,-4.5807,-4.5807,-4.1503,-4.2376,-4.3294,-4.3626,0.0,0.0,0.0,0.0,0.0,0.0,0.0,0.0,0.0,0.0,0.0,0.0,0.0,0.0,0.0,0.0,0.0,0.0,0.0,0.0,0.0,0.0,0.0,0.0,0.0,0.0,-4.1099,-4.1107,-4.109,-4.109,-4.1099,-4.1109,-4.1109,-4.1109,-4.1109,-4.1109,-4.1109,-4.1109,-4.1109,-4.1109,-4.1109,-4.1109,-4.1109,-4.1109,-4.1109,-4.1109,-4.1109,-4.1109,-4.1109,-4.1095,-4.1102,-4.1103,-4.1127,-4.117,-4.111,-4.1131,-4.1151,-4.1112,-4.1132,-4.1152,-4.1112,-4.1092,-4.1091,-4.1108,-4.1106,-4.1103,-4.1095,-4.1091,-4.1109,-4.1109,-4.1109,-4.1109,-4.1109,-4.1109,-4.1363,-4.2225,-4.3108,-4.3972,-4.4855,-4.5719,-4.6307,-4.6308,-4.6308,-4.6308,-4.6308,-4.6308,-4.6308,-4.6308,-4.6308,-4.6308,-4.6308,-4.6308,-4.6308,-4.6308,-4.6308,-4.6308,-4.6308,-4.6308,-4.6308,-4.6308,-4.6265,-4.6199,-4.6098,-4.6067,-4.5966,-4.5807,-4.5798,-4.581,-4.1503,-4.2376,-4.3352,0.0,0.0,0.0,0.0,0.0,0.0,0.0,0.0,0.0,0.0,0.0,0.0,0.0,0.0,0.0,0.0,0.0,0.0,0.0,0.0,0.0,0.0,0.0,0.0,0.0,0.0,0.0,0.0,-4.1073,-4.1073,-4.1094,-4.1108,-4.1098,-4.1109,-4.1109,-4.1109,-4.1109,-4.1109,-4.1109,-4.1109,-4.1109,-4.1109,-4.1109,-4.1109,-4.1109,-4.1109,-4.1109,-4.1109,-4.1109,-4.1109,-4.1095,-4.1103,-4.1104,-4.1129,-4.1152,-4.1112,-4.1132,-4.1191,-4.1152,-4.1152,-4.1191,-4.1112,-4.1092,-4.1092,-4.1091,-4.1109,-4.1105,-4.1095,-4.1093,-4.1169,-4.1441,-4.1518,-4.1596,-4.1851,-4.1929,-4.2106,-4.2695,-4.3501,-4.4307,-4.4898,-4.5721,-4.6308,-4.6308,-4.6308,-4.6308,-4.6308,-4.6308,-4.6308,-4.6308,-4.6308,-4.6308,-4.6308,-4.6308,-4.6308,-4.6308,-4.6308,-4.6308,-4.6308,-4.6308,-4.6308,-4.6308,-4.6245,-4.6195,-4.6098,-4.6044,-4.5956,-4.5807,-4.5803,-4.5807,-4.238,-4.2396,0.0,0.0,0.0,0.0,0.0,0.0,0.0,0.0,0.0,0.0,0.0,0.0,0.0,0.0,0.0,0.0,0.0,0.0,0.0,0.0,0.0,0.0,0.0,0.0,0.0,0.0,0.0,0.0,0.0,-4.0995,-4.1023,-4.1094,-4.1094,-4.1091,-4.1109,-4.1109,-4.1109,-4.1109,-4.1109,-4.1109,-4.1109,-4.1109,-4.1109,-4.1109,-4.1109,-4.1109,-4.1109,-4.1109,-4.1109,-4.1109,-4.1109,-4.1109,-4.109,-4.1097,-4.1102,-4.1108,-4.1091,-4.1132,-4.1191,-4.1211,-4.1211,-4.1191,-4.1132,-4.1111,-4.1111,-4.1108,-4.1127,-4.1126,-4.112,-4.1119,-4.1331,-4.2202,-4.2396,-4.265,-4.3509,-4.3705,-4.3708,-4.3701,-4.4406,-4.4995,-4.5019,-4.5723,-4.6308,-4.6308,-4.6308,-4.6308,-4.6308,-4.6308,-4.6308,-4.6308,-4.6308,-4.6308,-4.6308,-4.6308,-4.6308,-4.6308,-4.6308,-4.6308,-4.6308,-4.6308,-4.6308,-4.6308,-4.6308,-4.6238,-4.6102,-4.6102,-4.5993,-4.5807,-4.5803,-4.5807,-4.0897,-4.1908,0.0,0.0,0.0,0.0,0.0,0.0,0.0,0.0,0.0,0.0,0.0,0.0,0.0,0.0,0.0,0.0,0.0,0.0,0.0,0.0,0.0,0.0,0.0,0.0,0.0,0.0,0.0,0.0,0.0,-4.1003,-4.1008,-4.1022,-4.1087,-4.1093,-4.1092,-4.1099,-4.1109,-4.1109,-4.1109,-4.1109,-4.1109,-4.1109,-4.1109,-4.1109,-4.1109,-4.1109,-4.1109,-4.1109,-4.1109,-4.1109,-4.1109,-4.1095,-4.1103,-4.1104,-4.1129,-4.1171,-4.1172,-4.1172,-4.1289,-4.1855,-4.2031,-4.2031,-4.2012,-4.2441,-4.2793,-4.2187,-4.246,-4.2929,-4.2926,-4.2923,-4.284,-4.2477,-4.2396,-4.265,-4.3509,-4.371,-4.3888,-4.4491,-4.4814,-4.5192,-4.5817,-4.6132,-4.6308,-4.6308,-4.6308,-4.6308,-4.6308,-4.6308,-4.6308,-4.6308,-4.6308,-4.6308,-4.6308,-4.6308,-4.6308,-4.6308,-4.6308,-4.6308,-4.6308,-4.6308,-4.6308,-4.6308,-4.6308,-4.6264,-4.6165,-4.6125,-4.6016,-4.5872,-4.5778,-4.5727,-4.1952,0.0,0.0,0.0,0.0,0.0,0.0,0.0,0.0,0.0,0.0,0.0,0.0,0.0,0.0,0.0,0.0,0.0,0.0,0.0,0.0,0.0,0.0,0.0,0.0,0.0,0.0,0.0,0.0,0.0,0.0,-4.0968,-4.0963,-4.099,-4.1031,-4.1073,-4.1094,-4.1102,-4.1109,-4.1109,-4.1109,-4.1109,-4.1109,-4.1109,-4.1109,-4.1109,-4.1109,-4.1109,-4.1109,-4.1109,-4.1109,-4.1109,-4.1109,-4.1095,-4.1101,-4.1103,-4.1128,-4.1151,-4.1152,-4.1172,-4.1328,-4.2148,-4.2187,-4.1973,-4.2305,-4.2773,-4.3066,-4.2558,-4.3027,-4.3691,-4.371,-4.3708,-4.3646,-4.3477,-4.3432,-4.3665,-4.4543,-4.4724,-4.4883,-4.5407,-4.5517,-4.568,-4.6206,-4.6307,-4.6308,-4.6308,-4.6308,-4.6308,-4.6308,-4.6308,-4.6308,-4.6308,-4.6308,-4.6308,-4.6308,-4.6308,-4.6308,-4.6308,-4.6308,-4.6308,-4.6308,-4.6308,-4.6308,-4.6308,-4.6308,-4.6267,-4.6202,-4.6134,-4.6028,-4.5894,-4.5759,-4.5703,0.0,0.0,0.0,0.0,0.0,0.0,0.0,0.0,0.0,0.0,0.0,0.0,0.0,0.0,0.0,0.0,0.0,0.0,0.0,0.0,0.0,0.0,0.0,0.0,0.0,0.0,0.0,0.0,0.0,0.0,-4.0791,-4.0869,-4.0889,-4.0883,-4.0964,-4.1039,-4.1093,-4.1106,-4.1094,-4.1094,-4.1091,-4.1109,-4.1109,-4.1109,-4.1109,-4.1109,-4.1109,-4.1109,-4.1109,-4.1109,-4.1109,-4.1109,-4.1109,-4.1109,-4.1091,-4.1097,-4.1102,-4.1108,-4.1091,-4.1132,-4.1348,-4.2226,-4.2012,-4.1582,-4.2383,-4.2695,-4.2734,-4.2656,-4.3262,-4.3945,-4.3944,-4.3944,-4.4137,-4.493,-4.5058,-4.5247,-4.6108,-4.6303,-4.6306,-4.6293,-4.63,-4.6304,-4.6306,-4.6308,-4.6308,-4.6308,-4.6308,-4.6308,-4.6308,-4.6308,-4.6308,-4.6308,-4.6308,-4.6308,-4.6308,-4.6308,-4.6308,-4.6308,-4.6308,-4.6308,-4.6308,-4.6308,-4.6308,-4.6308,-4.6308,-4.6267,-4.6207,-4.6142,-4.6037,-4.5906,-4.578,-4.57,0.0,0.0,0.0,0.0,0.0,0.0,0.0,0.0,0.0,0.0,0.0,0.0,0.0,0.0,0.0,0.0,0.0,0.0,0.0,0.0,0.0,0.0,0.0,0.0,0.0,0.0,0.0,0.0,0.0,0.0,-3.9994,-4.0558,-4.0625,-4.0002,-4.0646,-4.102,-4.1011,-4.107,-4.1092,-4.1092,-4.11,-4.1109,-4.1109,-4.1109,-4.1109,-4.1109,-4.1109,-4.1109,-4.1109,-4.1109,-4.1109,-4.1109,-4.1109,-4.1093,-4.1097,-4.1098,-4.1102,-4.1108,-4.1091,-4.1112,-4.1386,-4.293,-4.3301,-4.332,-4.418,-4.4922,-4.5312,-4.4629,-4.5078,-4.5742,-4.5742,-4.5741,-4.5798,-4.5973,-4.5501,-4.5243,-4.6103,-4.6301,-4.6303,-4.6301,-4.6306,-4.6308,-4.6307,-4.6308,-4.6308,-4.6308,-4.6308,-4.6308,-4.6308,-4.6308,-4.6308,-4.6308,-4.6308,-4.6308,-4.6308,-4.6308,-4.6308,-4.6308,-4.6308,-4.6308,-4.6308,-4.6308,-4.6308,-4.6308,-4.6308,-4.6289,-4.6288,-4.6209,-4.6072,-4.5896,-4.5813,-4.5733,0.0,0.0,0.0,0.0,0.0,0.0,0.0,0.0,0.0,0.0,0.0,0.0,0.0,0.0,0.0,0.0,0.0,0.0,0.0,0.0,0.0,0.0,0.0,0.0,0.0,0.0,0.0,0.0,0.0,-3.9956,-3.912,-3.947,-3.9509,-3.9082,-3.9925,-4.037,-4.037,-4.0836,-4.1072,-4.1094,-4.1091,-4.1101,-4.1109,-4.1109,-4.1109,-4.1109,-4.1109,-4.1109,-4.1109,-4.1109,-4.1109,-4.1109,-4.1109,-4.1091,-4.1095,-4.1098,-4.1355,-4.1729,-4.1713,-4.2009,-4.2557,-4.3886,-4.4043,-4.3867,-4.4746,-4.5312,-4.5586,-4.5137,-4.5625,-4.6308,-4.6308,-4.6308,-4.6308,-4.6308,-4.5954,-4.5755,-4.6204,-4.6303,-4.6304,-4.6302,-4.6306,-4.6308,-4.6307,-4.6308,-4.6308,-4.6308,-4.6308,-4.6308,-4.6308,-4.6308,-4.6308,-4.6308,-4.6308,-4.6308,-4.6308,-4.6308,-4.6308,-4.6308,-4.6308,-4.6308,-4.6308,-4.6308,-4.6308,-4.6308,-4.6308,-4.6308,-4.6308,-4.6234,-4.6136,-4.5997,-4.5864,-4.5756,0.0,0.0,0.0,0.0,0.0,0.0,0.0,0.0,0.0,0.0,0.0,0.0,0.0,0.0,0.0,0.0,0.0,0.0,0.0,0.0,0.0,0.0,0.0,0.0,0.0,0.0,0.0,0.0,0.0,-3.9101,-3.8212,-3.8328,-3.8328,-3.8173,-3.9178,-3.9695,-3.9695,-4.0561,-4.1022,-4.1074,-4.1094,-4.1108,-4.1109,-4.1109,-4.1109,-4.1109,-4.1109,-4.1109,-4.1109,-4.1109,-4.1109,-4.1109,-4.1109,-4.1109,-4.1109,-4.1095,-4.1645,-4.2408,-4.2392,-4.2964,-4.3846,-4.4725,-4.4511,-4.4082,-4.4961,-4.5215,-4.5215,-4.5215,-4.5742,-4.6308,-4.6308,-4.6308,-4.6308,-4.6308,-4.6307,-4.6304,-4.6304,-4.6304,-4.6304,-4.6304,-4.6306,-4.6307,-4.6307,-4.6308,-4.6308,-4.6308,-4.6308,-4.6308,-4.6308,-4.6308,-4.6308,-4.6308,-4.6308,-4.6308,-4.6308,-4.6308,-4.6308,-4.6308,-4.6308,-4.6308,-4.6308,-4.6308,-4.6308,-4.6308,-4.6308,-4.6308,-4.6308,-4.6235,-4.6189,-4.6106,-4.5915,-4.5803,0.0,0.0,0.0,0.0,0.0,0.0,0.0,0.0,0.0,0.0,0.0,0.0,0.0,0.0,0.0,0.0,0.0,0.0,0.0,0.0,0.0,0.0,0.0,0.0,0.0,0.0,0.0,0.0,-3.8581,-3.8188,-3.7314,-3.7998,-3.8056,-3.7294,-3.8842,-3.9701,-3.9701,-4.0562,-4.0994,-4.1017,-4.1072,-4.1093,-4.1109,-4.1109,-4.1109,-4.1109,-4.1109,-4.1109,-4.1109,-4.1109,-4.1109,-4.1109,-4.1109,-4.1109,-4.1109,-4.109,-4.1641,-4.2407,-4.2408,-4.2962,-4.3846,-4.4725,-4.4921,-4.498,-4.5859,-4.6133,-4.6133,-4.6133,-4.6211,-4.6308,-4.6308,-4.6308,-4.6308,-4.6308,-4.6308,-4.6308,-4.6308,-4.6308,-4.6308,-4.6308,-4.6308,-4.6308,-4.6308,-4.6308,-4.6308,-4.6308,-4.6308,-4.6308,-4.6308,-4.6308,-4.6308,-4.6308,-4.6308,-4.6308,-4.6308,-4.6308,-4.6308,-4.6308,-4.6308,-4.6308,-4.6308,-4.6308,-4.6308,-4.6308,-4.6308,-4.6308,-4.6308,-4.6287,-4.6215,-4.6108,-4.5946,-4.585,0.0,0.0,0.0,0.0,0.0,0.0,0.0,0.0,0.0,0.0,0.0,0.0,0.0,0.0,0.0,0.0,0.0,0.0,0.0,0.0,0.0,0.0,0.0,0.0,0.0,0.0,0.0,0.0,-3.7664,-3.7294,-3.6416,-3.6731,-3.677,-3.6377,-3.7586,-3.8486,-3.896,-3.9842,-4.0533,-4.105,-4.1087,-4.1109,-4.1109,-4.1109,-4.1109,-4.1109,-4.1109,-4.1109,-4.1109,-4.1109,-4.1109,-4.1109,-4.1109,-4.1109,-4.1168,-4.1654,-4.238,-4.3202,-4.3689,-4.4421,-4.521,-4.5601,-4.5721,-4.5801,-4.6172,-4.6308,-4.6308,-4.6308,-4.6308,-4.6308,-4.6308,-4.6308,-4.6308,-4.6308,-4.6308,-4.6308,-4.6308,-4.6308,-4.6308,-4.6308,-4.6308,-4.6308,-4.6308,-4.6308,-4.6308,-4.6308,-4.6308,-4.6308,-4.6308,-4.6308,-4.6308,-4.6308,-4.6308,-4.6308,-4.6308,-4.6308,-4.6308,-4.6308,-4.6308,-4.6308,-4.6308,-4.6308,-4.6308,-4.6308,-4.6308,-4.6308,-4.6308,-4.6306,-4.6278,-4.6216,-4.6076,-4.5987,0.0,0.0,0.0,0.0,0.0,0.0,0.0,0.0,0.0,0.0,0.0,0.0,0.0,0.0,0.0,0.0,0.0,0.0,0.0,0.0,0.0,0.0,0.0,0.0,0.0,0.0,0.0,0.0,-3.677,-3.6498,-3.5834,-3.5795,-3.5795,-3.5795,-3.6653,-3.7514,-3.8389,-3.9509,-4.0411,-4.1092,-4.1099,-4.1109,-4.1109,-4.1109,-4.1109,-4.1109,-4.1109,-4.1109,-4.1109,-4.1109,-4.1109,-4.1109,-4.1109,-4.1246,-4.1518,-4.2162,-4.3082,-4.412,-4.4761,-4.5573,-4.6305,-4.6304,-4.6307,-4.6308,-4.6308,-4.6308,-4.6308,-4.6308,-4.6308,-4.6308,-4.6308,-4.6308,-4.6308,-4.6308,-4.6308,-4.6308,-4.6308,-4.6308,-4.6308,-4.6308,-4.6308,-4.6308,-4.6308,-4.6308,-4.6308,-4.6308,-4.6308,-4.6308,-4.6308,-4.6308,-4.6308,-4.6308,-4.6308,-4.6308,-4.6308,-4.6308,-4.6308,-4.6308,-4.6308,-4.6308,-4.6308,-4.6308,-4.6308,-4.6308,-4.6308,-4.6308,-4.6307,-4.6304,-4.63,-4.6295,-4.6155,-4.6063,0.0,0.0,0.0,0.0,0.0,0.0,0.0,0.0,0.0,0.0,0.0,0.0,0.0,0.0,0.0,0.0,0.0,0.0,0.0,0.0,0.0,0.0,0.0,0.0,0.0,0.0,0.0,0.0,-3.5872,-3.5853,-3.5795,-3.5795,-3.5795,-3.5795,-3.6653,-3.7514,-3.8389,-4.0145,-4.1053,-4.1091,-4.1109,-4.1109,-4.1109,-4.1109,-4.1109,-4.1109,-4.1109,-4.1109,-4.1109,-4.1109,-4.1109,-4.1109,-4.1109,-4.1596,-4.2337,-4.2376,-4.3479,-4.4933,-4.4986,-4.5561,-4.6308,-4.6307,-4.6308,-4.6308,-4.6308,-4.6308,-4.6308,-4.6308,-4.6308,-4.6308,-4.6308,-4.6308,-4.6308,-4.6308,-4.6308,-4.6308,-4.6308,-4.6308,-4.6308,-4.6308,-4.6308,-4.6308,-4.6308,-4.6308,-4.6308,-4.6308,-4.6308,-4.6308,-4.6308,-4.6308,-4.6308,-4.6308,-4.6308,-4.6308,-4.6308,-4.6308,-4.6308,-4.6308,-4.6308,-4.6308,-4.6308,-4.6308,-4.6308,-4.6308,-4.6308,-4.6308,-4.6307,-4.6304,-4.6301,-4.6301,-4.616,-4.6092,0.0,0.0,0.0,0.0,0.0,0.0,0.0,0.0,0.0,0.0,0.0,0.0,0.0,0.0,0.0,0.0,0.0,0.0,0.0,0.0,0.0,0.0,0.0,0.0,0.0,0.0,0.0,0.0,0.0,-3.5795,-3.5795,-3.5795,-3.5795,-3.5795,-3.6105,-3.6975,-3.8458,-4.0215,-4.1099,-4.1109,-4.1109,-4.1109,-4.1109,-4.1109,-4.1109,-4.1109,-4.1109,-4.1109,-4.1109,-4.1109,-4.1109,-4.1109,-4.1109,-4.1285,-4.1693,-4.2825,-4.3633,-4.4324,-4.5454,-4.6048,-4.6308,-4.6307,-4.6308,-4.6308,-4.6308,-4.6308,-4.6308,-4.6308,-4.6308,-4.6308,-4.6308,-4.6308,-4.6308,-4.6308,-4.6308,-4.6308,-4.6308,-4.6308,-4.6308,-4.6308,-4.6308,-4.6308,-4.6308,-4.6308,-4.6308,-4.6308,-4.6308,-4.6308,-4.6308,-4.6308,-4.6308,-4.6308,-4.6308,-4.6308,-4.6308,-4.6308,-4.6308,-4.6308,-4.6308,-4.6308,-4.6308,-4.6308,-4.6308,-4.6308,-4.6308,-4.6308,-4.6307,-4.6306,-4.6304,-4.6301,-4.6256,-4.6204,0.0,0.0,0.0,0.0,0.0,0.0,0.0,0.0,0.0,0.0,0.0,0.0,0.0,0.0,0.0,0.0,0.0,0.0,0.0,0.0,0.0,0.0,0.0,0.0,0.0,0.0,0.0,0.0,0.0,0.0,-3.5795,-3.5795,-3.5795,-3.5795,-3.6105,-3.6993,-3.8496,-3.9938,-4.0816,-4.1109,-4.1109,-4.1109,-4.1109,-4.1109,-4.1109,-4.1109,-4.1109,-4.1109,-4.1109,-4.1109,-4.1109,-4.1109,-4.1109,-4.1461,-4.2105,-4.3276,-4.3887,-4.4344,-4.5808,-4.6108,-4.5917,-4.6191,-4.6308,-4.6308,-4.6308,-4.6308,-4.6308,-4.6308,-4.6308,-4.6308,-4.6308,-4.6308,-4.6308,-4.6308,-4.6308,-4.6308,-4.6308,-4.6308,-4.6308,-4.6308,-4.6308,-4.6308,-4.6308,-4.6308,-4.6308,-4.6308,-4.6308,-4.6308,-4.6308,-4.6308,-4.6308,-4.6308,-4.6308,-4.6308,-4.6308,-4.6308,-4.6308,-4.6308,-4.6308,-4.6308,-4.6308,-4.6308,-4.6308,-4.6308,-4.6308,-4.6308,-4.6308,-4.6307,-4.6306,-4.6304,-4.6306,-4.6259,0.0,0.0,0.0,0.0,0.0,0.0,0.0,0.0,0.0,0.0,0.0,0.0,0.0,0.0,0.0,0.0,0.0,0.0,0.0,0.0,0.0,0.0,0.0,0.0,0.0,0.0,0.0,0.0,-3.5795,-3.5795,-3.5795,-3.5799,-3.5799,-3.5799,-3.6718,-3.7619,-3.8498,-3.9351,-4.0249,-4.1109,-4.1109,-4.1109,-4.1109,-4.1109,-4.1109,-4.1109,-4.1109,-4.1109,-4.1109,-4.1109,-4.1109,-4.1109,-4.1109,-4.2124,-4.3627,-4.3647,-4.4202,-4.5091,-4.5969,-4.572,-4.5176,-4.6035,-4.6308,-4.6308,-4.6308,-4.6308,-4.6308,-4.6308,-4.6308,-4.6308,-4.6308,-4.6308,-4.6308,-4.6308,-4.6308,-4.6308,-4.6308,-4.6308,-4.6308,-4.6308,-4.6308,-4.6308,-4.6308,-4.6308,-4.6308,-4.6308,-4.6308,-4.6308,-4.6308,-4.6308,-4.6308,-4.6308,-4.6308,-4.6308,-4.6308,-4.6308,-4.6308,-4.6308,-4.6308,-4.6308,-4.6308,-4.6308,-4.6308,-4.6308,-4.6308,-4.6308,-4.6308,-4.6308,-4.6307,-4.6307,-4.6307,-4.622,-3.1582,0.0,0.0,0.0,0.0,0.0,0.0,0.0,0.0,0.0,0.0,0.0,0.0,0.0,0.0,0.0,0.0,0.0,0.0,0.0,0.0,0.0,0.0,0.0,0.0,0.0,0.0,0.0,-3.5801,-3.5797,-3.5795,-3.5852,-3.5862,-3.5862,-3.6738,-3.7616,-3.8495,-3.9366,-4.0249,-4.1109,-4.1109,-4.1109,-4.1109,-4.1109,-4.1109,-4.1109,-4.1109,-4.1109,-4.1109,-4.1109,-4.1109,-4.1109,-4.1109,-4.1382,-4.189,-4.2521,-4.3309,-4.4174,-4.5055,-4.5604,-4.5976,-4.6211,-4.6308,-4.6308,-4.6308,-4.6308,-4.6308,-4.6308,-4.6308,-4.6308,-4.6308,-4.6308,-4.6308,-4.6308,-4.6308,-4.6308,-4.6308,-4.6308,-4.6308,-4.6308,-4.6308,-4.6308,-4.6308,-4.6308,-4.6308,-4.6308,-4.6308,-4.6308,-4.6308,-4.6308,-4.6308,-4.6308,-4.6308,-4.6308,-4.6308,-4.6308,-4.6308,-4.6308,-4.6308,-4.6308,-4.6308,-4.6308,-4.6308,-4.6308,-4.6308,-4.6308,-4.6308,-4.6308,-4.6308,-4.6308,-4.6308,-4.6288,0.0,0.0,0.0,0.0,0.0,0.0,0.0,-3.6266,0.0,0.0,0.0,0.0,0.0,0.0,0.0,0.0,0.0,0.0,0.0,0.0,0.0,0.0,0.0,0.0,0.0,-3.5766,-3.5751,-3.5765,-3.5784,-3.5793,-3.5795,-3.5853,-3.5908,-3.5908,-3.6396,-3.707,-3.7949,-3.8485,-3.9351,-4.0561,-4.0561,-4.0758,-4.1109,-4.1109,-4.1109,-4.1109,-4.1109,-4.1091,-4.1094,-4.1094,-4.1094,-4.1094,-4.1094,-4.133,-4.1703,-4.2214,-4.2727,-4.3336,-4.4568,-4.5097,-4.5332,-4.6055,-4.6308,-4.6308,-4.6308,-4.6308,-4.6308,-4.6308,-4.6308,-4.6308,-4.6308,-4.6308,-4.6308,-4.6308,-4.6308,-4.6308,-4.6308,-4.6308,-4.6308,-4.6308,-4.6308,-4.6308,-4.6308,-4.6308,-4.6308,-4.6308,-4.6308,-4.6308,-4.6308,-4.6308,-4.6308,-4.6308,-4.6308,-4.6308,-4.6308,-4.6308,-4.6308,-4.6308,-4.6308,-4.6308,-4.6308,-4.6308,-4.6308,-4.6308,-4.6308,-4.6308,-4.6308,-4.6308,-4.6308,-4.6308,-4.6308,-4.6308,-3.2754,0.0,0.0,0.0,0.0,0.0,-3.6249,-3.6209,-3.6189,0.0,0.0,0.0,0.0,0.0,0.0,0.0,0.0,0.0,0.0,0.0,0.0,0.0,0.0,0.0,-3.5704,-3.5704,-3.5704,-3.5708,-3.5766,-3.5788,-3.5791,-3.5859,-3.5899,-3.5899,-3.591,-3.6328,-3.7207,-3.7274,-3.8102,-3.9663,-3.9761,-4.021,-4.0953,-4.1051,-4.1109,-4.1109,-4.109,-4.1094,-4.1099,-4.1099,-4.1099,-4.1099,-4.1099,-4.1571,-4.2258,-4.2258,-4.2378,-4.2772,-4.4315,-4.4472,-4.4238,-4.5801,-4.6308,-4.6308,-4.6308,-4.6308,-4.6308,-4.6308,-4.6308,-4.6308,-4.6308,-4.6308,-4.6308,-4.6308,-4.6308,-4.6308,-4.6308,-4.6308,-4.6308,-4.6308,-4.6308,-4.6308,-4.6308,-4.6308,-4.6308,-4.6308,-4.6308,-4.6308,-4.6308,-4.6308,-4.6308,-4.6308,-4.6308,-4.6308,-4.6308,-4.6308,-4.6308,-4.6308,-4.6308,-4.6308,-4.6308,-4.6308,-4.6308,-4.6308,-4.6308,-4.6308,-4.6308,-4.6308,-4.6308,-4.6308,-4.6308,-4.6308,-3.3457,-3.3926,0.0,0.0,0.0,0.0,-3.3398,-3.3555,-3.4199,0.0,0.0,0.0,0.0,0.0,0.0,0.0,0.0,0.0,0.0,0.0,0.0,0.0,0.0,0.0,-3.5698,-3.5693,-3.5703,-3.5704,-3.5766,-3.5803,-3.5808,-3.5855,-3.5905,-3.5905,-3.5957,-3.6392,-3.727,-3.7285,-3.7828,-3.8845,-3.9488,-3.9897,-4.0073,-4.0777,-4.1109,-4.1109,-4.1095,-4.1098,-4.1099,-4.1104,-4.1106,-4.1106,-4.1106,-4.1204,-4.1341,-4.1344,-4.2243,-4.3494,-4.3847,-4.4765,-4.5859,-4.6191,-4.6308,-4.6308,-4.6308,-4.6308,-4.6308,-4.6308,-4.6308,-4.6308,-4.6308,-4.6308,-4.6308,-4.6308,-4.6308,-4.6308,-4.6308,-4.6308,-4.6308,-4.6308,-4.6308,-4.6308,-4.6308,-4.6308,-4.6308,-4.6308,-4.6308,-4.6308,-4.6308,-4.6308,-4.6308,-4.6308,-4.6308,-4.6308,-4.6308,-4.6308,-4.6308,-4.6308,-4.6308,-4.6308,-4.6308,-4.6308,-4.6308,-4.6308,-4.6308,-4.6308,-4.6308,-4.6308,-4.6308,-4.6308,-4.6308,-4.6308,-3.4394,-3.4687,0.0,-3.3769,0.0,0.0,0.0,0.0,0.0,0.0,0.0,0.0,0.0,0.0,0.0,0.0,0.0,0.0,0.0,0.0,0.0,0.0,0.0,0.0,-3.5706,-3.5706,-3.5697,-3.5703,-3.5737,-3.5756,-3.5792,-3.5868,-3.5916,-3.5948,-3.5972,-3.6207,-3.6656,-3.6656,-3.7087,-3.7966,-3.8804,-3.9409,-3.9839,-4.0702,-4.1094,-4.1094,-4.1101,-4.1104,-4.1106,-4.1108,-4.111,-4.1151,-4.111,-4.1111,-4.1151,-4.1152,-4.1953,-4.3105,-4.3555,-4.4551,-4.5723,-4.6152,-4.6308,-4.6308,-4.6308,-4.6308,-4.6308,-4.6308,-4.6308,-4.6308,-4.6308,-4.6308,-4.6308,-4.6308,-4.6308,-4.6308,-4.6308,-4.6308,-4.6308,-4.6308,-4.6308,-4.6308,-4.6308,-4.6308,-4.6308,-4.6308,-4.6308,-4.6308,-4.6308,-4.6308,-4.6308,-4.6308,-4.6308,-4.6308,-4.6308,-4.6308,-4.6308,-4.6308,-4.6308,-4.6308,-4.6308,-4.6308,-4.6308,-4.6308,-4.6308,-4.6308,-4.6308,-4.6308,-4.6308,-4.6308,-4.6308,-4.6308,0.0,0.0,0.0,0.0,0.0,-3.3925,0.0,0.0,0.0,0.0,0.0,0.0,0.0,0.0,0.0,0.0,0.0,0.0,0.0,0.0,0.0,0.0,0.0,0.0,-3.5704,-3.5549,-3.5521,-3.5697,-3.5533,-3.5553,-3.5794,-3.5851,-3.5935,-3.5995,-3.6009,-3.5994,-3.5992,-3.5992,-3.6344,-3.7067,-3.8103,-3.8942,-3.9605,-4.0627,-4.1098,-4.1099,-4.1106,-4.111,-4.1092,-4.1112,-4.1152,-4.1191,-4.1132,-4.1152,-4.1191,-4.1191,-4.1816,-4.2754,-4.3457,-4.4375,-4.5371,-4.6074,-4.6308,-4.6308,-4.6308,-4.6308,-4.6308,-4.6308,-4.6308,-4.6308,-4.6308,-4.6308,-4.6308,-4.6308,-4.6308,-4.6308,-4.6308,-4.6308,-4.6308,-4.6308,-4.6308,-4.6308,-4.6308,-4.6308,-4.6308,-4.6308,-4.6308,-4.6308,-4.6308,-4.6308,-4.6308,-4.6308,-4.6308,-4.6308,-4.6308,-4.6308,-4.6308,-4.6308,-4.6308,-4.6308,-4.6308,-4.6308,-4.6308,-4.6308,-4.6308,-4.6308,-4.6308,-4.6308,-4.6308,-4.6308,-4.6308,-4.6308,0.0,0.0,0.0,0.0,-3.5172,0.0,0.0,0.0,-3.2771,-3.1421,0.0,0.0,0.0,0.0,0.0,0.0,0.0,0.0,0.0,0.0,0.0,0.0,0.0,0.0,0.0,-3.4993,-3.4877,-3.5632,-3.4981,-3.4908,-3.5756,-3.5855,-3.5931,-3.5995,-3.5992,-3.6,-3.5992,-3.5992,-3.6051,-3.6168,-3.7809,-3.865,-3.8786,-4.0374,-4.1098,-4.1099,-4.1108,-4.1092,-4.1092,-4.1152,-4.1191,-4.1191,-4.1191,-4.1191,-4.1191,-4.1191,-4.2207,-4.3574,-4.3672,-4.4785,-4.6172,-4.6269,-4.6308,-4.6308,-4.6308,-4.6308,-4.6308,-4.6308,-4.6308,-4.6308,-4.6308,-4.6308,-4.6308,-4.6308,-4.6308,-4.6308,-4.6308,-4.6308,-4.6308,-4.6308,-4.6308,-4.6308,-4.6308,-4.6308,-4.6308,-4.6308,-4.6308,-4.6308,-4.6308,-4.6308,-4.6308,-4.6308,-4.6308,-4.6308,-4.6308,-4.6308,-4.6308,-4.6308,-4.6308,-4.6308,-4.6308,-4.6308,-4.6308,-4.6308,-4.6308,-4.6308,-4.6308,-4.6308,-4.6308,-4.6308,-4.6308,-4.6308,0.0,0.0,0.0,0.0,0.0,0.0,-3.2189,0.0,-3.1676,0.0,0.0,0.0,0.0,0.0,0.0,0.0,0.0,0.0,0.0,0.0,0.0,0.0,0.0,0.0,0.0,0.0,0.0,0.0,-3.5398,-3.538,-3.5778,-3.6337,-3.6453,-3.6016,-3.5993,-3.6007,-3.6004,-3.6004,-3.6004,-3.6004,-3.7254,-3.8113,-3.8641,-3.9856,-4.0658,-4.1108,-4.1132,-4.1152,-4.1152,-4.1191,-4.1191,-4.1191,-4.1191,-4.1191,-4.1191,-4.1191,-4.2266,-4.3691,-4.3691,-4.4844,-4.6308,-4.6308,-4.6308,-4.6308,-4.6308,-4.6308,-4.6308,-4.6308,-4.6308,-4.6308,-4.6308,-4.6308,-4.6308,-4.6308,-4.6308,-4.6308,-4.6308,-4.6308,-4.6308,-4.6308,-4.6308,-4.6308,-4.6308,-4.6308,-4.6308,-4.6308,-4.6308,-4.6308,-4.6308,-4.6308,-4.6308,-4.6308,-4.6308,-4.6308,-4.6308,-4.6308,-4.6308,-4.6308,-4.6308,-4.6308,-4.6308,-4.6308,-4.6308,-4.6308,-4.6308,-4.6308,-4.6308,-4.6308,-4.6308,-4.6308,-4.6308,-4.6308,-3.6523,0.0,0.0,0.0,0.0,0.0,0.0,0.0,0.0,0.0,0.0,0.0,0.0,0.0,0.0,0.0,0.0,0.0,0.0,0.0,0.0,0.0,0.0,0.0,0.0,0.0,0.0,0.0,0.0,-3.5661,-3.6163,-3.7063,-3.7182,-3.6386,-3.6364,-3.6246,-3.5991,-3.5991,-3.5991,-3.6011,-3.6888,-3.7767,-3.8627,-3.9509,-4.035,-4.1092,-4.1172,-4.1191,-4.1191,-4.1191,-4.1191,-4.1191,-4.1191,-4.1191,-4.1191,-4.1191,-4.2266,-4.3691,-4.3691,-4.4844,-4.6308,-4.6308,-4.6308,-4.6308,-4.6308,-4.6308,-4.6308,-4.6308,-4.6308,-4.6308,-4.6308,-4.6308,-4.6308,-4.6308,-4.6308,-4.6308,-4.6308,-4.6308,-4.6308,-4.6308,-4.6308,-4.6308,-4.6308,-4.6308,-4.6308,-4.6308,-4.6308,-4.6308,-4.6308,-4.6308,-4.6308,-4.6308,-4.6308,-4.6308,-4.6308,-4.6308,-4.6308,-4.6308,-4.6308,-4.6308,-4.6308,-4.6308,-4.6308,-4.6308,-4.6308,-4.6308,-4.6308,-4.6308,-4.6308,-4.6308,-4.6308,-4.6308,0.0,0.0,0.0,-3.4297,0.0,0.0,0.0,0.0,-3.1545,0.0,0.0,0.0,0.0,0.0,0.0,0.0,0.0,0.0,0.0,0.0,0.0,0.0,0.0,0.0,0.0,0.0,0.0,0.0,-3.4975,0.0,-3.7063,-3.7985,-3.8097,-3.7284,-3.7264,-3.6853,-3.6011,-3.5991,-3.5991,-3.6011,-3.6888,-3.7767,-3.8627,-3.9509,-4.035,-4.1092,-4.1172,-4.1191,-4.1191,-4.1191,-4.1191,-4.1191,-4.1191,-4.1191,-4.1191,-4.1191,-4.2266,-4.3691,-4.3691,-4.4844,-4.6308,-4.6308,-4.6308,-4.6308,-4.6308,-4.6308,-4.6308,-4.6308,-4.6308,-4.6308,-4.6308,-4.6308,-4.6308,-4.6308,-4.6308,-4.6308,-4.6308,-4.6308,-4.6308,-4.6308,-4.6308,-4.6308,-4.6308,-4.6308,-4.6308,-4.6308,-4.6308,-4.6308,-4.6308,-4.6308,-4.6308,-4.6308,-4.6308,-4.6308,-4.6308,-4.6308,-4.6308,-4.6308,-4.6308,-4.6308,-4.6308,-4.6308,-4.6308,-4.6308,-4.6308,-4.6308,-4.6308,-4.6308,-4.6308,-4.6308,-4.6308,-4.6308,0.0,0.0,-3.7891,-3.498,0.0,0.0,0.0,0.0,0.0,0.0,0.0,0.0,0.0,0.0,0.0,0.0,0.0,0.0,0.0,0.0,0.0,0.0,0.0,0.0,0.0,0.0,0.0,0.0,-3.524,0.0,-3.7144,-3.8625,-3.9042,-3.8183,-3.7597,-3.7168,-3.6855,-3.6288,-3.5995,-3.6015,-3.6874,-3.7753,-3.8632,-3.9492,-4.0351,-4.1172,-4.1191,-4.1191,-4.1191,-4.1191,-4.1191,-4.1191,-4.1191,-4.1191,-4.1191,-4.1191,-4.1894,-4.3008,-4.416,-4.4941,-4.5527,-4.6113,-4.6308,-4.6308,-4.6308,-4.6308,-4.6308,-4.6308,-4.6308,-4.6308,-4.6308,-4.6308,-4.6308,-4.6308,-4.6308,-4.6308,-4.6308,-4.6308,-4.6308,-4.6308,-4.6308,-4.6308,-4.6308,-4.6308,-4.6308,-4.6308,-4.6308,-4.6308,-4.6308,-4.6308,-4.6308,-4.6308,-4.6308,-4.6308,-4.6308,-4.6308,-4.6308,-4.6308,-4.6308,-4.6308,-4.6308,-4.6308,-4.6308,-4.6308,-4.6308,-4.6308,-4.6308,-4.6308,-4.6308,-4.6308,-4.6308,-4.6308,-3.6601,-3.7285,0.0,-3.5273,-3.4657,0.0,-3.2396,0.0,-3.2066,0.0,0.0,0.0,0.0,0.0,0.0,0.0,0.0,0.0,0.0,0.0,0.0,0.0,0.0,0.0,0.0,0.0,-3.3596,-3.5765,-3.5903,0.0,0.0,-3.9569,-3.9961,-3.9082,-3.8516,-3.8086,-3.7773,-3.6894,-3.6465,-3.6465,-3.7031,-3.7754,-3.8633,-3.9492,-4.0371,-4.1191,-4.1191,-4.1191,-4.1191,-4.1191,-4.1191,-4.1191,-4.1191,-4.1191,-4.1191,-4.1191,-4.1719,-4.2598,-4.4043,-4.4746,-4.5098,-4.5664,-4.6055,-4.6308,-4.6308,-4.6308,-4.6308,-4.6308,-4.6308,-4.6308,-4.6308,-4.6308,-4.6308,-4.6308,-4.6308,-4.6308,-4.6308,-4.6308,-4.6308,-4.6308,-4.6308,-4.6308,-4.6308,-4.6308,-4.6308,-4.6308,-4.6308,-4.6308,-4.6308,-4.6308,-4.6308,-4.6308,-4.6308,-4.6308,-4.6308,-4.6308,-4.6308,-4.6308,-4.6308,-4.6308,-4.6308,-4.6308,-4.6308,-4.6308,-4.6308,-4.6308,-4.6308,-4.6308,-4.6308,-4.6308,-4.6308,-4.6308]},{"header":{"parameterUnit":"m.s-1","parameterCategory":1,"la1":30.6,"la2":29.2853,"lo1":-89.7004,"lo2":-87.6739,"dy":0.0162,"dx":0.0183,"nx":112,"ny":82,"refTime":"2024-11-22T06:00:00:Z","depth":0,"parameterNumber":3,"parameterNumberName":"V-component_of_WINDS"},"data":[0.0,0.0,0.0,0.0,0.0,0.0,0.0,0.0,0.0,0.0,0.0,0.0,0.0,0.0,0.0,0.0,0.0,0.0,0.0,0.0,0.0,0.0,0.0,0.0,0.0,0.0,0.0,0.0,0.0,0.0,0.0,0.0,0.0,0.0,0.0,0.0,0.0,0.0,0.0,0.0,0.0,0.0,0.0,0.0,0.0,0.0,0.0,0.0,0.0,0.0,0.0,0.0,0.0,0.0,0.0,0.0,0.0,0.0,0.0,0.0,0.0,0.0,0.0,0.0,0.0,0.0,0.0,0.0,0.0,0.0,0.0,0.0,0.0,0.0,0.0,0.0,0.0,0.0,0.0,0.0,0.0,0.0,0.0,0.0,0.0,0.0,0.0,0.0,0.0,0.0,-0.5956,-0.5661,-0.554,-0.5647,-0.6067,-0.6299,-0.6563,-0.6819,0.0,0.0,0.0,0.0,0.0,0.0,0.0,0.0,0.0,0.0,0.0,0.0,0.0,0.0,0.0,0.0,0.0,0.0,0.0,0.0,0.0,0.0,0.0,0.0,0.0,0.0,0.0,0.0,0.0,0.0,0.0,0.0,0.0,0.0,0.0,0.0,0.0,0.0,0.0,0.0,0.0,0.0,0.0,0.0,0.0,0.0,0.0,0.0,0.0,0.0,0.0,0.0,0.0,0.0,0.0,0.0,0.0,0.0,0.0,0.0,0.0,0.0,0.0,0.0,0.0,0.0,0.0,0.0,0.0,0.0,0.0,0.0,0.0,0.0,0.0,0.0,0.0,0.0,0.0,0.0,0.0,0.0,0.0,0.0,0.0,0.0,0.0,0.0,0.0,0.0,0.0,0.0,0.0,0.0,0.0,0.0,0.0,0.0,0.0,0.0,0.0,0.0,0.0,0.0,-0.5473,-0.5313,-0.5404,-0.5647,-0.6067,-0.6392,-0.6672,-0.6936,0.0,0.0,0.0,0.0,0.0,0.0,0.0,0.0,0.0,0.0,0.0,0.0,0.0,0.0,0.0,0.0,0.0,0.0,0.0,0.0,0.0,0.0,0.0,0.0,0.0,0.0,0.0,0.0,0.0,0.0,0.0,0.0,0.0,0.0,0.0,0.0,0.0,0.0,0.0,0.0,0.0,0.0,0.0,0.0,0.0,0.0,0.0,0.0,0.0,0.0,0.0,0.0,0.0,0.0,0.0,0.0,0.0,0.0,0.0,0.0,0.0,0.0,0.0,0.0,0.0,0.0,0.0,0.0,0.0,0.0,0.0,0.0,0.0,0.0,0.0,0.0,0.0,0.0,0.0,0.0,0.0,0.0,0.0,0.0,0.0,0.0,0.0,0.0,0.0,0.0,0.0,0.0,0.0,0.0,0.0,0.0,0.0,0.0,0.0,0.0,0.0,0.0,0.0,-0.5393,-0.5167,-0.5083,-0.5231,-0.5563,-0.6067,-0.6218,-0.6465,-0.6845,-0.7732,0.0,0.0,0.0,0.0,0.0,0.0,0.0,0.0,0.0,0.0,0.0,0.0,0.0,0.0,0.0,0.0,0.0,0.0,0.0,0.0,0.0,0.0,0.0,0.0,0.0,0.0,0.0,0.0,0.0,0.0,0.0,0.0,0.0,0.0,0.0,0.0,0.0,0.0,0.0,0.0,0.0,0.0,0.0,0.0,0.0,0.0,0.0,0.0,0.0,0.0,0.0,0.0,0.0,0.0,0.0,0.0,0.0,0.0,0.0,0.0,0.0,0.0,0.0,0.0,0.0,0.0,0.0,0.0,0.0,0.0,0.0,0.0,0.0,0.0,0.0,0.0,0.0,0.0,0.0,0.0,0.0,0.0,0.0,0.0,0.0,0.0,0.0,0.0,0.0,0.0,0.0,0.0,0.0,0.0,0.0,0.0,0.0,0.0,0.0,0.0,0.0,0.0,-0.5224,-0.5089,-0.5061,-0.5162,-0.5472,-0.6025,-0.6034,-0.6272,-0.695,-0.7977,0.0,0.0,0.0,0.0,0.0,0.0,0.0,0.0,0.0,0.0,0.0,0.0,0.0,0.0,0.0,0.0,0.0,0.0,0.0,0.0,0.0,0.0,0.0,0.0,0.0,0.0,0.0,0.0,0.0,0.0,0.0,0.0,0.0,0.0,0.0,0.0,0.0,0.0,0.0,0.0,0.0,0.0,0.0,0.0,0.0,0.0,0.0,0.0,0.0,0.0,0.0,0.0,0.0,0.0,0.0,0.0,0.0,0.0,0.0,0.0,0.0,0.0,0.0,0.0,0.0,0.0,0.0,0.0,0.0,0.0,0.0,0.0,0.0,0.0,0.0,0.0,0.0,0.0,0.0,0.0,0.0,0.0,0.0,0.0,0.0,0.0,0.0,0.0,0.0,0.0,0.0,0.0,0.0,0.0,0.0,0.0,0.0,0.0,0.0,0.0,0.0,0.0,-0.5187,-0.5342,-0.5186,-0.5325,-0.5568,-0.5993,-0.5993,-0.6425,-0.748,-0.8086,0.0,0.0,0.0,0.0,0.0,0.0,0.0,0.0,0.0,0.0,0.0,0.0,0.0,0.0,0.0,0.0,0.0,0.0,0.0,0.0,0.0,0.0,0.0,0.0,0.0,0.0,0.0,0.0,0.0,0.0,0.0,0.0,0.0,0.0,0.0,0.0,0.0,0.0,0.0,0.0,0.0,0.0,0.0,0.0,0.0,0.0,0.0,0.0,0.0,0.0,0.0,0.0,0.0,0.0,0.0,0.0,0.0,0.0,0.0,0.0,0.0,0.0,0.0,0.0,0.0,0.0,0.0,0.0,0.0,0.0,0.0,0.0,0.0,0.0,0.0,0.0,0.0,0.0,0.0,0.0,0.0,0.0,0.0,0.0,0.0,0.0,0.0,0.0,0.0,0.0,0.0,0.0,0.0,0.0,0.0,0.0,0.0,0.0,0.0,0.0,0.0,0.0,-0.506,-0.5159,0.0,-0.5227,-0.541,-0.5782,-0.5835,-0.6047,-0.6456,0.0,0.0,0.0,0.0,0.0,0.0,0.0,0.0,0.0,0.0,0.0,0.0,0.0,0.0,0.0,0.0,0.0,0.0,0.0,0.0,0.0,0.0,0.0,0.0,0.0,0.0,0.0,0.0,0.0,0.0,0.0,0.0,0.0,0.0,0.0,0.0,0.0,0.0,0.0,0.0,0.0,0.0,0.0,0.0,0.0,0.0,0.0,0.0,0.0,0.0,0.0,0.0,0.0,0.0,0.0,0.0,0.0,0.0,0.0,0.0,0.0,0.0,0.0,0.0,0.0,0.0,0.0,0.0,0.0,0.0,0.0,0.0,0.0,0.0,0.0,0.0,0.0,0.0,0.0,0.0,0.0,0.0,0.0,0.0,0.0,0.0,0.0,0.0,0.0,0.0,0.0,0.0,0.0,0.0,0.0,0.0,0.0,0.0,0.0,0.0,0.0,0.0,-0.4876,-0.501,-0.5143,0.0,-0.5186,-0.5303,-0.56,-0.5648,-0.5794,-0.6104,0.0,0.0,0.0,0.0,0.0,0.0,0.0,0.0,0.0,0.0,0.0,0.0,0.0,0.0,0.0,0.0,0.0,0.0,0.0,0.0,0.0,0.0,0.0,0.0,0.0,0.0,0.0,0.0,0.0,0.0,0.0,0.0,0.0,0.0,0.0,0.0,0.0,0.0,0.0,0.0,0.0,0.0,0.0,0.0,0.0,0.0,0.0,0.0,0.0,0.0,0.0,0.0,0.0,0.0,0.0,0.0,0.0,0.0,0.0,0.0,0.0,0.0,0.0,0.0,0.0,0.0,0.0,0.0,0.0,0.0,0.0,0.0,0.0,0.0,0.0,0.0,0.0,0.0,0.0,0.0,0.0,0.0,0.0,0.0,0.0,0.0,0.0,0.0,0.0,0.0,0.0,0.0,0.0,0.0,0.0,0.0,0.0,0.0,0.0,0.0,0.0,0.0,-0.474,-0.5112,-0.5364,-0.52,-0.5184,-0.5267,-0.5474,-0.5434,-0.5808,0.0,0.0,0.0,0.0,0.0,0.0,0.0,0.0,0.0,0.0,0.0,0.0,0.0,0.0,0.0,0.0,0.0,0.0,0.0,0.0,0.0,0.0,0.0,0.0,0.0,0.0,0.0,0.0,0.0,0.0,0.0,0.0,0.0,0.0,0.0,0.0,0.0,0.0,0.0,0.0,0.0,0.0,0.0,0.0,0.0,0.0,0.0,0.0,0.0,0.0,0.0,0.0,0.0,0.0,0.0,0.0,0.0,0.0,0.0,0.0,0.0,0.0,0.0,0.0,0.0,0.0,0.0,0.0,0.0,0.0,0.0,0.0,0.0,0.0,0.0,0.0,0.0,0.0,0.0,0.0,0.0,0.0,0.0,0.0,0.0,0.0,0.0,0.0,0.0,0.0,0.0,0.0,0.0,0.0,0.0,0.0,0.0,0.0,0.0,0.0,0.0,0.0,0.0,-0.4729,-0.5035,-0.5224,-0.5189,-0.5113,-0.5139,-0.5261,-0.5354,-0.5365,-0.5334,0.0,0.0,0.0,0.0,0.0,0.0,0.0,0.0,0.0,0.0,0.0,0.0,0.0,0.0,0.0,0.0,0.0,0.0,0.0,0.0,0.0,0.0,0.0,0.0,0.0,0.0,0.0,0.0,0.0,0.0,0.0,0.0,0.0,0.0,0.0,0.0,0.0,0.0,0.0,0.0,0.0,0.0,0.0,0.0,0.0,0.0,0.0,0.0,0.0,0.0,0.0,0.0,0.0,0.0,0.0,0.0,0.0,0.0,0.0,0.0,0.0,0.0,0.0,0.0,0.0,0.0,0.0,0.0,0.0,0.0,0.0,0.0,0.0,0.0,0.0,0.0,0.0,0.0,0.0,0.0,0.0,0.0,0.0,0.0,0.0,0.0,0.0,0.0,0.0,0.0,0.0,0.0,0.0,0.0,0.0,0.0,0.0,0.0,0.0,0.0,0.0,0.0,-0.472,-0.5002,-0.517,-0.5124,-0.5059,-0.5045,-0.5113,-0.524,-0.521,-0.4933,0.0,0.0,0.0,0.0,0.0,0.0,0.0,0.0,0.0,0.0,0.0,0.0,0.0,0.0,0.0,0.0,0.0,0.0,0.0,0.0,0.0,0.0,0.0,0.0,0.0,0.0,0.0,0.0,0.0,0.0,0.0,0.0,0.0,0.0,0.0,0.0,0.0,0.0,0.0,0.0,0.0,0.0,0.0,0.0,0.0,0.0,0.0,0.0,0.0,0.0,0.0,0.0,0.0,0.0,0.0,0.0,0.0,0.0,0.0,0.0,0.0,0.0,0.0,0.0,0.0,0.0,0.0,0.0,0.0,0.0,0.0,0.0,0.0,0.0,0.0,0.0,0.0,0.0,0.0,0.0,0.0,0.0,0.0,0.0,0.0,0.0,0.0,0.0,0.0,0.0,0.0,0.0,0.0,0.0,0.0,0.0,0.0,0.0,0.0,0.0,0.0,0.0,-0.4673,-0.4994,-0.5132,-0.5029,-0.5018,-0.5018,-0.5018,-0.5135,-0.5198,-0.5173,0.0,0.0,0.0,0.0,0.0,0.0,0.0,0.0,0.0,0.0,0.0,0.0,0.0,0.0,0.0,0.0,0.0,0.0,0.0,0.0,0.0,0.0,0.0,0.0,0.0,0.0,0.0,0.0,0.0,0.0,0.0,0.0,0.0,0.0,0.0,0.0,0.0,0.0,0.0,0.0,0.0,0.0,0.0,0.0,0.0,0.0,0.0,0.0,0.0,0.0,0.0,0.0,0.0,0.0,0.0,0.0,0.0,0.0,0.0,0.0,-0.0654,0.0,0.0,0.0,0.0,0.0,0.0,0.0,0.0,0.0,0.0,0.0,0.0,0.0,0.0,0.0,0.0,0.0,0.0,0.0,0.0,0.0,0.0,0.0,0.0,0.0,0.0,0.0,0.0,0.0,0.0,0.0,0.0,0.0,0.0,0.0,0.0,0.0,0.0,0.0,0.0,0.0,-0.4673,-0.4887,-0.5045,-0.5021,-0.5018,-0.5018,-0.5018,-0.5066,-0.5113,-0.5055,-0.5091,0.0,0.0,0.0,0.0,0.0,0.0,0.0,0.0,0.0,0.0,0.0,0.0,0.0,0.0,0.0,0.0,0.0,0.0,0.0,0.0,0.0,0.0,0.0,0.0,0.0,0.0,0.0,0.0,0.0,0.0,0.0,0.0,0.0,0.0,0.0,0.0,0.0,0.0,0.0,0.0,0.0,0.0,0.0,0.0,0.0,0.0,0.0,0.0,0.0,0.0,0.0,0.0,0.0,0.0,0.0,0.0,0.0,0.0,0.0,0.0,-0.0708,0.0,0.0,0.0,0.0,0.0,0.0,0.0,0.0,0.0,0.0,0.0,0.0,0.0,0.0,0.0,0.0,0.0,0.0,0.0,0.0,0.0,0.0,0.0,0.0,0.0,0.0,0.0,0.0,0.0,0.0,0.0,0.0,0.0,0.0,0.0,0.0,0.0,0.0,0.0,0.0,-0.4673,-0.4866,-0.5018,-0.5018,-0.5018,-0.5018,-0.5018,-0.5053,-0.5046,-0.4965,-0.4907,0.0,0.0,0.0,0.0,0.0,0.0,0.0,0.0,0.0,0.0,0.0,0.0,0.0,0.0,0.0,0.0,0.0,0.0,0.0,0.0,0.0,0.0,0.0,0.0,0.0,0.0,0.0,0.0,0.0,0.0,0.0,0.0,0.0,0.0,0.0,0.0,0.0,0.0,0.0,0.0,0.0,0.0,0.0,0.0,0.0,0.0,0.0,0.0,0.0,0.0,0.0,0.0,0.0,0.0101,0.0,0.0,0.0,0.0,0.0,-0.0389,-0.0534,-0.0441,-0.0806,0.0,0.0,0.0,0.0,0.0,0.0,0.0,0.0,0.0,0.0,0.0,0.0,0.0,0.0,0.0,0.0,0.0,0.0,0.0,0.0,0.0,0.0,0.0,0.0,-0.2061,-0.1495,-0.2103,0.0,0.0,0.0,0.0,0.0,0.0,0.0,0.0,0.0,0.0,0.0,-0.4597,-0.4763,-0.4898,-0.4937,-0.4937,-0.4968,-0.4949,-0.5001,-0.5001,-0.4918,-0.4927,-0.4942,0.0,0.0,0.0,0.0,0.0,0.0,0.0,0.0,0.0,0.0,0.0,0.0,0.0,0.0,0.0,0.0,0.0,0.0,0.0,0.0,0.0,0.0,0.0,0.0,0.0,0.0,0.0,0.0,0.0,0.0,0.0,0.0,0.6517,0.6649,0.0,0.0,0.0,0.0,0.0,0.0,0.0,0.0,0.0,0.0,0.0,0.0,0.0,0.3207,0.3352,0.2097,0.1513,0.155,0.0517,0.0,0.0,0.0,0.0,0.0,-0.0051,0.0,-0.0393,-0.0488,0.0,0.0,0.0,0.0,0.0,0.0,0.0,0.0,0.0,0.0,0.0,0.0,0.0,0.0,0.0,0.0,0.0,0.0,0.0,0.0,0.0,0.0,-0.0578,-0.1421,-0.0899,-0.0235,0.0,-0.1563,-0.2626,-0.2735,-0.2523,0.0,0.0,0.0,0.0,0.0,0.0,0.0,-0.4276,-0.4392,-0.4543,-0.474,-0.474,-0.4776,-0.4831,-0.4844,-0.4856,-0.4882,-0.4807,-0.4823,-0.4983,-0.475,0.0,0.0,0.0,0.0,0.0,0.0,0.0,0.0,0.0,0.0,0.0,0.0,0.0,0.0,0.0,0.0,0.0,0.0,0.0,0.0,0.0,0.0,0.0,0.0,0.0,0.0,0.0,0.0,0.0,0.6236,0.6645,0.6741,0.6694,0.6664,0.0,0.0,0.0,0.0,0.0,0.0,0.0,0.0,0.0,0.4849,0.4696,0.4577,0.4393,0.267,0.1776,0.1659,0.0519,0.0,0.0,0.0,0.0,0.0,0.0,-0.005,-0.0199,-0.0345,-0.044,-0.0581,0.0,0.0,0.0,0.0,-0.3247,-0.3435,-0.2754,-0.241,-0.2316,-0.2081,0.0,0.0,0.0,0.0,0.0,0.0,0.0,0.0,0.0,0.0,-0.077,-0.062,-0.0286,0.0,0.0,-0.0593,-0.1277,0.0,-0.2131,-0.2527,-0.3194,0.0,0.0,0.0,0.0,-0.3544,-0.3545,-0.3627,-0.3895,-0.4423,-0.4456,-0.4485,-0.4557,-0.4643,-0.4707,-0.477,-0.4884,-0.4931,-0.4938,-0.4785,-0.4711,0.0,0.0,0.0,0.0,0.0,0.0,0.0,0.0,0.0,0.0,0.0,0.0,0.0,0.0,0.0,0.0,0.0,0.0,0.0,0.0,0.0,0.0,0.0,0.0,0.0,0.0,0.0,0.0,0.6468,0.677,0.6971,0.6929,0.6991,0.0,0.0,0.0,0.0,0.0,0.0,0.6278,0.6324,0.6325,0.6287,0.618,0.597,0.5607,0.3708,0.2497,0.2072,0.0933,0.0259,0.0,0.0,0.0,0.0,0.0,0.0,0.0,-0.0199,-0.0297,-0.0296,-0.0535,-0.1064,-0.1695,-0.1816,-0.2247,-0.2663,-0.1795,-0.1443,-0.1318,-0.1048,-0.1126,-0.1426,-0.2202,0.0,0.0,0.0,0.0,-0.2371,-0.1442,-0.113,-0.0857,-0.0143,0.0048,0.0095,0.0095,-0.0047,-0.0321,0.0,-0.1356,-0.1948,-0.2536,0.0,0.0,0.0,0.0,-0.2987,-0.3159,-0.3235,-0.3469,-0.4131,-0.4173,-0.4222,-0.4329,-0.4434,-0.4556,-0.4649,-0.4832,-0.493,-0.484,-0.4763,-0.473,-0.4728,0.0,0.0,0.0,0.0,0.0,0.0,0.0,0.0,0.0,0.0,0.0,0.0,0.0,0.0,0.0,0.0,0.0,0.0,0.0,0.0,0.0,0.0,0.0,0.0,0.0,0.0,0.0,0.0,0.0,0.7543,0.7521,0.0,0.0,0.0,0.0,0.7251,0.722,0.7434,0.7968,0.7728,0.7796,0.8148,0.7712,0.7437,0.7283,0.5882,0.4575,0.3308,0.2071,0.0986,0.0,0.0,0.0,0.0,0.0,0.0,0.0,0.0,0.0,-0.005,-0.0302,-0.0453,-0.0504,-0.0504,-0.0504,-0.0504,-0.0202,-0.01,-0.0098,-0.005,-0.0637,-0.1329,-0.156,-0.2145,0.0,0.0,-0.1589,-0.1283,-0.0333,-0.0095,-0.0048,0.0,0.0191,0.0379,0.0372,-0.0185,-0.0461,0.0,0.0268,0.0086,-0.0449,0.0,-0.1007,-0.2414,-0.2634,-0.2892,-0.3667,-0.3645,-0.367,-0.3894,-0.3847,-0.3932,-0.4182,-0.4214,-0.4316,-0.4514,-0.452,-0.4572,-0.472,-0.4599,-0.4512,-0.4528,-0.4571,0.0,0.0,0.0,0.0,0.0,0.0,0.0,0.0,0.0,0.0,0.0,0.0,0.0,0.0,0.0,0.0,0.0,0.0,0.0,0.0,0.0,0.0,0.0,0.0,0.0,0.0,0.0,0.0,0.7596,0.7762,0.0,0.8019,0.7794,0.7804,0.8059,0.8065,0.8206,0.8458,0.8418,0.8337,0.8281,0.8126,0.7824,0.743,0.6073,0.5122,0.4519,0.2543,0.1375,0.1019,0.0304,0.0,0.0,0.0,0.0,0.0,0.0,0.0,0.0,-0.0101,-0.0152,-0.0152,-0.0152,-0.0152,-0.0152,-0.0051,0.0,0.0,0.0,-0.0198,-0.0486,-0.0534,-0.0766,-0.0848,-0.0424,-0.0284,-0.0142,0.0328,0.0468,0.0466,0.046,0.0504,0.0593,0.0581,0.04,0.031,0.0699,0.0174,-0.0384,-0.0401,-0.0359,-0.0474,-0.0911,-0.0956,-0.124,-0.2073,-0.207,-0.2402,-0.3513,-0.3572,-0.3583,-0.3728,-0.3845,-0.395,-0.4089,-0.3869,-0.3741,-0.3813,-0.3792,-0.379,-0.3787,-0.4125,-0.4298,0.0,0.0,0.0,0.0,0.0,0.0,0.0,0.0,0.0,0.0,0.0,0.0,0.0,0.0,0.0,0.0,0.0,0.0,0.0,0.0,0.0,0.0,0.0,0.0,0.0,0.0,0.7696,0.7746,0.7913,0.8114,0.8275,0.8202,0.8278,0.8479,0.8482,0.8526,0.8628,0.8632,0.8528,0.8371,0.8325,0.8049,0.7597,0.6629,0.5804,0.5179,0.3572,0.2367,0.1563,0.0858,0.0353,0.0,0.0351,0.03,0.0,0.0348,0.0297,0.0,0.0,0.0,0.0,0.0,0.0,0.0,0.0,0.005,0.0149,0.0149,0.0197,0.0243,0.0243,0.0241,0.0286,0.0429,0.0522,0.0517,0.065,0.069,0.0683,0.0714,0.0755,0.0795,0.0822,0.0861,0.0941,0.1087,0.0381,-0.0127,0.012,0.0201,0.008,-0.0423,-0.0231,-0.0426,-0.1587,-0.1392,-0.1538,-0.2594,-0.2879,-0.3018,-0.3129,-0.3451,-0.3691,-0.3863,-0.3611,-0.3468,-0.3468,-0.355,-0.3618,-0.3618,-0.4028,-0.4271,-0.4369,0.0,0.0,0.0,0.0,0.0,0.0,0.0,0.0,0.0,0.0,0.0,0.0,0.0,0.0,0.0,0.0,0.0,0.0,0.0,0.0,0.0,0.0,0.0,0.7672,0.7658,0.7799,0.8088,0.8095,0.8159,0.8306,0.8378,0.8385,0.8472,0.8482,0.8482,0.8482,0.8482,0.8479,0.8476,0.8343,0.8163,0.7894,0.7714,0.6839,0.5279,0.5229,0.3974,0.1714,0.1662,0.1058,0.0101,0.1037,0.0882,0.0049,0.1007,0.0857,0.0,0.0,0.0,0.0,0.0,0.0,0.0,0.0,0.0191,0.0429,0.0429,0.0524,0.0715,0.0715,0.0715,0.0715,0.0715,0.0704,0.0693,0.0739,0.0728,0.0713,0.0699,0.087,0.0994,0.1015,0.1178,0.1296,0.1307,0.1159,0.1085,0.1265,0.1301,0.0725,-0.0982,-0.0499,0.0,-0.2304,-0.1736,-0.1191,-0.1226,-0.181,-0.2251,-0.242,-0.3062,-0.3534,-0.373,-0.3725,-0.3692,-0.3696,-0.383,-0.3935,-0.4005,-0.4314,-0.4474,-0.4474,0.0,0.0,0.0,0.0,0.0,0.0,0.0,0.0,0.0,0.0,0.0,0.0,0.0,0.0,0.0,0.0,0.0,0.0,0.0,0.0,0.0,0.9247,0.9144,0.8668,0.9608,1.0354,1.031,1.0482,1.0314,0.9486,0.9535,0.9317,0.8531,0.8482,0.8482,0.8482,0.8482,0.8435,0.8333,0.8344,0.8218,0.7999,0.7716,0.7394,0.6942,0.5782,0.4828,0.4173,0.3126,0.2073,0.1234,0.2079,0.1535,0.0096,0.1002,0.0857,0.0,0.0,0.0,0.0,0.0,0.0145,0.0288,0.0287,0.0429,0.062,0.062,0.0668,0.0715,0.0715,0.0708,0.0746,0.0933,0.1011,0.1037,0.1154,0.1188,0.1177,0.1153,0.1191,0.1225,0.1198,0.1274,0.1306,0.1316,0.1236,0.1239,0.1271,0.1251,0.108,0.0574,0.0711,0.0,-0.0662,-0.0537,-0.077,-0.1889,-0.2154,-0.249,-0.3082,-0.2837,-0.2663,-0.2697,-0.1798,-0.1253,-0.1175,-0.1935,-0.286,-0.3987,-0.4087,-0.414,0.0,0.0,0.0,0.0,0.0,0.0,0.0,0.0,0.0,0.0,0.0,0.0,0.0,0.0,0.0,0.0,0.0,0.0,0.0,0.0,0.0,0.0,1.0378,1.0745,1.0553,1.1002,1.1312,1.1184,1.1333,1.1162,1.0538,1.0174,0.9721,0.9109,0.865,0.8367,0.8299,0.8296,0.8258,0.8177,0.8174,0.813,0.7988,0.7842,0.7693,0.7596,0.6583,0.5763,0.5115,0.4193,0.2951,0.1596,0.2935,0.2394,0.0658,0.163,0.144,0.0,0.0,0.0,0.0,0.0,0.033,0.0517,0.0513,0.0697,0.0883,0.0883,0.093,0.0976,0.0976,0.1014,0.1005,0.1187,0.1215,0.1236,0.1351,0.1381,0.1365,0.1294,0.1288,0.128,0.129,0.1284,0.1319,0.13,0.1286,0.0,0.1277,0.1224,0.1094,0.0709,0.0948,0.086,0.0,0.0245,0.0104,-0.0768,-0.1154,-0.1511,-0.1885,-0.1814,0.0,0.0,0.0,-0.063,-0.0675,-0.1528,0.0,0.0,0.0,0.0,0.0,0.0,0.0,0.0,-0.4353,-0.4342,0.0,0.0,0.0,0.0,0.0,0.0,0.0,0.0,0.0,0.0,0.0,0.0,0.0,0.0,0.0,0.0,1.1419,1.2732,1.2877,1.2096,1.156,1.156,1.156,1.1541,1.1535,1.07,1.0049,0.9801,0.8947,0.8336,0.7998,0.0,0.0,0.0,0.0,0.7988,0.7988,0.7988,0.7882,0.7621,0.7492,0.6685,0.5305,0.5065,0.3742,0.1752,0.3661,0.3308,0.1515,0.2482,0.224,0.1215,0.0373,0.0047,0.0094,0.0325,0.0553,0.0736,0.0767,0.0,0.0,0.1121,0.1256,0.1391,0.1391,0.1391,0.139,0.1386,0.1411,0.1388,0.1382,0.1361,0.1294,0.1305,0.1297,0.129,0.1303,0.1296,0.1295,0.1292,0.123,0.121,0.1202,0.1202,0.0931,0.0146,0.0638,0.0836,0.0139,0.065,0.1057,0.0978,0.0,0.0,-0.0037,-0.0548,-0.0876,-0.0876,-0.0803,-0.0876,-0.1132,-0.1947,-0.2597,-0.3025,-0.3862,-0.4393,-0.462,-0.4631,-0.451,-0.4292,-0.4322,-0.4295,0.0,0.0,0.0,0.0,0.0,0.0,0.0,0.0,0.0,0.0,0.0,0.0,0.0,0.0,0.0,1.1435,1.2283,1.3022,1.3854,1.3806,1.3709,1.3709,1.3709,1.3389,1.2548,1.226,1.1428,0.976,0.9462,0.8958,0.8041,0.7988,0.7988,0.7988,0.7988,0.7988,0.7988,0.7988,0.7928,0.7758,0.0,0.0,0.6771,0.6273,0.5011,0.3432,0.4815,0.4006,0.18,0.2557,0.1972,0.0583,0.0407,0.0318,0.0363,0.0542,0.0812,0.1037,0.1033,0.1166,0.1345,0.1345,0.139,0.1391,0.1391,0.1391,0.0,0.1406,0.1395,0.1379,0.1331,0.1316,0.1303,0.1313,0.1305,0.1304,0.1298,0.1296,0.1289,0.1226,0.1216,0.1196,0.1111,0.1103,0.1065,0.0883,0.1,0.1051,0.0881,0.0998,0.087,0.028,0.0073,-0.0224,-0.0825,-0.045,-0.0188,-0.0188,0.0413,0.0451,-0.0225,-0.113,-0.1956,-0.2697,-0.3572,-0.4082,-0.4118,-0.4238,-0.4276,-0.423,-0.4404,-0.4363,0.0,0.0,0.0,0.0,0.0,0.0,0.0,0.0,0.0,0.0,0.0,0.7186,0.8009,0.0,1.0297,1.1557,1.2753,1.3709,1.4394,1.4496,1.4496,1.4496,1.4496,1.4148,1.3173,1.2635,1.1658,0.9948,0.9312,0.8726,0.8038,0.7988,0.7988,0.7988,0.7988,0.7988,0.7988,0.7988,0.7914,0.7811,0.7599,0.7344,0.7108,0.6739,0.5721,0.4314,0.5526,0.4919,0.3042,0.3042,0.2327,0.121,0.0896,0.0762,0.0762,0.0852,0.1031,0.1256,0.1256,0.13,0.1391,0.1391,0.1391,0.1391,0.1391,0.138,0.141,0.1394,0.1369,0.1339,0.131,0.1292,0.1316,0.13,0.1296,0.1292,0.1277,0.1234,0.1226,0.1195,0.1176,0.1157,0.1091,0.1108,0.1132,0.1201,0.1187,0.1244,0.1344,0.1378,0.1268,0.0892,0.0888,0.0723,0.0269,0.0501,0.0656,0.0656,0.1042,0.1086,0.0667,-0.0682,-0.16,-0.2054,-0.3398,-0.4126,-0.4167,-0.4214,-0.4236,-0.4236,-0.4366,-0.4366,0.0,0.0,0.0,0.0,0.0,0.0,0.0,0.0,0.7047,0.7234,0.7406,0.7573,0.7811,0.9577,1.1067,1.1195,1.298,1.4442,1.4688,1.4592,1.4544,1.4831,1.464,1.4196,1.3559,1.2587,1.1468,1.0149,0.9266,0.8581,0.8187,0.8088,0.8088,0.8088,0.8038,0.7988,0.7988,0.7988,0.7897,0.777,0.7655,0.7413,0.7008,0.6847,0.6124,0.4961,0.5808,0.5542,0.4385,0.3844,0.3041,0.215,0.1658,0.1345,0.1166,0.1166,0.1256,0.1391,0.1391,0.1391,0.1391,0.1391,0.1391,0.1391,0.1391,0.1414,0.1388,0.1383,0.1343,0.1301,0.1295,0.1316,0.1296,0.1296,0.1296,0.1288,0.1218,0.1212,0.1201,0.1201,0.1138,0.1084,0.1113,0.1097,0.115,0.1279,0.1317,0.1389,0.1593,0.164,0.1687,0.1724,0.1729,0.1731,0.1608,0.1415,0.1296,0.1296,0.1296,0.131,0.1301,-0.0449,-0.1457,-0.1516,-0.3311,-0.423,-0.43,-0.43,-0.43,-0.43,-0.43,-0.43,0.6587,0.6778,0.6989,0.7333,0.7476,0.752,0.0,0.0,0.7732,0.7884,0.7914,0.7924,0.7958,0.9723,1.1195,1.1214,1.3125,1.4688,1.4688,1.41,1.4094,1.5255,1.4382,1.3613,1.3511,1.2603,1.1536,1.0458,1.0261,0.9768,0.8775,0.8482,0.8333,0.8333,0.8137,0.7988,0.7988,0.7988,0.785,0.7624,0.7607,0.7402,0.7078,0.6887,0.6346,0.5586,0.5539,0.5267,0.4954,0.509,0.4067,0.2463,0.2643,0.2152,0.1345,0.1345,0.1391,0.1391,0.1391,0.1391,0.1391,0.1391,0.1391,0.1391,0.1391,0.1414,0.1384,0.1317,0.1287,0.1296,0.1309,0.1299,0.1296,0.1296,0.1296,0.1288,0.1218,0.1212,0.1195,0.1137,0.1088,0.1112,0.1085,0.11,0.1142,0.1282,0.1339,0.1465,0.1674,0.1604,0.158,0.1773,0.1697,0.1606,0.1611,0.1415,0.1296,0.1296,0.1296,0.131,0.1301,-0.0497,-0.1481,-0.1516,-0.3358,-0.4289,-0.43,-0.43,-0.43,-0.43,-0.43,-0.43,0.7124,0.7273,0.0,0.0,0.7729,0.7865,0.7899,0.7926,0.7914,0.7975,0.7988,0.7988,0.7988,0.9266,1.0342,0.0,1.2339,1.3661,1.3366,1.3565,1.3752,1.3842,1.2872,1.2393,1.2974,1.264,1.1619,0.9717,0.9665,0.9383,0.8743,0.8481,0.8382,0.8382,0.8137,0.7988,0.7988,0.7901,0.7804,0.7597,0.7509,0.7353,0.7095,0.701,0.6789,0.6476,0.6115,0.6071,0.6157,0.5625,0.5003,0.4247,0.3267,0.2644,0.2196,0.1614,0.1391,0.1391,0.1391,0.1391,0.1391,0.1391,0.1391,0.1387,0.1414,0.1388,0.1317,0.1288,0.13,0.1313,0.13,0.1296,0.1296,0.1296,0.1296,0.1283,0.1196,0.1199,0.1194,0.1097,0.1136,0.1143,0.1166,0.1175,0.125,0.1484,0.1567,0.1687,0.201,0.2037,0.2017,0.2045,0.1757,0.1611,0.1611,0.1415,0.1296,0.1296,0.1314,0.1297,0.1286,0.0042,-0.0865,-0.1412,-0.2807,-0.3762,-0.43,-0.43,-0.43,-0.43,-0.43,-0.43,0.7459,0.0,0.0,0.7648,0.7848,0.7961,0.7899,0.7911,0.8038,0.8088,0.8038,0.8038,0.8187,0.9019,0.9805,1.0051,1.1658,1.2732,1.2339,1.278,1.3022,1.2732,1.1804,1.1512,1.2242,1.2004,1.1118,0.9296,0.9261,0.9182,0.8908,0.8667,0.8528,0.8528,0.8146,0.7928,0.7928,0.7828,0.7682,0.7536,0.7424,0.7288,0.7095,0.7095,0.7095,0.7095,0.6741,0.6786,0.7051,0.6204,0.5805,0.5542,0.3937,0.3135,0.2778,0.1749,0.1391,0.1391,0.1391,0.1391,0.1391,0.1391,0.1385,0.1418,0.1397,0.1365,0.1289,0.1309,0.1281,0.1296,0.1296,0.1296,0.1296,0.1296,0.1296,0.1281,0.1227,0.1196,0.1196,0.1144,0.1151,0.1203,0.1203,0.121,0.1327,0.1659,0.1743,0.1895,0.2286,0.2334,0.227,0.2115,0.1806,0.1611,0.1611,0.1415,0.1296,0.1296,0.1286,0.1316,0.1304,0.0215,-0.0745,-0.1386,-0.2642,-0.3628,-0.43,-0.43,-0.4255,-0.4121,-0.4255,-0.421,0.0,0.0,0.7634,0.777,0.7874,0.7988,0.7985,0.7985,0.8088,0.8333,0.8184,0.8137,0.8676,0.946,1.01,1.0359,1.1473,1.2339,1.229,1.1707,1.1609,1.2581,1.1804,1.1219,0.0,1.0306,0.9673,0.9571,0.9575,0.9575,0.9571,0.9072,0.8775,0.8775,0.8136,0.7818,0.7818,0.7678,0.7529,0.7426,0.7419,0.7288,0.7095,0.7095,0.7095,0.7095,0.7095,0.7095,0.7095,0.7051,0.6517,0.5586,0.4645,0.3712,0.2778,0.1749,0.1391,0.1391,0.1391,0.1391,0.1391,0.1391,0.1415,0.1391,0.1391,0.135,0.1303,0.1303,0.1281,0.1296,0.1296,0.1296,0.1296,0.1296,0.1296,0.1288,0.1217,0.1211,0.1202,0.1208,0.1202,0.1203,0.1203,0.1191,0.1324,0.1741,0.1854,0.2021,0.2349,0.2276,0.2117,0.1925,0.1729,0.1611,0.1611,0.1415,0.1296,0.1296,0.1286,0.1316,0.1304,-0.0472,-0.1445,-0.1386,-0.3267,-0.4253,-0.43,-0.43,-0.4076,-0.3631,-0.4076,-0.4076,0.0,0.0,0.8024,0.8171,0.8343,0.8531,0.8531,0.8531,0.8577,0.8627,0.8432,0.8333,0.8478,0.8775,0.9019,0.927,1.044,1.1126,1.0596,1.0935,1.1077,1.0694,1.0355,0.0,0.0,0.0,0.0,0.955,0.9559,0.9575,0.9453,0.9215,0.8981,0.8825,0.8428,0.8059,0.7814,0.7672,0.7522,0.7415,0.717,0.7099,0.7092,0.7001,0.7007,0.7095,0.7095,0.7095,0.7095,0.7095,0.6918,0.6517,0.5583,0.505,0.4552,0.2908,0.2325,0.2237,0.1624,0.135,0.1334,0.1334,0.1327,0.1316,0.1338,0.1318,0.1299,0.1318,0.1305,0.1296,0.1296,0.1296,0.1296,0.1296,0.1296,0.1288,0.1218,0.1228,0.1271,0.1202,0.125,0.1265,0.1265,0.1274,0.1397,0.1825,0.211,0.2348,0.2444,0.2187,0.1963,0.1926,0.1611,0.1415,0.1415,0.1335,0.1305,0.1286,0.1316,0.1304,0.1374,0.0745,-0.0133,-0.1387,-0.2058,-0.2998,-0.43,-0.43,-0.421,-0.4076,-0.421,-0.421,0.7622,0.7947,0.8247,0.8492,0.8676,0.8825,0.8825,0.8825,0.8806,0.8849,0.8596,0.8381,0.8466,0.8506,0.8547,0.8837,0.9719,1.0203,0.9677,1.0207,1.035,0.9673,0.9579,0.9579,0.0,0.0,0.0,0.951,0.9559,0.9575,0.9458,0.9219,0.8977,0.8825,0.8375,0.8056,0.7814,0.7614,0.7414,0.721,0.7021,0.6933,0.7018,0.6977,0.7011,0.7095,0.7095,0.7095,0.7095,0.7095,0.7095,0.7007,0.6074,0.5719,0.5484,0.3887,0.3063,0.2658,0.1718,0.1321,0.1305,0.1305,0.1299,0.1286,0.1309,0.1295,0.1282,0.1303,0.1296,0.1296,0.1296,0.1296,0.1296,0.1296,0.1296,0.1291,0.1232,0.1282,0.1291,0.1232,0.1283,0.1296,0.1296,0.1415,0.1572,0.1768,0.2119,0.2392,0.2392,0.212,0.1887,0.1808,0.1493,0.1296,0.1296,0.1296,0.131,0.1301,0.129,0.1318,0.1388,0.1064,0.0179,-0.1387,-0.1387,-0.2371,-0.43,-0.3985,-0.3898,-0.4032,-0.421,-0.421,0.7869,0.8124,0.8326,0.8712,0.8799,0.8799,0.8799,0.8799,0.8852,0.8991,0.8579,0.8295,0.0,0.0,0.8687,0.8975,0.9315,0.9579,0.9579,0.9579,0.9579,0.0,0.0,0.0,0.0,0.0,0.0,0.9579,0.0,0.9579,0.9579,0.9126,0.8825,0.8825,0.8181,0.7807,0.7801,0.7506,0.7221,0.6896,0.6889,0.6889,0.6903,0.7028,0.7088,0.7095,0.7095,0.7095,0.7095,0.7095,0.7095,0.7007,0.6118,0.5761,0.5653,0.4578,0.3628,0.2765,0.172,0.1343,0.1302,0.1302,0.1282,0.13,0.13,0.128,0.1296,0.1296,0.1296,0.1296,0.1296,0.1296,0.1296,0.1296,0.1296,0.1296,0.1296,0.1296,0.1296,0.1296,0.1296,0.1296,0.1296,0.1611,0.1808,0.1611,0.1923,0.2196,0.2196,0.2003,0.1808,0.1611,0.1415,0.1296,0.1296,0.1298,0.1312,0.1303,0.1292,0.132,0.1391,0.0532,-0.0403,-0.1387,-0.1387,-0.2371,-0.43,-0.3403,-0.3181,-0.3631,-0.4076,-0.4076,0.7703,0.818,0.86,0.8685,0.889,0.9041,0.9041,0.889,0.878,0.9032,0.8643,0.8342,0.0,0.0,0.0,0.8972,0.9315,0.0,0.9579,0.9579,0.0,0.9579,0.0,0.9579,0.9579,0.9579,0.0,0.0,0.9579,0.9579,0.9579,0.948,0.9225,0.8825,0.8526,0.8147,0.7655,0.735,0.7119,0.7041,0.6937,0.694,0.7041,0.697,0.6997,0.7095,0.7095,0.7095,0.7095,0.7095,0.7095,0.7095,0.683,0.6677,0.6485,0.5492,0.4914,0.4365,0.2731,0.1799,0.128,0.128,0.1314,0.1308,0.1308,0.1303,0.1296,0.1296,0.1296,0.1296,0.1296,0.1296,0.1296,0.1296,0.1296,0.1296,0.1296,0.1296,0.1296,0.1296,0.1296,0.1296,0.1296,0.1493,0.165,0.1611,0.1807,0.1963,0.1963,0.1807,0.165,0.1611,0.1415,0.1296,0.1296,0.1318,0.1304,0.1292,0.1363,0.1393,0.1378,0.1163,0.0269,-0.1387,-0.1387,-0.2371,-0.43,-0.4074,-0.3987,-0.4121,-0.4255,-0.4255,0.7804,0.8214,0.857,0.866,0.8804,0.8901,0.8901,0.8761,0.8645,0.8898,0.8513,0.0,0.0,0.0,0.0,0.0,0.0,0.0,0.9579,0.9579,0.9579,0.0,0.9579,0.0,0.9579,0.9579,0.9579,0.0,0.9579,0.9579,0.9579,0.948,0.9229,0.8825,0.8578,0.8145,0.7502,0.7261,0.7065,0.7004,0.6923,0.6927,0.7004,0.6987,0.7021,0.7095,0.0,0.7095,0.7095,0.7095,0.7095,0.7095,0.7095,0.7011,0.6823,0.6248,0.5656,0.5047,0.3986,0.3054,0.2273,0.1531,0.1296,0.1296,0.1296,0.1296,0.1296,0.1296,0.1296,0.1296,0.1296,0.1296,0.1296,0.1296,0.1296,0.1296,0.1296,0.1296,0.1296,0.1296,0.1296,0.1296,0.1296,0.1454,0.1572,0.1493,0.165,0.1729,0.165,0.1611,0.1572,0.1493,0.1375,0.1302,0.1316,0.1293,0.1321,0.1321,0.1381,0.1403,0.1389,0.0987,0.0269,-0.0761,-0.1208,-0.2148,-0.3673,-0.3673,-0.3896,-0.43,-0.43,-0.43,0.7891,0.8123,0.832,0.8548,0.8594,0.8594,0.8594,0.8413,0.8375,0.8635,0.0,0.784,0.8095,0.8284,0.8454,0.8656,0.0,0.96,0.9575,0.9579,0.9579,0.9579,0.9579,0.9579,0.9579,0.9579,0.9579,0.9579,0.9579,0.9579,0.9579,0.9385,0.911,0.8762,0.8319,0.7863,0.7343,0.7207,0.7034,0.6913,0.6913,0.6913,0.6916,0.7041,0.7095,0.7095,0.7095,0.7095,0.7095,0.7095,0.7095,0.7095,0.7095,0.7011,0.6869,0.678,0.6169,0.5331,0.5103,0.4545,0.3677,0.2,0.1453,0.1453,0.1335,0.1296,0.1296,0.1296,0.1296,0.1296,0.1296,0.1296,0.1296,0.1296,0.1296,0.1296,0.1296,0.1296,0.1296,0.1296,0.1296,0.1296,0.1296,0.1454,0.1493,0.1335,0.1454,0.1493,0.1335,0.1454,0.1495,0.1303,0.1303,0.1316,0.1306,0.1312,0.1336,0.1386,0.1394,0.1408,0.1389,0.0628,0.009,-0.0179,-0.0985,-0.197,-0.3092,-0.3092,-0.3494,-0.43,-0.43,-0.43,0.759,0.7786,0.7982,0.8027,0.8027,0.8027,0.8027,0.7853,0.0,0.0,0.0,0.7624,0.7904,0.8237,0.0,0.8683,0.0,0.0,0.0,0.0,0.9579,0.0,0.0,0.0,0.0,0.0,0.0,0.0,0.0,0.9579,0.9579,0.9579,0.9198,0.8481,0.7852,0.7409,0.7139,0.7109,0.7085,0.7058,0.7058,0.7058,0.7061,0.7085,0.7095,0.7095,0.7095,0.0,0.7095,0.7095,0.7095,0.7095,0.7095,0.7011,0.6883,0.6856,0.6629,0.6187,0.5442,0.501,0.4535,0.2821,0.2276,0.2158,0.1492,0.1296,0.1296,0.1296,0.1296,0.1296,0.1296,0.1296,0.1296,0.1296,0.1296,0.1296,0.1296,0.1296,0.1296,0.1296,0.1296,0.1296,0.1296,0.1335,0.1335,0.1296,0.1335,0.1335,0.1296,0.1335,0.1346,0.1292,0.1294,0.1307,0.1296,0.1361,0.1379,0.1389,0.1414,0.1385,0.139,0.1256,0.0448,-0.1119,-0.1298,-0.2282,-0.4074,-0.4074,-0.4119,-0.43,-0.43,-0.4433,0.7349,0.7595,0.768,0.768,0.768,0.7544,0.7095,0.0,0.0,0.0,0.0,0.6877,0.7893,0.0,0.0,0.0,0.0,0.0,0.0,0.0,0.0,0.0,0.0,0.0,0.0,0.0,0.0,0.0,0.0,0.9579,0.9579,0.9245,0.8844,0.8275,0.7685,0.7295,0.7098,0.7095,0.7095,0.7095,0.7095,0.7095,0.7095,0.7095,0.7095,0.7095,0.7095,0.7095,0.7095,0.7095,0.7095,0.7095,0.7095,0.7011,0.6876,0.6841,0.6668,0.6381,0.543,0.5053,0.474,0.3097,0.2534,0.2354,0.1532,0.1296,0.1296,0.1296,0.1296,0.1296,0.1296,0.1296,0.1296,0.1296,0.1296,0.1296,0.1296,0.1296,0.1296,0.1296,0.1296,0.1296,0.1296,0.131,0.1281,0.1281,0.1294,0.1304,0.1304,0.1304,0.1304,0.1303,0.1317,0.1296,0.1367,0.1382,0.1397,0.1412,0.1383,0.1391,0.1391,0.0942,0.0493,0.0045,-0.1432,-0.2372,-0.2774,-0.3805,-0.43,-0.43,-0.4433,-0.4569,0.6536,0.681,0.6833,0.6833,0.6833,0.6609,0.5891,0.5536,0.0,0.0,0.5667,0.5805,0.7132,0.0,0.0,0.0,0.0,0.0,0.0,0.0,0.0,0.0,0.0,0.0,0.0,0.0,0.0,0.0,0.0,0.0,0.9567,0.8918,0.8404,0.8117,0.7612,0.7261,0.7098,0.7095,0.7095,0.7095,0.7095,0.7095,0.7095,0.7095,0.7095,0.7095,0.7095,0.0,0.7095,0.7095,0.7095,0.7095,0.7095,0.7028,0.6916,0.6841,0.6592,0.6183,0.5382,0.4965,0.4508,0.3079,0.2575,0.2373,0.1552,0.1317,0.1317,0.1317,0.1312,0.1307,0.1307,0.1302,0.1296,0.1296,0.1296,0.1298,0.1305,0.1307,0.1308,0.1315,0.1317,0.1317,0.1317,0.1296,0.1312,0.1312,0.1291,0.1305,0.1305,0.1311,0.1305,0.1324,0.1301,0.1326,0.1397,0.1399,0.141,0.1389,0.1391,0.1391,0.1391,0.0673,0.0538,0.1076,-0.1343,-0.2283,-0.1745,-0.3446,-0.43,-0.43,-0.4569,-0.4703,0.4465,0.4533,0.4601,0.4601,0.4601,0.4556,0.4467,0.0,0.0,0.4465,0.4465,0.4465,0.4643,0.5716,0.0,0.0,0.0,0.0,0.0,0.0,0.0,0.0,0.0,0.0,0.0,0.0,0.0,0.0,0.0,0.0,0.9429,0.8784,0.8331,0.8113,0.7461,0.7109,0.7095,0.7095,0.7095,0.7095,0.7095,0.7095,0.7095,0.7095,0.7095,0.7095,0.7095,0.0,0.0,0.7095,0.7095,0.7095,0.7095,0.7088,0.7075,0.7061,0.6441,0.5563,0.5495,0.476,0.377,0.2905,0.2595,0.2436,0.1579,0.1298,0.1298,0.1298,0.132,0.1299,0.1299,0.1318,0.1296,0.1296,0.1296,0.1305,0.1292,0.1299,0.1307,0.1292,0.1298,0.1298,0.1298,0.13,0.1302,0.1302,0.1304,0.1305,0.1305,0.137,0.1385,0.1382,0.1384,0.1398,0.1384,0.1386,0.1387,0.139,0.1391,0.1391,0.1391,0.13,0.0897,0.0134,-0.0985,-0.1925,-0.2777,-0.3807,-0.43,-0.43,-0.4569,-0.4792,0.4118,0.4261,0.4289,0.4289,0.4289,0.4156,0.3578,0.0,0.3446,0.3446,0.3446,0.3667,0.4334,0.5087,0.5539,0.0,0.0,0.0,0.0,0.0,0.0,0.0,0.0,0.0,0.0,0.0,0.0,0.0,0.0,0.0,0.921,0.8567,0.8124,0.8005,0.7398,0.7095,0.7095,0.7095,0.7095,0.7095,0.7095,0.7095,0.7095,0.7095,0.7095,0.7095,0.7095,0.0,0.0,0.7095,0.7095,0.7095,0.7095,0.7095,0.7085,0.7001,0.6371,0.5419,0.4803,0.3944,0.2948,0.2126,0.1874,0.1817,0.1433,0.1305,0.1305,0.1305,0.1298,0.1288,0.1288,0.128,0.1307,0.1289,0.1299,0.1315,0.1286,0.1288,0.1292,0.1304,0.1305,0.1305,0.1305,0.1319,0.1373,0.1373,0.1345,0.1356,0.1356,0.1366,0.1417,0.1417,0.1417,0.1422,0.1389,0.1391,0.1391,0.1391,0.1391,0.1391,0.1391,0.1391,0.1211,0.0852,-0.0224,-0.1254,-0.2238,-0.3357,-0.4162,-0.4743,-0.5015,-0.5149,0.3222,0.3412,0.3443,0.3443,0.3443,0.3264,0.0,0.0,0.2464,0.2464,0.2464,0.2688,0.3489,0.4156,0.4542,0.0,0.0,0.0,0.0,0.0,0.0,0.0,0.0,0.0,0.0,0.0,0.0,0.0,0.0,0.0,0.8211,0.7541,0.7386,0.7904,0.7363,0.7095,0.7095,0.7095,0.7095,0.7095,0.7095,0.7095,0.7095,0.7095,0.7095,0.7095,0.7095,0.0,0.0,0.7095,0.7095,0.7095,0.7095,0.7095,0.7041,0.6679,0.5918,0.4968,0.403,0.3066,0.217,0.1567,0.1403,0.1399,0.1337,0.1331,0.1331,0.1331,0.1325,0.1316,0.1308,0.1305,0.1301,0.128,0.129,0.1308,0.1316,0.1317,0.132,0.1329,0.1331,0.1331,0.1331,0.139,0.1403,0.1403,0.1422,0.1391,0.1391,0.1391,0.1391,0.13,0.1345,0.1391,0.1391,0.1391,0.1391,0.1391,0.1391,0.1391,0.1391,0.1391,0.139,0.13,0.0179,-0.0896,-0.1879,-0.3041,-0.4071,-0.501,-0.528,-0.5434,0.1349,0.1391,0.1436,0.1436,0.1436,0.1436,0.0,0.1436,0.1436,0.1436,0.1436,0.1436,0.1436,0.2642,0.3291,0.2398,0.0,0.0,0.0,0.0,0.0,0.0,0.0,0.0,0.0,0.0,0.0,0.0,0.0,0.0,0.612,0.5433,0.5935,0.7856,0.7363,0.7095,0.7095,0.7095,0.7095,0.7095,0.7095,0.7095,0.7095,0.7095,0.7095,0.7095,0.0,0.0,0.0,0.7095,0.7095,0.7095,0.7095,0.7095,0.7007,0.6074,0.5068,0.4078,0.3198,0.2252,0.1395,0.1425,0.139,0.139,0.139,0.1389,0.1389,0.1389,0.1412,0.1383,0.1313,0.1305,0.1305,0.1305,0.1305,0.1313,0.1384,0.139,0.1398,0.1384,0.1389,0.1389,0.1389,0.139,0.139,0.139,0.139,0.1391,0.1391,0.1391,0.1345,0.1121,0.13,0.1391,0.1391,0.1391,0.1391,0.1391,0.1391,0.1391,0.1391,0.1391,0.13,0.1121,0.0134,-0.0941,-0.2104,-0.3132,-0.4071,-0.501,-0.528,-0.5565,0.1305,0.1347,0.1385,0.141,0.142,0.1391,0.1391,0.1391,0.1391,0.1391,0.1391,0.1391,0.1391,0.1928,0.2359,0.2256,0.3129,0.0,0.0,0.0,0.0,0.0,0.0,0.0,0.0,0.0,0.0,0.0,0.0,0.0,0.6051,0.5509,0.5708,0.6833,0.6384,0.6428,0.7095,0.7095,0.7095,0.7095,0.7095,0.7095,0.7095,0.7095,0.7095,0.0,0.0,0.7095,0.7095,0.7095,0.7095,0.7095,0.7095,0.6697,0.6118,0.5808,0.4674,0.3282,0.2994,0.2231,0.1378,0.1387,0.1391,0.1391,0.1391,0.1391,0.1391,0.1391,0.1383,0.1414,0.1384,0.1348,0.1358,0.1382,0.1349,0.1366,0.1374,0.1421,0.1379,0.1389,0.1391,0.1391,0.1391,0.1391,0.1391,0.1391,0.1391,0.1345,0.1211,0.1211,0.1121,0.0852,0.0863,0.0911,0.0943,0.1076,0.1121,0.0942,0.0942,0.0942,0.0942,0.0942,0.0897,0.0807,-0.0313,-0.1387,-0.2369,-0.3534,-0.4567,-0.5463,-0.5674,-0.5778,0.0,0.1339,0.1416,0.1409,0.1421,0.1391,0.1391,0.1391,0.1391,0.1391,0.1391,0.1391,0.1391,0.1705,0.2041,0.2206,0.2609,0.0,0.0,0.0,0.0,0.0,0.0,0.0,0.0,0.0,0.0,0.0,0.0,0.0,0.4892,0.4393,0.4486,0.5317,0.5583,0.5985,0.6564,0.6918,0.7095,0.7095,0.7095,0.7095,0.7095,0.7095,0.7095,0.0,0.7095,0.7095,0.0,0.6738,0.6564,0.6517,0.6204,0.5669,0.5137,0.4783,0.3892,0.2867,0.2465,0.1928,0.1391,0.1391,0.1391,0.1391,0.1391,0.1391,0.1391,0.1391,0.1391,0.1386,0.1412,0.1421,0.1385,0.1412,0.1422,0.1391,0.1391,0.1391,0.1391,0.1391,0.1391,0.1391,0.1391,0.1391,0.1391,0.1391,0.1391,0.1345,0.1121,0.1121,0.099,0.0635,0.0643,0.0646,0.0459,0.0735,0.0872,0.0689,0.0689,0.0686,0.0681,0.0681,0.0678,0.0583,-0.0135,-0.1041,-0.2081,-0.365,-0.4836,-0.5801,-0.5918,-0.5996,0.0,0.1371,0.1399,0.1381,0.1389,0.1391,0.1391,0.1391,0.0,0.1391,0.1391,0.1391,0.1393,0.1843,0.2175,0.2177,0.2691,0.0,0.0,0.0,0.0,0.0,0.0,0.0,0.0,0.0,0.0,0.0,0.0,0.0,0.2955,0.2493,0.2599,0.3446,0.4783,0.5542,0.5586,0.6473,0.6915,0.6915,0.6915,0.6915,0.6915,0.6915,0.6915,0.0,0.6915,0.6915,0.6827,0.5941,0.5586,0.5494,0.4645,0.4245,0.4111,0.3223,0.2867,0.2644,0.1704,0.1391,0.1391,0.1391,0.1391,0.1391,0.1391,0.1391,0.1391,0.1391,0.1391,0.1391,0.1391,0.1391,0.1391,0.1391,0.1391,0.1391,0.1391,0.1391,0.1391,0.1391,0.1391,0.1391,0.1391,0.1391,0.1391,0.1391,0.1391,0.13,0.1076,0.1076,0.0859,0.0415,0.0556,0.0467,0.0048,0.043,0.0668,0.0668,0.0668,0.0662,0.065,0.0648,0.055,0.036,0.0229,-0.0416,-0.1618,-0.3626,-0.5083,-0.5918,-0.6043,-0.6159,0.1333,0.0,0.1421,0.1405,0.1418,0.1391,0.0,0.1391,0.1391,0.0,0.0,0.1397,0.1466,0.1746,0.1999,0.2023,0.2527,0.0,0.0,0.0,0.0,0.0,0.0,0.0,0.0,0.0,0.0,0.0,0.0,0.2908,0.2624,0.234,0.2199,0.2241,0.309,0.3892,0.4601,0.4868,0.4956,0.4956,0.4956,0.4956,0.4956,0.4956,0.4956,0.4956,0.4956,0.4956,0.4956,0.4734,0.4645,0.4601,0.4376,0.3844,0.3224,0.3001,0.2419,0.1704,0.148,0.1391,0.1391,0.1391,0.1391,0.1391,0.1391,0.1391,0.1391,0.1391,0.1391,0.1391,0.1391,0.1391,0.1391,0.1391,0.1391,0.1391,0.1391,0.1391,0.1391,0.1391,0.1391,0.1391,0.1391,0.1391,0.1391,0.1391,0.1256,0.1076,0.0807,0.0673,0.0452,0.0138,0.0141,0.0143,0.0,0.0289,0.0381,0.0191,0.0143,0.0143,0.0142,0.0187,0.0138,0.0092,-0.1427,-0.2741,-0.3774,-0.5072,-0.5832,-0.6045,-0.6168,-0.6289,0.1318,0.1378,0.139,0.1432,0.1444,0.1456,0.1456,0.0,0.0,0.0,0.0,0.0,0.1659,0.0,0.0,0.2369,0.2713,0.0,0.0,0.0,0.0,0.0,0.0,0.0,0.0,0.0,0.0,0.0,0.0,0.2706,0.2516,0.2199,0.193,0.1794,0.2062,0.2688,0.3667,0.4067,0.4289,0.4289,0.4289,0.4289,0.4289,0.4289,0.4289,0.4289,0.4289,0.4289,0.4287,0.3846,0.3667,0.3623,0.3132,0.2642,0.2196,0.2196,0.1883,0.1391,0.1391,0.1391,0.1391,0.13,0.1345,0.1345,0.1166,0.1211,0.1391,0.1391,0.1391,0.1391,0.1391,0.1391,0.1391,0.1391,0.1391,0.1391,0.1391,0.1391,0.1391,0.1391,0.1446,0.1456,0.1456,0.1468,0.1384,0.1292,0.1154,0.0969,0.06,0.0461,0.0279,0.0047,0.0,0.0,0.0,0.0148,0.0147,0.0,0.0,0.0,0.0,0.0,0.0,0.0,-0.1087,-0.2336,-0.3804,-0.4471,-0.525,-0.6173,-0.629,-0.6344,0.1351,0.1401,0.1408,0.147,0.1477,0.148,0.0,0.0,0.0,0.0,0.0,0.0,0.0,0.0,0.0,0.0,0.0,0.0,0.0,0.0,0.0,0.0,0.0,0.0,0.0,0.0,0.0,0.0,0.0,0.2561,0.2471,0.2019,0.1794,0.1749,0.1525,0.1793,0.2644,0.3444,0.3844,0.3844,0.3844,0.3844,0.3844,0.3844,0.3844,0.3844,0.0,0.0,0.3799,0.2999,0.2689,0.2598,0.1749,0.1391,0.1391,0.1391,0.1391,0.1391,0.1391,0.1391,0.1345,0.1166,0.1211,0.1256,0.0852,0.0987,0.13,0.1345,0.139,0.1391,0.1391,0.1391,0.1391,0.1391,0.1391,0.1391,0.1391,0.1391,0.1392,0.1396,0.1463,0.1482,0.1487,0.1462,0.1383,0.1144,0.1049,0.0858,0.0429,0.0381,0.024,0.0,0.0,0.0,0.0,0.0,0.0,0.0,0.0,0.0,0.0,0.0,0.0,0.0,-0.0146,-0.1178,-0.3048,-0.3297,-0.4445,-0.6295,-0.6391,-0.6387,0.1421,0.1493,0.1454,0.1408,0.1461,0.1474,0.0,0.0,0.0,0.0,0.0,0.0,0.0,0.0,0.0,0.0,0.0,0.0,0.0,0.0,0.0,0.0,0.0,0.0,0.0,0.0,0.0,0.0,0.0,0.2432,0.2244,0.1974,0.1705,0.148,0.1436,0.148,0.1614,0.1792,0.1837,0.1837,0.1837,0.1837,0.1837,0.1837,0.1837,0.1837,0.0,0.1837,0.1837,0.1704,0.1614,0.1614,0.148,0.1391,0.1391,0.1391,0.1391,0.1391,0.1391,0.1391,0.1345,0.1166,0.1121,0.1076,0.0807,0.0762,0.0852,0.1076,0.1256,0.1391,0.1391,0.1391,0.1391,0.1391,0.1391,0.1391,0.1391,0.1391,0.1398,0.1469,0.1478,0.1489,0.1515,0.1332,0.1144,0.1097,0.0763,0.0477,0.0429,0.0191,0.0048,0.0,0.0,0.0,0.0,0.0,0.0,0.0,0.0,0.0,0.0,0.0,0.0,0.0,-0.0881,-0.1975,-0.316,-0.4124,-0.5177,-0.6363,-0.6379,-0.6387,0.1362,0.1491,0.1515,0.1471,0.1495,0.1526,0.0,0.0,0.0,0.0,0.0,0.0,0.0,0.0,0.0,0.0,0.0,0.0,0.0,0.0,0.0,0.0,0.0,0.0,0.0,0.0,0.0,0.0,0.0,0.0,0.2199,0.1794,0.1525,0.1391,0.1391,0.1391,0.1391,0.1391,0.1391,0.1391,0.1391,0.1391,0.1391,0.1391,0.1391,0.1391,0.0,0.1391,0.1391,0.1391,0.1391,0.1391,0.1391,0.1391,0.1391,0.1256,0.1166,0.1031,0.1166,0.1121,0.0987,0.0897,0.0897,0.0852,0.0628,0.0718,0.0897,0.0897,0.1076,0.1256,0.139,0.1391,0.1391,0.1391,0.1391,0.1391,0.1391,0.1391,0.1395,0.1453,0.1483,0.1463,0.1285,0.1213,0.1033,0.0787,0.0541,0.0344,0.0197,0.0098,0.0,0.0,0.0,0.0,0.0,0.0,0.0,0.0,0.0,0.0,0.0,0.0,0.0,0.0,-0.104,-0.2148,-0.3224,-0.428,-0.5336,-0.6387,-0.6387,-0.6387,0.1308,0.148,0.1511,0.1495,0.0,0.1561,0.0,0.0,0.0,0.0,0.0,0.0,0.0,0.0,0.0,0.0,0.0,0.0,0.0,0.0,0.0,0.0,0.0,0.0,0.0,0.0,0.0,0.0,0.0,0.0,0.2199,0.1705,0.1391,0.1391,0.1391,0.1391,0.1391,0.1391,0.1391,0.1391,0.1391,0.1391,0.1391,0.1391,0.1391,0.1391,0.1391,0.1391,0.1391,0.1391,0.1391,0.1391,0.1391,0.1391,0.139,0.1166,0.0987,0.0807,0.0942,0.0852,0.0673,0.0628,0.0628,0.0583,0.0448,0.0673,0.0897,0.0807,0.0942,0.1121,0.13,0.1345,0.1391,0.1391,0.1391,0.1391,0.1391,0.1391,0.1393,0.1354,0.135,0.1337,0.1055,0.1037,0.0859,0.0455,0.0354,0.0253,0.0051,0.0,0.0,0.0,0.0,0.0,0.0,0.0,0.0,0.0,0.0,0.0,0.0,0.0,0.0,0.0,-0.0801,-0.1865,-0.3224,-0.4029,-0.5083,-0.6387,-0.6387,-0.6387,0.1424,0.148,0.149,0.1516,0.0,0.0,0.0,0.0,0.0,0.0,0.0,0.0,0.0,0.0,0.0,0.0,0.0,0.0,0.0,0.0,0.0,0.0,0.0,0.0,0.0,0.0,0.0,0.0,0.0,0.0,0.2199,0.1705,0.1391,0.1391,0.1391,0.1391,0.1391,0.1391,0.1391,0.1391,0.1391,0.1391,0.1391,0.1391,0.1391,0.1391,0.1391,0.1391,0.1391,0.1391,0.1391,0.1391,0.1391,0.1391,0.139,0.1166,0.1076,0.1031,0.0807,0.0718,0.0673,0.0493,0.0403,0.0403,0.0403,0.0403,0.0538,0.0942,0.1076,0.1121,0.1121,0.1256,0.1391,0.1391,0.1391,0.1391,0.1391,0.1391,0.1353,0.115,0.1127,0.1055,0.0879,0.0598,0.0455,0.0404,0.0202,0.0,0.0,0.0,0.0,0.0,0.0,0.0,0.0,0.0,0.0,0.0,0.0,0.0,0.0,0.0,0.0,0.0,-0.0101,-0.111,-0.3224,-0.3274,-0.4377,-0.6387,-0.6387,-0.6387,0.1313,0.148,0.1512,0.1523,0.0,0.0,0.0,0.0,0.0,0.0,0.0,0.0,0.0,0.0,0.0,0.0,0.0,0.0,0.0,0.0,0.0,0.0,0.0,0.0,0.0,0.0,0.0,0.0,0.0,0.0,0.1076,0.0718,0.0538,0.0538,0.1076,0.1391,0.1391,0.1391,0.1391,0.1391,0.1391,0.1391,0.1391,0.1391,0.1391,0.1391,0.1391,0.1391,0.1391,0.1391,0.1391,0.1391,0.1391,0.1211,0.0942,0.0897,0.0673,0.0404,0.0493,0.0404,0.0269,0.0359,0.0269,0.018,0.0359,0.0403,0.0448,0.0628,0.0762,0.0897,0.1211,0.1345,0.1391,0.1391,0.1391,0.1391,0.1391,0.1391,0.1399,0.1336,0.1223,0.1055,0.0832,0.0598,0.0354,0.0152,0.0051,0.0,0.0,0.0,0.0,0.0,0.0,0.0,0.0,0.0,0.0,0.0,0.0,0.0,0.0,0.0,0.0,0.0,-0.0656,-0.1714,-0.3224,-0.3879,-0.4933,-0.6387,-0.6589,-0.6642,0.1313,0.148,0.1514,0.0,0.0,0.0,0.0,0.0,0.0,0.0,0.0,0.0,0.0,0.0,0.0,0.0,0.0,0.0,0.0,0.0,0.0,0.0,0.0,0.0,0.0,0.0,0.0,0.0,0.0,0.0,0.0,-0.0314,-0.0314,0.0,0.0628,0.1121,0.1391,0.1391,0.1391,0.1391,0.1391,0.1391,0.1391,0.1391,0.1391,0.1391,0.1391,0.1391,0.1391,0.1391,0.1391,0.1391,0.1391,0.1211,0.0897,0.0852,0.0583,0.0224,0.0359,0.0224,0.0045,0.0224,0.0135,0.0045,0.0314,0.0403,0.0403,0.0493,0.0583,0.0807,0.1211,0.13,0.1348,0.1402,0.145,0.1453,0.1416,0.1418,0.1378,0.1304,0.1139,0.0918,0.0588,0.0399,0.0202,0.0051,0.0,0.0,0.0,0.0,0.0,0.0,0.0,0.0,0.0,0.0,0.0,0.0,0.0,0.0,0.0,0.0,0.0,0.0,-0.0706,-0.1815,-0.3224,-0.3927,-0.5033,-0.6387,-0.6692,-0.6795,0.1387,0.148,0.0,0.0,0.0,0.0,0.0,0.0,0.0,0.0,0.0,0.0,0.0,0.0,0.0,0.0,0.0,0.0,0.0,0.0,0.0,0.0,0.0,0.0,0.0,0.0,0.0,0.0,0.0,0.0,0.0,-0.1297,-0.0985,-0.0045,0.0,0.0448,0.1391,0.1391,0.1391,0.1391,0.1391,0.1391,0.1391,0.1391,0.1391,0.1391,0.1391,0.1391,0.1391,0.1391,0.1391,0.1391,0.1391,0.1391,0.139,0.1166,0.0942,0.0673,0.0448,0.0224,0.0,0.0,0.0,0.0045,0.0314,0.0404,0.0448,0.0628,0.0673,0.0763,0.1032,0.1077,0.1173,0.1428,0.148,0.1489,0.1519,0.1478,0.1383,0.0906,0.0824,0.0638,0.0098,0.0,0.0,0.0,0.0,0.0,0.0,0.0,0.0,0.0,0.0,0.0,0.0,0.0,0.0,0.0,0.0,0.0,0.0,0.0,0.0,0.0,0.0,-0.1059,-0.3173,-0.3173,-0.4277,-0.6387,-0.6692,-0.6795,0.1294,0.1463,0.0,0.0,0.0,0.0,0.0,0.0,0.0,0.0,0.0,0.0,0.0,0.0,0.0,0.0,0.0,0.0,0.0,0.0,0.0,0.0,0.0,0.0,0.0,0.0,0.0,0.0,0.0,0.0,0.0,-0.2418,-0.2329,-0.206,-0.0717,0.0134,0.0403,0.1076,0.1391,0.1391,0.1391,0.1391,0.1391,0.1391,0.1391,0.1391,0.1391,0.1391,0.1391,0.1391,0.1391,0.1391,0.1391,0.1211,0.0897,0.0852,0.0538,0.018,0.0135,0.0045,0.0,0.0,0.0,0.0,0.0092,0.0139,0.014,0.0184,0.0185,0.0281,0.0515,0.0749,0.0982,0.1391,0.148,0.1489,0.1519,0.1335,0.1245,0.1359,0.0929,0.0542,0.055,0.0252,0.0,0.0,0.0,0.0,0.0,0.0,0.0,0.0,0.0,0.0,0.0,0.0,0.0,0.0,0.0,0.0,0.0,0.0,0.0,0.0,0.0,-0.0707,-0.2066,-0.2821,-0.4026,-0.5582,-0.6587,-0.7191,0.1328,0.0,0.0,0.0,0.0,0.0,0.0,0.0,0.0,0.0,0.0,0.0,0.0,0.0,0.0,0.0,0.0,0.0,0.0,0.0,0.0,0.0,0.0,0.0,0.0,0.0,0.0,0.0,0.0,0.0,0.0,-0.3449,-0.3269,-0.2911,-0.1388,-0.0358,0.0,0.0942,0.1391,0.1391,0.1391,0.1391,0.1391,0.1391,0.1391,0.1391,0.1391,0.1391,0.1391,0.1391,0.1391,0.1391,0.1391,0.1211,0.0987,0.0897,0.0628,0.0269,0.018,0.009,0.0,0.0,0.0,0.0,0.0,0.0,0.0,0.0,0.0,0.0048,0.0334,0.0524,0.0762,0.1281,0.1469,0.1525,0.1555,0.1415,0.1322,0.1437,0.0944,0.0598,0.0655,0.0303,0.0,0.0,0.0,0.0,0.0,0.0,0.0,0.0,0.0,0.0,0.0,0.0,0.0,0.0,0.0,0.0,0.0,0.0,0.0,0.0,0.0,-0.0505,-0.1613,-0.267,-0.3875,-0.5229,-0.6584,-0.7341,0.0,0.0,0.0,0.0,0.0,0.0,0.0,0.0,0.0,0.0,0.0,0.0,0.0,0.0,0.0,0.0,0.0,0.0,0.0,0.0,0.0,0.0,0.0,0.0,0.0,0.0,0.0,0.0,0.0,0.0,-0.4287,-0.4295,-0.3892,-0.3038,-0.2057,-0.1119,-0.0269,0.0762,0.1256,0.1256,0.1345,0.1391,0.1391,0.1391,0.1391,0.1391,0.1391,0.1391,0.1391,0.1391,0.1391,0.1391,0.1391,0.1391,0.1345,0.1166,0.0942,0.0673,0.0448,0.0224,0.0045,0.0,0.0,0.0,0.0,0.0,0.0,0.0,0.0,0.0048,0.0288,0.0383,0.053,0.1029,0.1327,0.1531,0.1509,0.1516,0.1415,0.1212,0.0909,0.0657,0.0455,0.0202,0.0,0.0,0.0,0.0,0.0,0.0,0.0,0.0,0.0,0.0,0.0,0.0,0.0,0.0,0.0,0.0,0.0,0.0,0.0,0.0,0.0,-0.0505,-0.1462,-0.2519,-0.3775,-0.5129,-0.6434,-0.7238,0.0,0.0,0.0,0.0,0.0,0.0,0.0,0.0,0.0,0.0,0.0,0.0,0.0,0.0,0.0,0.0,0.0,0.0,0.0,0.0,0.0,0.0,0.0,0.0,0.0,0.0,0.0,0.0,0.0,0.0,-0.4204,-0.4263,-0.418,-0.394,-0.3065,-0.2464,-0.2284,-0.0582,0.0314,0.0314,0.1031,0.1391,0.1391,0.1391,0.1391,0.1391,0.1391,0.1391,0.1391,0.1391,0.1391,0.1391,0.1391,0.13,0.1166,0.1121,0.0942,0.0673,0.0448,0.0359,0.0271,0.0047,0.0,0.0,0.0,0.0,0.0,0.0,0.0,0.0,0.005,0.0249,0.045,0.0552,0.0794,0.0987,0.0956,0.0808,0.0707,0.0859,0.0505,0.0202,0.0354,0.0202,0.0,0.0,0.0,0.0,0.0,0.0,0.0,0.0,0.0,0.0,0.0,0.0,0.0,0.0,0.0,0.0,0.0,0.0,0.0,0.0,0.0,-0.0101,-0.0353,-0.1412,-0.2717,-0.4268,-0.5422,-0.6631,0.0,0.0,0.0,0.0,0.0,0.0,0.0,0.0,0.0,0.0,0.0,0.0,0.0,0.0,0.0,0.0,0.0,0.0,0.0,0.0,0.0,0.0,0.0,0.0,0.0,0.0,0.0,0.0,0.0,-0.42,-0.4112,-0.4148,-0.4153,-0.4108,-0.3274,-0.2823,-0.2823,-0.1381,-0.0448,0.0,0.0493,0.0987,0.1391,0.1391,0.1391,0.1391,0.1391,0.1391,0.1391,0.1391,0.1391,0.1391,0.1391,0.1345,0.1211,0.1121,0.0993,0.0865,0.0683,0.0504,0.0371,0.0239,0.0096,0.0,0.0,0.0,0.0,0.0,0.0,0.0,0.0,0.0101,0.0202,0.0202,0.0501,0.0799,0.0806,0.0707,0.0657,0.0758,0.0455,0.0253,0.0354,0.0202,0.0,0.0,0.0,0.0,0.0,0.0,0.0,0.0,0.0,0.0,0.0,0.0,0.0,0.0,0.0,0.0,0.0,0.0,0.0,0.0,0.0,0.0,0.0,-0.1211,-0.2266,-0.3267,-0.4972,-0.6329,0.0,0.0,0.0,0.0,0.0,0.0,0.0,0.0,0.0,0.0,0.0,0.0,0.0,0.0,0.0,0.0,0.0,0.0,0.0,0.0,0.0,0.0,0.0,0.0,0.0,0.0,0.0,0.0,0.0,-0.411,-0.3974,-0.3986,-0.3986,-0.397,-0.3298,-0.295,-0.295,-0.1904,-0.1029,-0.0224,0.009,0.0628,0.1391,0.1391,0.1391,0.1391,0.1391,0.1391,0.1391,0.1391,0.1391,0.1391,0.1391,0.1391,0.1391,0.1211,0.1136,0.1064,0.0925,0.0656,0.0383,0.039,0.0243,0.0,0.0,0.0,0.0,0.0,0.0,0.0,0.0,0.0,0.0,0.0,0.0354,0.0657,0.0657,0.0657,0.0657,0.0657,0.0505,0.0354,0.0354,0.0152,0.0,0.0,0.0,0.0,0.0,0.0,0.0,0.0,0.0,0.0,0.0,0.0,0.0,0.0,0.0,0.0,0.0,0.0,0.0,0.0,0.0,0.0,0.0,-0.116,-0.1966,-0.2467,-0.4674,-0.5979,0.0,0.0,0.0,0.0,0.0,0.0,0.0,0.0,0.0,0.0,0.0,0.0,0.0,0.0,0.0,0.0,0.0,0.0,0.0,0.0,0.0,0.0,0.0,0.0,0.0,0.0,0.0,0.0,-0.4012,-0.4014,-0.3922,-0.3952,-0.3958,-0.392,-0.3954,-0.3998,-0.3998,-0.2259,-0.1342,-0.1208,0.0448,0.13,0.1391,0.1391,0.1391,0.1391,0.1391,0.1391,0.1391,0.1391,0.1391,0.1391,0.1391,0.1391,0.1391,0.139,0.1272,0.111,0.1064,0.075,0.0383,0.039,0.0196,0.0,0.0,0.0,0.0,0.0,0.0,0.0,0.0,0.0,0.0,0.0,0.0051,0.0101,0.0101,0.0101,0.0101,0.0101,0.0101,0.0051,0.0051,0.0,0.0,0.0,0.0,0.0,0.0,0.0,0.0,0.0,0.0,0.0,0.0,0.0,0.0,0.0,0.0,0.0,0.0,0.0,0.0,0.0,0.0,0.0,0.0,-0.0404,-0.121,-0.2416,-0.3919,-0.5275,0.0,0.0,0.0,0.0,0.0,0.0,0.0,0.0,0.0,0.0,0.0,0.0,0.0,0.0,0.0,0.0,0.0,0.0,0.0,0.0,0.0,0.0,0.0,0.0,0.0,0.0,0.0,0.0,-0.3959,-0.392,-0.3868,-0.3861,-0.3865,-0.3864,-0.395,-0.379,-0.3323,-0.2524,-0.1637,-0.0582,0.0762,0.1391,0.1391,0.1391,0.1391,0.1391,0.1391,0.1391,0.1391,0.1391,0.1391,0.1391,0.1391,0.1391,0.1393,0.1455,0.1387,0.132,0.1383,0.1066,0.0641,0.0647,0.0349,0.0,0.0,0.0,0.0,0.0,0.0,0.0,0.0,0.0,0.0,0.0,0.0,0.0,0.0,0.0,0.0,0.0,0.0,0.0,0.0,0.0,0.0,0.0,0.0,0.0,0.0,0.0,0.0,0.0,0.0,0.0,0.0,0.0,0.0,0.0,0.0,0.0,0.0,0.0,0.0,0.0,0.0,-0.0051,-0.0202,-0.0505,-0.101,-0.1765,-0.297,-0.4124,0.0,0.0,0.0,0.0,0.0,0.0,0.0,0.0,0.0,0.0,0.0,0.0,0.0,0.0,0.0,0.0,0.0,0.0,0.0,0.0,0.0,0.0,0.0,0.0,0.0,0.0,0.0,0.0,-0.3865,-0.3836,-0.3806,-0.3802,-0.3802,-0.3802,-0.3852,-0.3488,-0.26,-0.22,-0.1235,0.0359,0.1076,0.1391,0.1391,0.1391,0.1391,0.1391,0.1391,0.1391,0.1391,0.1391,0.1391,0.1391,0.1391,0.1395,0.145,0.1472,0.141,0.1348,0.1465,0.1094,0.0606,0.0657,0.0404,0.0,0.0,0.0,0.0,0.0,0.0,0.0,0.0,0.0,0.0,0.0,0.0,0.0,0.0,0.0,0.0,0.0,0.0,0.0,0.0,0.0,0.0,0.0,0.0,0.0,0.0,0.0,0.0,0.0,0.0,0.0,0.0,0.0,0.0,0.0,0.0,0.0,0.0,0.0,0.0,0.0,0.0,-0.0152,-0.0404,-0.0657,-0.0909,-0.1111,-0.2267,-0.3171,0.0,0.0,0.0,0.0,0.0,0.0,0.0,0.0,0.0,0.0,0.0,0.0,0.0,0.0,0.0,0.0,0.0,0.0,0.0,0.0,0.0,0.0,0.0,0.0,0.0,0.0,0.0,0.0,-0.381,-0.3808,-0.3802,-0.3802,-0.3802,-0.3802,-0.3852,-0.3488,-0.26,-0.0964,0.0358,0.1345,0.1391,0.1391,0.1391,0.1391,0.1391,0.1391,0.1391,0.1391,0.1391,0.1391,0.1391,0.1391,0.1391,0.1453,0.1478,0.148,0.1233,0.0882,0.1129,0.0696,0.0101,0.0354,0.0253,0.0,0.0,0.0,0.0,0.0,0.0,0.0,0.0,0.0,0.0,0.0,0.0,0.0,0.0,0.0,0.0,0.0,0.0,0.0,0.0,0.0,0.0,0.0,0.0,0.0,0.0,0.0,0.0,0.0,0.0,0.0,0.0,0.0,0.0,0.0,0.0,0.0,0.0,0.0,0.0,0.0,0.0,-0.0152,-0.0404,-0.0657,-0.0808,-0.0859,-0.2167,-0.2718,0.0,0.0,0.0,0.0,0.0,0.0,0.0,0.0,0.0,0.0,0.0,0.0,0.0,0.0,0.0,0.0,0.0,0.0,0.0,0.0,0.0,0.0,0.0,0.0,0.0,0.0,0.0,0.0,0.0,-0.3802,-0.3802,-0.3802,-0.3802,-0.3802,-0.3835,-0.3154,-0.1721,0.0044,0.1076,0.1391,0.1391,0.1391,0.1391,0.1391,0.1391,0.1391,0.1391,0.1391,0.1391,0.1391,0.1391,0.1391,0.1391,0.1397,0.1456,0.1495,0.1285,0.1016,0.1141,0.0804,0.0253,0.0354,0.0202,0.0,0.0,0.0,0.0,0.0,0.0,0.0,0.0,0.0,0.0,0.0,0.0,0.0,0.0,0.0,0.0,0.0,0.0,0.0,0.0,0.0,0.0,0.0,0.0,0.0,0.0,0.0,0.0,0.0,0.0,0.0,0.0,0.0,0.0,0.0,0.0,0.0,0.0,0.0,0.0,0.0,0.0,-0.0152,-0.0404,-0.0505,-0.0657,-0.0808,-0.111,-0.1563,0.0,0.0,0.0,0.0,0.0,0.0,0.0,0.0,0.0,0.0,0.0,0.0,0.0,0.0,0.0,0.0,0.0,0.0,0.0,0.0,0.0,0.0,0.0,0.0,0.0,0.0,0.0,0.0,0.0,0.0,-0.3802,-0.3802,-0.3802,-0.3802,-0.3238,-0.2384,-0.1218,0.0523,0.1381,0.1391,0.1391,0.1391,0.1391,0.1391,0.1391,0.1391,0.1391,0.1391,0.1391,0.1391,0.1391,0.1391,0.1391,0.1403,0.1424,0.1464,0.1293,0.1016,0.105,0.0704,0.025,0.0252,0.0152,0.0,0.0,0.0,0.0,0.0,0.0,0.0,0.0,0.0,0.0,0.0,0.0,0.0,0.0,0.0,0.0,0.0,0.0,0.0,0.0,0.0,0.0,0.0,0.0,0.0,0.0,0.0,0.0,0.0,0.0,0.0,0.0,0.0,0.0,0.0,0.0,0.0,0.0,0.0,0.0,0.0,0.0,-0.0101,-0.0253,-0.0354,-0.0505,-0.0657,-0.0505,-0.0959,0.0,0.0,0.0,0.0,0.0,0.0,0.0,0.0,0.0,0.0,0.0,0.0,0.0,0.0,0.0,0.0,0.0,0.0,0.0,0.0,0.0,0.0,0.0,0.0,0.0,0.0,0.0,0.0,-0.3802,-0.3802,-0.3802,-0.3763,-0.3763,-0.3763,-0.2085,-0.1149,-0.1176,0.0558,0.1406,0.1391,0.1391,0.1391,0.1391,0.1391,0.1391,0.1391,0.1391,0.1391,0.1391,0.1391,0.1391,0.1391,0.1391,0.1425,0.1476,0.1477,0.1206,0.0787,0.0802,0.0449,0.0,0.0,0.0,0.0,0.0,0.0,0.0,0.0,0.0,0.0,0.0,0.0,0.0,0.0,0.0,0.0,0.0,0.0,0.0,0.0,0.0,0.0,0.0,0.0,0.0,0.0,0.0,0.0,0.0,0.0,0.0,0.0,0.0,0.0,0.0,0.0,0.0,0.0,0.0,0.0,0.0,0.0,0.0,0.0,0.0,0.0,0.0,-0.0253,-0.0404,-0.0404,-0.0404,-0.0958,0.0,0.0,0.0,0.0,0.0,0.0,0.0,0.0,0.0,0.0,0.0,0.0,0.0,0.0,0.0,0.0,0.0,0.0,0.0,0.0,0.0,0.0,0.0,0.0,0.0,0.0,0.0,0.0,-0.3921,-0.396,-0.3802,-0.3215,-0.2862,-0.2862,-0.1203,-0.0328,-0.0252,0.0859,0.1406,0.1391,0.1391,0.1391,0.1391,0.1391,0.1391,0.1391,0.1391,0.1391,0.1391,0.1391,0.1391,0.1391,0.1391,0.14,0.1417,0.1253,0.0992,0.0723,0.0541,0.0298,0.0,0.0,0.0,0.0,0.0,0.0,0.0,0.0,0.0,0.0,0.0,0.0,0.0,0.0,0.0,0.0,0.0,0.0,0.0,0.0,0.0,0.0,0.0,0.0,0.0,0.0,0.0,0.0,0.0,0.0,0.0,0.0,0.0,0.0,0.0,0.0,0.0,0.0,0.0,0.0,0.0,0.0,0.0,0.0,0.0,0.0,0.0,-0.0051,-0.0101,-0.0101,-0.0101,-0.0252,0.0,0.0,0.0,0.0,0.0,0.0,0.0,0.0475,0.0,0.0,0.0,0.0,0.0,0.0,0.0,0.0,0.0,0.0,0.0,0.0,0.0,0.0,0.0,0.0,0.0,-0.4233,-0.4192,-0.4075,-0.4077,-0.3999,-0.3802,-0.2979,-0.2511,-0.2511,-0.0874,0.0,0.0041,0.0924,0.1374,0.1416,0.1416,0.1379,0.1391,0.1391,0.1391,0.1391,0.1391,0.1345,0.1256,0.1256,0.1256,0.1256,0.1256,0.1218,0.1138,0.1013,0.0792,0.0567,0.0438,0.0246,0.0,0.0,0.0,0.0,0.0,0.0,0.0,0.0,0.0,0.0,0.0,0.0,0.0,0.0,0.0,0.0,0.0,0.0,0.0,0.0,0.0,0.0,0.0,0.0,0.0,0.0,0.0,0.0,0.0,0.0,0.0,0.0,0.0,0.0,0.0,0.0,0.0,0.0,0.0,0.0,0.0,0.0,0.0,0.0,0.0,0.0,0.0,0.0,0.0,0.0,0.0,0.0,0.0,0.0,0.0,0.0,0.0,0.0,0.0316,0.0355,0.0434,0.0,0.0,0.0,0.0,0.0,0.0,0.0,0.0,0.0,0.0,0.0,0.0,0.0,0.0,0.0,-0.4423,-0.4423,-0.4423,-0.4384,-0.4233,-0.4038,-0.3841,-0.2901,-0.2353,-0.2353,-0.0744,0.0159,0.0162,0.0895,0.1331,0.1385,0.1388,0.1404,0.1385,0.1389,0.1391,0.1391,0.139,0.1256,0.1076,0.1076,0.1076,0.1076,0.1076,0.0952,0.0784,0.0784,0.0601,0.0373,0.0387,0.0194,0.0,0.0,0.0,0.0,0.0,0.0,0.0,0.0,0.0,0.0,0.0,0.0,0.0,0.0,0.0,0.0,0.0,0.0,0.0,0.0,0.0,0.0,0.0,0.0,0.0,0.0,0.0,0.0,0.0,0.0,0.0,0.0,0.0,0.0,0.0,0.0,0.0,0.0,0.0,0.0,0.0,0.0,0.0,0.0,0.0,0.0,0.0,0.0,0.0,0.0,0.0,0.0,0.0,0.0,0.0,0.0,0.0,0.0,0.0073,0.0073,0.0149,0.0,0.0,0.0,0.0,0.0,0.0,0.0,0.0,0.0,0.0,0.0,0.0,0.0,0.0,0.0,-0.4621,-0.4659,-0.4582,-0.4423,-0.4233,-0.4079,-0.404,-0.2429,-0.1528,-0.1528,0.0157,0.1032,0.1057,0.1221,0.1321,0.1314,0.1379,0.1393,0.1399,0.1379,0.1391,0.1391,0.1211,0.1121,0.1076,0.0852,0.0762,0.0762,0.0762,0.0764,0.0722,0.0541,0.0461,0.038,0.0143,0.0049,0.0,0.0,0.0,0.0,0.0,0.0,0.0,0.0,0.0,0.0,0.0,0.0,0.0,0.0,0.0,0.0,0.0,0.0,0.0,0.0,0.0,0.0,0.0,0.0,0.0,0.0,0.0,0.0,0.0,0.0,0.0,0.0,0.0,0.0,0.0,0.0,0.0,0.0,0.0,0.0,0.0,0.0,0.0,0.0,0.0,0.0,0.0,0.0,0.0,0.0,0.0,0.0,0.0,0.0,0.0,0.0,0.0,0.0,0.0,0.0,0.0,0.0,0.0,0.0,0.0,0.0,0.0,0.0,0.0,0.0,0.0,0.0,0.0,0.0,0.0,0.0,-0.4859,-0.4859,-0.4779,-0.4582,-0.4467,-0.4153,-0.3643,-0.2233,-0.1254,-0.0824,0.0549,0.1304,0.132,0.132,0.1295,0.1284,0.1355,0.1376,0.1391,0.1288,0.1256,0.1256,0.0987,0.0852,0.0762,0.0628,0.0493,0.0359,0.0493,0.0448,0.0359,0.0224,0.0183,0.0188,0.0048,0.0,0.0,0.0,0.0,0.0,0.0,0.0,0.0,0.0,0.0,0.0,0.0,0.0,0.0,0.0,0.0,0.0,0.0,0.0,0.0,0.0,0.0,0.0,0.0,0.0,0.0,0.0,0.0,0.0,0.0,0.0,0.0,0.0,0.0,0.0,0.0,0.0,0.0,0.0,0.0,0.0,0.0,0.0,0.0,0.0,0.0,0.0,0.0,0.0,0.0,0.0,0.0,0.0,0.0,0.0,0.0,0.0,0.0,-0.0222,0.0,0.0,0.0,0.0,0.0,0.0,0.0,0.0,0.0,0.0,0.0,0.0,0.0,0.0,0.0,0.0,0.0,0.0,-0.5018,-0.4996,-0.4913,-0.4779,-0.4678,-0.4208,-0.321,-0.2193,-0.1255,-0.0314,0.0707,0.1257,0.1296,0.1296,0.1309,0.1294,0.1289,0.1317,0.1383,0.1197,0.1121,0.1076,0.0762,0.0538,0.0403,0.0359,0.018,0.0,0.0224,0.018,0.0,0.0,0.0,0.0,0.0,0.0,0.0,0.0,0.0,0.0,0.0,0.0,0.0,0.0,0.0,0.0,0.0,0.0,0.0,0.0,0.0,0.0,0.0,0.0,0.0,0.0,0.0,0.0,0.0,0.0,0.0,0.0,0.0,0.0,0.0,0.0,0.0,0.0,0.0,0.0,0.0,0.0,0.0,0.0,0.0,0.0,0.0,0.0,0.0,0.0,0.0,0.0,0.0,0.0,0.0,0.0,0.0,0.0,0.0,0.0,0.0,0.0,-0.0499,0.0,0.0,0.0,-0.2004,-0.1991,0.0,0.0,0.0,0.0,0.0,0.0,0.0,0.0,0.0,0.0,0.0,0.0,0.0,0.0,0.0,-0.4879,-0.4863,-0.4968,-0.4683,-0.417,-0.3404,-0.2429,-0.1372,-0.0314,0.051,0.1061,0.1296,0.1296,0.1298,0.1303,0.132,0.1307,0.1312,0.1145,0.1121,0.1076,0.0628,0.0403,0.0403,0.0135,0.0045,0.0,0.0045,0.0045,0.0,0.0,0.0,0.0,0.0,0.0,0.0,0.0,0.0,0.0,0.0,0.0,0.0,0.0,0.0,0.0,0.0,0.0,0.0,0.0,0.0,0.0,0.0,0.0,0.0,0.0,0.0,0.0,0.0,0.0,0.0,0.0,0.0,0.0,0.0,0.0,0.0,0.0,0.0,0.0,0.0,0.0,0.0,0.0,0.0,0.0,0.0,0.0,0.0,0.0,0.0,0.0,0.0,0.0,0.0,0.0,0.0,0.0,0.0,0.0,0.0,0.0,0.0,0.0,-0.1089,0.0,-0.2771,0.0,0.0,0.0,0.0,0.0,0.0,0.0,0.0,0.0,0.0,0.0,0.0,0.0,0.0,0.0,0.0,0.0,0.0,0.0,-0.4346,-0.3641,-0.2934,-0.1904,-0.0915,0.0,0.0471,0.0786,0.0904,0.0904,0.0904,0.0904,0.0935,0.0956,0.0927,0.0783,0.071,0.0673,0.0314,0.018,0.018,0.0045,0.0,0.0,0.0,0.0,0.0,0.0,0.0,0.0,0.0,0.0,0.0,0.0,0.0,0.0,0.0,0.0,0.0,0.0,0.0,0.0,0.0,0.0,0.0,0.0,0.0,0.0,0.0,0.0,0.0,0.0,0.0,0.0,0.0,0.0,0.0,0.0,0.0,0.0,0.0,0.0,0.0,0.0,0.0,0.0,0.0,0.0,0.0,0.0,0.0,0.0,0.0,0.0,0.0,0.0,0.0,0.0,0.0,0.0,0.0,0.0,0.0,0.0,0.0,0.0,0.0,0.0,0.0,0.0,0.0,0.0,0.0,0.0,0.0,0.0,0.0,0.0,0.0,0.0,0.0,0.0,0.0,0.0,0.0,0.0,0.0,0.0,0.0,0.0,0.0,0.0,0.0,-0.3159,-0.2212,-0.1416,-0.0608,0.0278,0.0436,0.0554,0.0589,0.0589,0.0589,0.0589,0.0684,0.07,0.0674,0.0474,0.0396,0.0403,0.0135,0.0,0.0,0.0,0.0,0.0,0.0,0.0,0.0,0.0,0.0,0.0,0.0,0.0,0.0,0.0,0.0,0.0,0.0,0.0,0.0,0.0,0.0,0.0,0.0,0.0,0.0,0.0,0.0,0.0,0.0,0.0,0.0,0.0,0.0,0.0,0.0,0.0,0.0,0.0,0.0,0.0,0.0,0.0,0.0,0.0,0.0,0.0,0.0,0.0,0.0,0.0,0.0,0.0,0.0,0.0,0.0,0.0,0.0,0.0,0.0,0.0,0.0,0.0,0.0,0.0,0.0,0.0,0.0,0.0,0.0,0.0,0.0,0.0,-0.4433,0.0,0.0,0.0,0.0,0.0,0.0,0.0,0.0,0.0,0.0,0.0,0.0,0.0,0.0,0.0,0.0,0.0,0.0,0.0,-0.356,0.0,-0.1416,-0.1326,-0.079,0.0285,0.0325,0.0402,0.0589,0.0589,0.0589,0.0589,0.0684,0.07,0.0674,0.0474,0.0396,0.0403,0.0135,0.0,0.0,0.0,0.0,0.0,0.0,0.0,0.0,0.0,0.0,0.0,0.0,0.0,0.0,0.0,0.0,0.0,0.0,0.0,0.0,0.0,0.0,0.0,0.0,0.0,0.0,0.0,0.0,0.0,0.0,0.0,0.0,0.0,0.0,0.0,0.0,0.0,0.0,0.0,0.0,0.0,0.0,0.0,0.0,0.0,0.0,0.0,0.0,0.0,0.0,0.0,0.0,0.0,0.0,0.0,0.0,0.0,0.0,0.0,0.0,0.0,0.0,0.0,0.0,0.0,0.0,0.0,0.0,0.0,0.0,0.0,0.0,0.0,0.0,0.0,0.0,0.0,0.0,0.0,0.0,0.0,0.0,0.0,0.0,0.0,0.0,0.0,0.0,0.0,0.0,0.0,0.0,0.0,-0.2542,0.0,-0.1338,-0.0759,-0.0256,0.0083,0.0082,0.0122,0.0201,0.0198,0.0196,0.0196,0.0241,0.0247,0.0253,0.0172,0.0132,0.0135,0.0045,0.0,0.0,0.0,0.0,0.0,0.0,0.0,0.0,0.0,0.0,0.0,0.0,0.0,0.0,0.0,0.0,0.0,0.0,0.0,0.0,0.0,0.0,0.0,0.0,0.0,0.0,0.0,0.0,0.0,0.0,0.0,0.0,0.0,0.0,0.0,0.0,0.0,0.0,0.0,0.0,0.0,0.0,0.0,0.0,0.0,0.0,0.0,0.0,0.0,0.0,0.0,0.0,0.0,0.0,0.0,0.0,0.0,0.0,0.0,0.0,0.0,0.0,0.0,0.0,0.0,0.0,0.0,0.0,0.0,-0.087,0.0,-0.2052,0.0,-0.4079,0.0,0.0,0.0,0.0,0.0,0.0,0.0,0.0,0.0,0.0,0.0,0.0,0.0,0.0,0.0,0.0,0.0,-0.3605,-0.2854,-0.196,0.0,0.0,-0.0302,0.0,0.0,0.0,0.0,0.0,0.0,0.0,0.0,0.0,0.0,0.0,0.0,0.0,0.0,0.0,0.0,0.0,0.0,0.0,0.0,0.0,0.0,0.0,0.0,0.0,0.0,0.0,0.0,0.0,0.0,0.0,0.0,0.0,0.0,0.0,0.0,0.0,0.0,0.0,0.0,0.0,0.0,0.0,0.0,0.0,0.0,0.0,0.0,0.0,0.0,0.0,0.0,0.0,0.0,0.0,0.0,0.0,0.0,0.0,0.0,0.0,0.0,0.0,0.0,0.0,0.0,0.0,0.0,0.0,0.0,0.0,0.0,0.0,0.0,0.0,0.0,0.0,0.0,0.0,0.0]}]]